<?xml version="1.0" encoding="UTF-8" standalone="no" ?>
<gpx xmlns="http://www.topografix.com/GPX/1/1" xmlns:xsi="http://www.w3.org/2001/XMLSchema-instance" xsi:schemaLocation="http://www.topografix.com/GPX/1/1 http://www.topografix.com/GPX/1/1/gpx.xsd" version="1.1" creator="VisuGPX - https://www.visugpx.com">
  <metadata>
    <name>Cyclo - Tour du lac d'Annecy</name>
    <desc><![CDATA[Le tour du lac au mois de décembre plutôt cool mais frais :)]]></desc>
  </metadata>
  <trk>
    <name><![CDATA[20-DEC-16 12:42:34]]></name>
    <trkseg>
      <trkpt lat="45.90149" lon="6.12531">
        <ele>372.65</ele>
        <time>2016-12-20T08:49:53Z</time>
      </trkpt>
      <trkpt lat="45.90149" lon="6.12532">
        <ele>372.65</ele>
        <time>2016-12-20T08:49:54Z</time>
      </trkpt>
      <trkpt lat="45.9015" lon="6.12532">
        <ele>372.65</ele>
        <time>2016-12-20T08:49:55Z</time>
      </trkpt>
      <trkpt lat="45.90156" lon="6.12542">
        <ele>372.17</ele>
        <time>2016-12-20T08:50:00Z</time>
      </trkpt>
      <trkpt lat="45.90159" lon="6.12547">
        <ele>372.17</ele>
        <time>2016-12-20T08:50:02Z</time>
      </trkpt>
      <trkpt lat="45.90154" lon="6.1256">
        <ele>372.17</ele>
        <time>2016-12-20T08:50:07Z</time>
      </trkpt>
      <trkpt lat="45.90156" lon="6.12599">
        <ele>377.45</ele>
        <time>2016-12-20T08:50:16Z</time>
      </trkpt>
      <trkpt lat="45.90157" lon="6.12609">
        <ele>382.74</ele>
        <time>2016-12-20T08:50:18Z</time>
      </trkpt>
      <trkpt lat="45.90156" lon="6.12619">
        <ele>387.55</ele>
        <time>2016-12-20T08:50:20Z</time>
      </trkpt>
      <trkpt lat="45.90156" lon="6.1263">
        <ele>392.36</ele>
        <time>2016-12-20T08:50:22Z</time>
      </trkpt>
      <trkpt lat="45.90156" lon="6.12641">
        <ele>396.2</ele>
        <time>2016-12-20T08:50:24Z</time>
      </trkpt>
      <trkpt lat="45.90157" lon="6.12651">
        <ele>400.05</ele>
        <time>2016-12-20T08:50:26Z</time>
      </trkpt>
      <trkpt lat="45.90158" lon="6.12655">
        <ele>401.97</ele>
        <time>2016-12-20T08:50:27Z</time>
      </trkpt>
      <trkpt lat="45.90156" lon="6.1267">
        <ele>407.26</ele>
        <time>2016-12-20T08:50:30Z</time>
      </trkpt>
      <trkpt lat="45.90153" lon="6.12681">
        <ele>410.14</ele>
        <time>2016-12-20T08:50:32Z</time>
      </trkpt>
      <trkpt lat="45.90151" lon="6.12699">
        <ele>414.47</ele>
        <time>2016-12-20T08:50:35Z</time>
      </trkpt>
      <trkpt lat="45.9015" lon="6.12705">
        <ele>415.91</ele>
        <time>2016-12-20T08:50:36Z</time>
      </trkpt>
      <trkpt lat="45.90148" lon="6.12712">
        <ele>417.35</ele>
        <time>2016-12-20T08:50:37Z</time>
      </trkpt>
      <trkpt lat="45.90147" lon="6.12717">
        <ele>418.31</ele>
        <time>2016-12-20T08:50:38Z</time>
      </trkpt>
      <trkpt lat="45.90146" lon="6.12725">
        <ele>422.16</ele>
        <time>2016-12-20T08:50:41Z</time>
      </trkpt>
      <trkpt lat="45.90145" lon="6.12729">
        <ele>424.08</ele>
        <time>2016-12-20T08:50:43Z</time>
      </trkpt>
      <trkpt lat="45.90146" lon="6.12731">
        <ele>424.08</ele>
        <time>2016-12-20T08:50:44Z</time>
      </trkpt>
      <trkpt lat="45.90144" lon="6.12738">
        <ele>424.08</ele>
        <time>2016-12-20T08:50:45Z</time>
      </trkpt>
      <trkpt lat="45.9014" lon="6.1275">
        <ele>425.52</ele>
        <time>2016-12-20T08:50:47Z</time>
      </trkpt>
      <trkpt lat="45.90138" lon="6.12766">
        <ele>430.81</ele>
        <time>2016-12-20T08:50:50Z</time>
      </trkpt>
      <trkpt lat="45.90137" lon="6.12771">
        <ele>430.33</ele>
        <time>2016-12-20T08:50:51Z</time>
      </trkpt>
      <trkpt lat="45.90143" lon="6.12799">
        <ele>434.17</ele>
        <time>2016-12-20T08:50:57Z</time>
      </trkpt>
      <trkpt lat="45.90143" lon="6.12802">
        <ele>434.65</ele>
        <time>2016-12-20T08:50:58Z</time>
      </trkpt>
      <trkpt lat="45.90143" lon="6.12806">
        <ele>437.54</ele>
        <time>2016-12-20T08:51:04Z</time>
      </trkpt>
      <trkpt lat="45.90144" lon="6.12809">
        <ele>440.9</ele>
        <time>2016-12-20T08:51:12Z</time>
      </trkpt>
      <trkpt lat="45.90144" lon="6.1281">
        <ele>444.27</ele>
        <time>2016-12-20T08:51:20Z</time>
      </trkpt>
      <trkpt lat="45.90143" lon="6.12814">
        <ele>447.15</ele>
        <time>2016-12-20T08:51:28Z</time>
      </trkpt>
      <trkpt lat="45.90143" lon="6.12814">
        <ele>447.63</ele>
        <time>2016-12-20T08:51:29Z</time>
      </trkpt>
      <trkpt lat="45.90142" lon="6.12815">
        <ele>447.63</ele>
        <time>2016-12-20T08:51:30Z</time>
      </trkpt>
      <trkpt lat="45.9014" lon="6.12817">
        <ele>448.11</ele>
        <time>2016-12-20T08:51:31Z</time>
      </trkpt>
      <trkpt lat="45.90139" lon="6.12819">
        <ele>448.59</ele>
        <time>2016-12-20T08:51:32Z</time>
      </trkpt>
      <trkpt lat="45.90138" lon="6.1282">
        <ele>449.07</ele>
        <time>2016-12-20T08:51:33Z</time>
      </trkpt>
      <trkpt lat="45.90128" lon="6.12829">
        <ele>451</ele>
        <time>2016-12-20T08:51:40Z</time>
      </trkpt>
      <trkpt lat="45.90129" lon="6.12833">
        <ele>451.48</ele>
        <time>2016-12-20T08:51:41Z</time>
      </trkpt>
      <trkpt lat="45.90146" lon="6.12899">
        <ele>452.44</ele>
        <time>2016-12-20T08:51:54Z</time>
      </trkpt>
      <trkpt lat="45.90146" lon="6.1291">
        <ele>452.44</ele>
        <time>2016-12-20T08:51:56Z</time>
      </trkpt>
      <trkpt lat="45.90145" lon="6.12914">
        <ele>452.44</ele>
        <time>2016-12-20T08:51:57Z</time>
      </trkpt>
      <trkpt lat="45.90142" lon="6.12919">
        <ele>452.92</ele>
        <time>2016-12-20T08:51:58Z</time>
      </trkpt>
      <trkpt lat="45.90139" lon="6.12922">
        <ele>452.92</ele>
        <time>2016-12-20T08:51:59Z</time>
      </trkpt>
      <trkpt lat="45.90136" lon="6.12924">
        <ele>452.92</ele>
        <time>2016-12-20T08:52:00Z</time>
      </trkpt>
      <trkpt lat="45.90129" lon="6.12932">
        <ele>452.92</ele>
        <time>2016-12-20T08:52:02Z</time>
      </trkpt>
      <trkpt lat="45.90104" lon="6.13016">
        <ele>453.4</ele>
        <time>2016-12-20T08:52:17Z</time>
      </trkpt>
      <trkpt lat="45.90096" lon="6.13044">
        <ele>452.44</ele>
        <time>2016-12-20T08:52:26Z</time>
      </trkpt>
      <trkpt lat="45.90095" lon="6.13049">
        <ele>452.44</ele>
        <time>2016-12-20T08:52:27Z</time>
      </trkpt>
      <trkpt lat="45.9007" lon="6.13124">
        <ele>452.44</ele>
        <time>2016-12-20T08:52:41Z</time>
      </trkpt>
      <trkpt lat="45.90067" lon="6.13128">
        <ele>452.44</ele>
        <time>2016-12-20T08:52:42Z</time>
      </trkpt>
      <trkpt lat="45.90063" lon="6.13132">
        <ele>452.44</ele>
        <time>2016-12-20T08:52:43Z</time>
      </trkpt>
      <trkpt lat="45.90059" lon="6.13134">
        <ele>452.44</ele>
        <time>2016-12-20T08:52:44Z</time>
      </trkpt>
      <trkpt lat="45.90055" lon="6.13136">
        <ele>452.44</ele>
        <time>2016-12-20T08:52:45Z</time>
      </trkpt>
      <trkpt lat="45.90051" lon="6.13137">
        <ele>452.44</ele>
        <time>2016-12-20T08:52:46Z</time>
      </trkpt>
      <trkpt lat="45.90043" lon="6.1314">
        <ele>452.44</ele>
        <time>2016-12-20T08:52:48Z</time>
      </trkpt>
      <trkpt lat="45.9004" lon="6.13143">
        <ele>452.44</ele>
        <time>2016-12-20T08:52:49Z</time>
      </trkpt>
      <trkpt lat="45.90038" lon="6.13146">
        <ele>452.92</ele>
        <time>2016-12-20T08:52:50Z</time>
      </trkpt>
      <trkpt lat="45.90037" lon="6.13148">
        <ele>452.92</ele>
        <time>2016-12-20T08:52:51Z</time>
      </trkpt>
      <trkpt lat="45.90037" lon="6.13154">
        <ele>452.92</ele>
        <time>2016-12-20T08:52:52Z</time>
      </trkpt>
      <trkpt lat="45.90038" lon="6.13159">
        <ele>452.92</ele>
        <time>2016-12-20T08:52:53Z</time>
      </trkpt>
      <trkpt lat="45.90041" lon="6.13162">
        <ele>452.92</ele>
        <time>2016-12-20T08:52:54Z</time>
      </trkpt>
      <trkpt lat="45.90044" lon="6.13164">
        <ele>452.92</ele>
        <time>2016-12-20T08:52:55Z</time>
      </trkpt>
      <trkpt lat="45.90048" lon="6.13167">
        <ele>452.92</ele>
        <time>2016-12-20T08:52:56Z</time>
      </trkpt>
      <trkpt lat="45.90061" lon="6.13188">
        <ele>452.92</ele>
        <time>2016-12-20T08:53:01Z</time>
      </trkpt>
      <trkpt lat="45.90065" lon="6.13192">
        <ele>452.92</ele>
        <time>2016-12-20T08:53:02Z</time>
      </trkpt>
      <trkpt lat="45.90108" lon="6.13233">
        <ele>452.44</ele>
        <time>2016-12-20T08:53:14Z</time>
      </trkpt>
      <trkpt lat="45.90116" lon="6.13241">
        <ele>452.44</ele>
        <time>2016-12-20T08:53:16Z</time>
      </trkpt>
      <trkpt lat="45.90118" lon="6.13246">
        <ele>452.44</ele>
        <time>2016-12-20T08:53:17Z</time>
      </trkpt>
      <trkpt lat="45.9012" lon="6.13252">
        <ele>452.44</ele>
        <time>2016-12-20T08:53:18Z</time>
      </trkpt>
      <trkpt lat="45.90121" lon="6.13258">
        <ele>452.44</ele>
        <time>2016-12-20T08:53:19Z</time>
      </trkpt>
      <trkpt lat="45.90123" lon="6.13264">
        <ele>452.44</ele>
        <time>2016-12-20T08:53:20Z</time>
      </trkpt>
      <trkpt lat="45.90124" lon="6.1327">
        <ele>452.44</ele>
        <time>2016-12-20T08:53:21Z</time>
      </trkpt>
      <trkpt lat="45.90125" lon="6.13276">
        <ele>452.44</ele>
        <time>2016-12-20T08:53:22Z</time>
      </trkpt>
      <trkpt lat="45.90125" lon="6.13282">
        <ele>452.44</ele>
        <time>2016-12-20T08:53:23Z</time>
      </trkpt>
      <trkpt lat="45.90128" lon="6.13295">
        <ele>452.44</ele>
        <time>2016-12-20T08:53:25Z</time>
      </trkpt>
      <trkpt lat="45.90133" lon="6.13314">
        <ele>451.96</ele>
        <time>2016-12-20T08:53:28Z</time>
      </trkpt>
      <trkpt lat="45.90138" lon="6.13331">
        <ele>452.44</ele>
        <time>2016-12-20T08:53:31Z</time>
      </trkpt>
      <trkpt lat="45.9014" lon="6.13336">
        <ele>452.44</ele>
        <time>2016-12-20T08:53:32Z</time>
      </trkpt>
      <trkpt lat="45.90142" lon="6.13348">
        <ele>452.44</ele>
        <time>2016-12-20T08:53:34Z</time>
      </trkpt>
      <trkpt lat="45.90173" lon="6.13441">
        <ele>451.96</ele>
        <time>2016-12-20T08:53:49Z</time>
      </trkpt>
      <trkpt lat="45.90211" lon="6.13487">
        <ele>451.96</ele>
        <time>2016-12-20T08:53:59Z</time>
      </trkpt>
      <trkpt lat="45.90215" lon="6.13489">
        <ele>451.96</ele>
        <time>2016-12-20T08:54:00Z</time>
      </trkpt>
      <trkpt lat="45.90248" lon="6.13505">
        <ele>451.96</ele>
        <time>2016-12-20T08:54:08Z</time>
      </trkpt>
      <trkpt lat="45.90299" lon="6.1356">
        <ele>451.96</ele>
        <time>2016-12-20T08:54:21Z</time>
      </trkpt>
      <trkpt lat="45.90314" lon="6.13586">
        <ele>451.96</ele>
        <time>2016-12-20T08:54:26Z</time>
      </trkpt>
      <trkpt lat="45.90317" lon="6.13591">
        <ele>451.96</ele>
        <time>2016-12-20T08:54:27Z</time>
      </trkpt>
      <trkpt lat="45.90321" lon="6.13595">
        <ele>451.96</ele>
        <time>2016-12-20T08:54:28Z</time>
      </trkpt>
      <trkpt lat="45.90325" lon="6.13598">
        <ele>451.96</ele>
        <time>2016-12-20T08:54:29Z</time>
      </trkpt>
      <trkpt lat="45.90329" lon="6.13603">
        <ele>451.96</ele>
        <time>2016-12-20T08:54:30Z</time>
      </trkpt>
      <trkpt lat="45.90332" lon="6.13607">
        <ele>451.96</ele>
        <time>2016-12-20T08:54:31Z</time>
      </trkpt>
      <trkpt lat="45.90338" lon="6.13627">
        <ele>451.96</ele>
        <time>2016-12-20T08:54:35Z</time>
      </trkpt>
      <trkpt lat="45.90339" lon="6.13637">
        <ele>451.96</ele>
        <time>2016-12-20T08:54:37Z</time>
      </trkpt>
      <trkpt lat="45.90341" lon="6.13642">
        <ele>451.96</ele>
        <time>2016-12-20T08:54:38Z</time>
      </trkpt>
      <trkpt lat="45.90344" lon="6.13648">
        <ele>451.96</ele>
        <time>2016-12-20T08:54:39Z</time>
      </trkpt>
      <trkpt lat="45.90346" lon="6.13654">
        <ele>451.96</ele>
        <time>2016-12-20T08:54:40Z</time>
      </trkpt>
      <trkpt lat="45.90347" lon="6.13659">
        <ele>452.44</ele>
        <time>2016-12-20T08:54:41Z</time>
      </trkpt>
      <trkpt lat="45.90347" lon="6.13665">
        <ele>451.96</ele>
        <time>2016-12-20T08:54:42Z</time>
      </trkpt>
      <trkpt lat="45.90348" lon="6.13672">
        <ele>451.96</ele>
        <time>2016-12-20T08:54:43Z</time>
      </trkpt>
      <trkpt lat="45.9035" lon="6.13678">
        <ele>451.96</ele>
        <time>2016-12-20T08:54:44Z</time>
      </trkpt>
      <trkpt lat="45.90352" lon="6.13684">
        <ele>451.96</ele>
        <time>2016-12-20T08:54:45Z</time>
      </trkpt>
      <trkpt lat="45.90353" lon="6.13689">
        <ele>451.96</ele>
        <time>2016-12-20T08:54:46Z</time>
      </trkpt>
      <trkpt lat="45.90355" lon="6.13695">
        <ele>451.96</ele>
        <time>2016-12-20T08:54:47Z</time>
      </trkpt>
      <trkpt lat="45.90355" lon="6.13702">
        <ele>451.96</ele>
        <time>2016-12-20T08:54:48Z</time>
      </trkpt>
      <trkpt lat="45.90357" lon="6.13707">
        <ele>451.96</ele>
        <time>2016-12-20T08:54:49Z</time>
      </trkpt>
      <trkpt lat="45.9036" lon="6.13713">
        <ele>451.96</ele>
        <time>2016-12-20T08:54:50Z</time>
      </trkpt>
      <trkpt lat="45.90362" lon="6.13719">
        <ele>451.96</ele>
        <time>2016-12-20T08:54:51Z</time>
      </trkpt>
      <trkpt lat="45.90364" lon="6.13726">
        <ele>451.96</ele>
        <time>2016-12-20T08:54:52Z</time>
      </trkpt>
      <trkpt lat="45.90365" lon="6.13733">
        <ele>451.96</ele>
        <time>2016-12-20T08:54:53Z</time>
      </trkpt>
      <trkpt lat="45.90368" lon="6.13739">
        <ele>451.48</ele>
        <time>2016-12-20T08:54:54Z</time>
      </trkpt>
      <trkpt lat="45.90381" lon="6.13772">
        <ele>451</ele>
        <time>2016-12-20T08:54:59Z</time>
      </trkpt>
      <trkpt lat="45.90383" lon="6.1378">
        <ele>451</ele>
        <time>2016-12-20T08:55:00Z</time>
      </trkpt>
      <trkpt lat="45.90388" lon="6.13806">
        <ele>451.48</ele>
        <time>2016-12-20T08:55:03Z</time>
      </trkpt>
      <trkpt lat="45.90392" lon="6.13821">
        <ele>451.48</ele>
        <time>2016-12-20T08:55:05Z</time>
      </trkpt>
      <trkpt lat="45.90395" lon="6.13827">
        <ele>451.48</ele>
        <time>2016-12-20T08:55:06Z</time>
      </trkpt>
      <trkpt lat="45.90399" lon="6.13832">
        <ele>451.48</ele>
        <time>2016-12-20T08:55:07Z</time>
      </trkpt>
      <trkpt lat="45.90403" lon="6.13837">
        <ele>451.48</ele>
        <time>2016-12-20T08:55:08Z</time>
      </trkpt>
      <trkpt lat="45.90406" lon="6.13844">
        <ele>451.48</ele>
        <time>2016-12-20T08:55:09Z</time>
      </trkpt>
      <trkpt lat="45.90409" lon="6.13851">
        <ele>451.48</ele>
        <time>2016-12-20T08:55:10Z</time>
      </trkpt>
      <trkpt lat="45.90411" lon="6.1386">
        <ele>451</ele>
        <time>2016-12-20T08:55:11Z</time>
      </trkpt>
      <trkpt lat="45.90412" lon="6.13869">
        <ele>451.48</ele>
        <time>2016-12-20T08:55:12Z</time>
      </trkpt>
      <trkpt lat="45.90412" lon="6.13879">
        <ele>451</ele>
        <time>2016-12-20T08:55:13Z</time>
      </trkpt>
      <trkpt lat="45.90412" lon="6.13889">
        <ele>451</ele>
        <time>2016-12-20T08:55:14Z</time>
      </trkpt>
      <trkpt lat="45.90413" lon="6.13898">
        <ele>451</ele>
        <time>2016-12-20T08:55:15Z</time>
      </trkpt>
      <trkpt lat="45.90415" lon="6.13906">
        <ele>451</ele>
        <time>2016-12-20T08:55:16Z</time>
      </trkpt>
      <trkpt lat="45.90416" lon="6.13914">
        <ele>451</ele>
        <time>2016-12-20T08:55:17Z</time>
      </trkpt>
      <trkpt lat="45.90424" lon="6.13938">
        <ele>451</ele>
        <time>2016-12-20T08:55:20Z</time>
      </trkpt>
      <trkpt lat="45.90426" lon="6.13946">
        <ele>451.48</ele>
        <time>2016-12-20T08:55:21Z</time>
      </trkpt>
      <trkpt lat="45.90429" lon="6.13954">
        <ele>451.48</ele>
        <time>2016-12-20T08:55:22Z</time>
      </trkpt>
      <trkpt lat="45.90431" lon="6.13962">
        <ele>451.48</ele>
        <time>2016-12-20T08:55:23Z</time>
      </trkpt>
      <trkpt lat="45.90432" lon="6.1397">
        <ele>451.48</ele>
        <time>2016-12-20T08:55:24Z</time>
      </trkpt>
      <trkpt lat="45.90434" lon="6.13979">
        <ele>451</ele>
        <time>2016-12-20T08:55:25Z</time>
      </trkpt>
      <trkpt lat="45.90435" lon="6.13987">
        <ele>451</ele>
        <time>2016-12-20T08:55:26Z</time>
      </trkpt>
      <trkpt lat="45.90449" lon="6.14043">
        <ele>451</ele>
        <time>2016-12-20T08:55:33Z</time>
      </trkpt>
      <trkpt lat="45.90451" lon="6.14051">
        <ele>451</ele>
        <time>2016-12-20T08:55:34Z</time>
      </trkpt>
      <trkpt lat="45.90453" lon="6.14059">
        <ele>451.48</ele>
        <time>2016-12-20T08:55:35Z</time>
      </trkpt>
      <trkpt lat="45.90454" lon="6.14066">
        <ele>451.48</ele>
        <time>2016-12-20T08:55:36Z</time>
      </trkpt>
      <trkpt lat="45.90454" lon="6.14072">
        <ele>451.96</ele>
        <time>2016-12-20T08:55:37Z</time>
      </trkpt>
      <trkpt lat="45.90455" lon="6.14079">
        <ele>451.96</ele>
        <time>2016-12-20T08:55:38Z</time>
      </trkpt>
      <trkpt lat="45.90457" lon="6.14086">
        <ele>451.48</ele>
        <time>2016-12-20T08:55:39Z</time>
      </trkpt>
      <trkpt lat="45.90461" lon="6.1409">
        <ele>451.96</ele>
        <time>2016-12-20T08:55:40Z</time>
      </trkpt>
      <trkpt lat="45.90464" lon="6.14094">
        <ele>451.96</ele>
        <time>2016-12-20T08:55:41Z</time>
      </trkpt>
      <trkpt lat="45.90467" lon="6.14097">
        <ele>451.96</ele>
        <time>2016-12-20T08:55:42Z</time>
      </trkpt>
      <trkpt lat="45.90469" lon="6.141">
        <ele>452.44</ele>
        <time>2016-12-20T08:55:43Z</time>
      </trkpt>
      <trkpt lat="45.9047" lon="6.14104">
        <ele>452.44</ele>
        <time>2016-12-20T08:55:44Z</time>
      </trkpt>
      <trkpt lat="45.90472" lon="6.1411">
        <ele>451.96</ele>
        <time>2016-12-20T08:55:45Z</time>
      </trkpt>
      <trkpt lat="45.90493" lon="6.14194">
        <ele>451.96</ele>
        <time>2016-12-20T08:55:56Z</time>
      </trkpt>
      <trkpt lat="45.905" lon="6.14219">
        <ele>451.48</ele>
        <time>2016-12-20T08:55:59Z</time>
      </trkpt>
      <trkpt lat="45.90502" lon="6.14228">
        <ele>451.48</ele>
        <time>2016-12-20T08:56:00Z</time>
      </trkpt>
      <trkpt lat="45.90503" lon="6.14236">
        <ele>451.48</ele>
        <time>2016-12-20T08:56:01Z</time>
      </trkpt>
      <trkpt lat="45.90507" lon="6.14271">
        <ele>451.96</ele>
        <time>2016-12-20T08:56:06Z</time>
      </trkpt>
      <trkpt lat="45.90506" lon="6.1435">
        <ele>451.96</ele>
        <time>2016-12-20T08:56:19Z</time>
      </trkpt>
      <trkpt lat="45.90494" lon="6.14421">
        <ele>452.44</ele>
        <time>2016-12-20T08:56:32Z</time>
      </trkpt>
      <trkpt lat="45.90475" lon="6.1448">
        <ele>451.96</ele>
        <time>2016-12-20T08:56:44Z</time>
      </trkpt>
      <trkpt lat="45.90471" lon="6.14496">
        <ele>451.96</ele>
        <time>2016-12-20T08:56:47Z</time>
      </trkpt>
      <trkpt lat="45.90468" lon="6.14527">
        <ele>451.48</ele>
        <time>2016-12-20T08:56:52Z</time>
      </trkpt>
      <trkpt lat="45.90467" lon="6.14533">
        <ele>451.48</ele>
        <time>2016-12-20T08:56:53Z</time>
      </trkpt>
      <trkpt lat="45.9046" lon="6.14631">
        <ele>451.96</ele>
        <time>2016-12-20T08:57:09Z</time>
      </trkpt>
      <trkpt lat="45.9047" lon="6.1473">
        <ele>451.96</ele>
        <time>2016-12-20T08:57:25Z</time>
      </trkpt>
      <trkpt lat="45.90473" lon="6.14756">
        <ele>451.96</ele>
        <time>2016-12-20T08:57:29Z</time>
      </trkpt>
      <trkpt lat="45.90475" lon="6.14763">
        <ele>451.48</ele>
        <time>2016-12-20T08:57:30Z</time>
      </trkpt>
      <trkpt lat="45.90478" lon="6.14783">
        <ele>451.96</ele>
        <time>2016-12-20T08:57:33Z</time>
      </trkpt>
      <trkpt lat="45.90482" lon="6.14801">
        <ele>451.96</ele>
        <time>2016-12-20T08:57:36Z</time>
      </trkpt>
      <trkpt lat="45.90484" lon="6.14825">
        <ele>451.96</ele>
        <time>2016-12-20T08:57:40Z</time>
      </trkpt>
      <trkpt lat="45.90487" lon="6.14854">
        <ele>452.44</ele>
        <time>2016-12-20T08:57:46Z</time>
      </trkpt>
      <trkpt lat="45.90485" lon="6.14856">
        <ele>452.44</ele>
        <time>2016-12-20T08:57:47Z</time>
      </trkpt>
      <trkpt lat="45.90483" lon="6.14856">
        <ele>452.44</ele>
        <time>2016-12-20T08:57:48Z</time>
      </trkpt>
      <trkpt lat="45.90483" lon="6.14854">
        <ele>452.92</ele>
        <time>2016-12-20T08:57:49Z</time>
      </trkpt>
      <trkpt lat="45.90482" lon="6.14851">
        <ele>452.92</ele>
        <time>2016-12-20T08:57:50Z</time>
      </trkpt>
      <trkpt lat="45.90477" lon="6.14817">
        <ele>451.96</ele>
        <time>2016-12-20T08:57:58Z</time>
      </trkpt>
      <trkpt lat="45.90473" lon="6.14813">
        <ele>452.44</ele>
        <time>2016-12-20T08:57:59Z</time>
      </trkpt>
      <trkpt lat="45.90469" lon="6.14808">
        <ele>451.96</ele>
        <time>2016-12-20T08:58:00Z</time>
      </trkpt>
      <trkpt lat="45.90449" lon="6.14791">
        <ele>449.55</ele>
        <time>2016-12-20T08:58:09Z</time>
      </trkpt>
      <trkpt lat="45.90449" lon="6.14791">
        <ele>449.55</ele>
        <time>2016-12-20T08:58:10Z</time>
      </trkpt>
      <trkpt lat="45.90449" lon="6.14796">
        <ele>453.88</ele>
        <time>2016-12-20T09:01:11Z</time>
      </trkpt>
      <trkpt lat="45.9045" lon="6.14799">
        <ele>453.4</ele>
        <time>2016-12-20T09:01:12Z</time>
      </trkpt>
      <trkpt lat="45.90449" lon="6.1481">
        <ele>452.92</ele>
        <time>2016-12-20T09:01:16Z</time>
      </trkpt>
      <trkpt lat="45.90451" lon="6.14834">
        <ele>452.44</ele>
        <time>2016-12-20T09:01:30Z</time>
      </trkpt>
      <trkpt lat="45.90451" lon="6.14835">
        <ele>452.92</ele>
        <time>2016-12-20T09:01:38Z</time>
      </trkpt>
      <trkpt lat="45.90452" lon="6.14836">
        <ele>452.92</ele>
        <time>2016-12-20T09:01:40Z</time>
      </trkpt>
      <trkpt lat="45.90456" lon="6.14866">
        <ele>452.44</ele>
        <time>2016-12-20T09:01:49Z</time>
      </trkpt>
      <trkpt lat="45.90462" lon="6.14934">
        <ele>452.44</ele>
        <time>2016-12-20T09:02:03Z</time>
      </trkpt>
      <trkpt lat="45.90474" lon="6.15017">
        <ele>452.44</ele>
        <time>2016-12-20T09:02:18Z</time>
      </trkpt>
      <trkpt lat="45.90482" lon="6.15047">
        <ele>452.44</ele>
        <time>2016-12-20T09:02:24Z</time>
      </trkpt>
      <trkpt lat="45.90484" lon="6.15051">
        <ele>452.44</ele>
        <time>2016-12-20T09:02:25Z</time>
      </trkpt>
      <trkpt lat="45.90486" lon="6.15055">
        <ele>452.44</ele>
        <time>2016-12-20T09:02:26Z</time>
      </trkpt>
      <trkpt lat="45.90489" lon="6.15058">
        <ele>452.44</ele>
        <time>2016-12-20T09:02:27Z</time>
      </trkpt>
      <trkpt lat="45.90492" lon="6.15061">
        <ele>452.44</ele>
        <time>2016-12-20T09:02:28Z</time>
      </trkpt>
      <trkpt lat="45.90494" lon="6.15065">
        <ele>452.44</ele>
        <time>2016-12-20T09:02:29Z</time>
      </trkpt>
      <trkpt lat="45.90496" lon="6.15068">
        <ele>452.44</ele>
        <time>2016-12-20T09:02:30Z</time>
      </trkpt>
      <trkpt lat="45.90499" lon="6.15072">
        <ele>452.44</ele>
        <time>2016-12-20T09:02:31Z</time>
      </trkpt>
      <trkpt lat="45.90502" lon="6.15073">
        <ele>452.92</ele>
        <time>2016-12-20T09:02:32Z</time>
      </trkpt>
      <trkpt lat="45.90505" lon="6.15072">
        <ele>452.44</ele>
        <time>2016-12-20T09:02:33Z</time>
      </trkpt>
      <trkpt lat="45.90508" lon="6.15072">
        <ele>452.92</ele>
        <time>2016-12-20T09:02:34Z</time>
      </trkpt>
      <trkpt lat="45.90511" lon="6.15072">
        <ele>452.92</ele>
        <time>2016-12-20T09:02:35Z</time>
      </trkpt>
      <trkpt lat="45.90513" lon="6.15074">
        <ele>452.92</ele>
        <time>2016-12-20T09:02:36Z</time>
      </trkpt>
      <trkpt lat="45.90515" lon="6.15077">
        <ele>453.4</ele>
        <time>2016-12-20T09:02:37Z</time>
      </trkpt>
      <trkpt lat="45.90515" lon="6.15081">
        <ele>453.4</ele>
        <time>2016-12-20T09:02:38Z</time>
      </trkpt>
      <trkpt lat="45.90515" lon="6.15086">
        <ele>453.4</ele>
        <time>2016-12-20T09:02:39Z</time>
      </trkpt>
      <trkpt lat="45.90516" lon="6.1509">
        <ele>453.4</ele>
        <time>2016-12-20T09:02:40Z</time>
      </trkpt>
      <trkpt lat="45.90516" lon="6.15094">
        <ele>453.4</ele>
        <time>2016-12-20T09:02:41Z</time>
      </trkpt>
      <trkpt lat="45.90517" lon="6.15098">
        <ele>452.92</ele>
        <time>2016-12-20T09:02:42Z</time>
      </trkpt>
      <trkpt lat="45.90518" lon="6.15102">
        <ele>452.92</ele>
        <time>2016-12-20T09:02:43Z</time>
      </trkpt>
      <trkpt lat="45.90519" lon="6.15107">
        <ele>453.4</ele>
        <time>2016-12-20T09:02:44Z</time>
      </trkpt>
      <trkpt lat="45.9052" lon="6.15111">
        <ele>453.4</ele>
        <time>2016-12-20T09:02:45Z</time>
      </trkpt>
      <trkpt lat="45.90523" lon="6.15114">
        <ele>452.92</ele>
        <time>2016-12-20T09:02:46Z</time>
      </trkpt>
      <trkpt lat="45.90525" lon="6.15117">
        <ele>452.92</ele>
        <time>2016-12-20T09:02:47Z</time>
      </trkpt>
      <trkpt lat="45.90526" lon="6.1512">
        <ele>453.4</ele>
        <time>2016-12-20T09:02:48Z</time>
      </trkpt>
      <trkpt lat="45.90527" lon="6.15123">
        <ele>453.4</ele>
        <time>2016-12-20T09:02:49Z</time>
      </trkpt>
      <trkpt lat="45.90527" lon="6.15127">
        <ele>453.4</ele>
        <time>2016-12-20T09:02:50Z</time>
      </trkpt>
      <trkpt lat="45.90528" lon="6.1513">
        <ele>453.4</ele>
        <time>2016-12-20T09:02:51Z</time>
      </trkpt>
      <trkpt lat="45.90529" lon="6.15135">
        <ele>452.92</ele>
        <time>2016-12-20T09:02:52Z</time>
      </trkpt>
      <trkpt lat="45.9053" lon="6.15139">
        <ele>452.92</ele>
        <time>2016-12-20T09:02:53Z</time>
      </trkpt>
      <trkpt lat="45.9054" lon="6.15208">
        <ele>452.92</ele>
        <time>2016-12-20T09:03:06Z</time>
      </trkpt>
      <trkpt lat="45.90554" lon="6.15296">
        <ele>452.92</ele>
        <time>2016-12-20T09:03:21Z</time>
      </trkpt>
      <trkpt lat="45.90561" lon="6.15341">
        <ele>452.92</ele>
        <time>2016-12-20T09:03:30Z</time>
      </trkpt>
      <trkpt lat="45.90563" lon="6.15353">
        <ele>452.92</ele>
        <time>2016-12-20T09:03:32Z</time>
      </trkpt>
      <trkpt lat="45.90564" lon="6.15359">
        <ele>452.92</ele>
        <time>2016-12-20T09:03:33Z</time>
      </trkpt>
      <trkpt lat="45.90565" lon="6.15371">
        <ele>452.92</ele>
        <time>2016-12-20T09:03:35Z</time>
      </trkpt>
      <trkpt lat="45.90574" lon="6.15431">
        <ele>452.44</ele>
        <time>2016-12-20T09:03:46Z</time>
      </trkpt>
      <trkpt lat="45.90572" lon="6.15435">
        <ele>452.92</ele>
        <time>2016-12-20T09:03:47Z</time>
      </trkpt>
      <trkpt lat="45.90571" lon="6.15439">
        <ele>452.92</ele>
        <time>2016-12-20T09:03:48Z</time>
      </trkpt>
      <trkpt lat="45.90571" lon="6.15444">
        <ele>452.92</ele>
        <time>2016-12-20T09:03:49Z</time>
      </trkpt>
      <trkpt lat="45.90571" lon="6.15449">
        <ele>452.92</ele>
        <time>2016-12-20T09:03:50Z</time>
      </trkpt>
      <trkpt lat="45.90572" lon="6.15453">
        <ele>452.92</ele>
        <time>2016-12-20T09:03:51Z</time>
      </trkpt>
      <trkpt lat="45.90574" lon="6.15475">
        <ele>453.4</ele>
        <time>2016-12-20T09:04:00Z</time>
      </trkpt>
      <trkpt lat="45.90573" lon="6.15475">
        <ele>452.92</ele>
        <time>2016-12-20T09:04:02Z</time>
      </trkpt>
      <trkpt lat="45.90578" lon="6.15484">
        <ele>453.88</ele>
        <time>2016-12-20T09:06:45Z</time>
      </trkpt>
      <trkpt lat="45.90586" lon="6.1551">
        <ele>452.92</ele>
        <time>2016-12-20T09:06:50Z</time>
      </trkpt>
      <trkpt lat="45.90587" lon="6.15552">
        <ele>452.44</ele>
        <time>2016-12-20T09:06:58Z</time>
      </trkpt>
      <trkpt lat="45.90587" lon="6.15558">
        <ele>452.44</ele>
        <time>2016-12-20T09:06:59Z</time>
      </trkpt>
      <trkpt lat="45.90588" lon="6.1557">
        <ele>451.96</ele>
        <time>2016-12-20T09:07:01Z</time>
      </trkpt>
      <trkpt lat="45.90589" lon="6.15576">
        <ele>451.96</ele>
        <time>2016-12-20T09:07:02Z</time>
      </trkpt>
      <trkpt lat="45.90591" lon="6.15583">
        <ele>451.96</ele>
        <time>2016-12-20T09:07:03Z</time>
      </trkpt>
      <trkpt lat="45.90592" lon="6.15589">
        <ele>451.48</ele>
        <time>2016-12-20T09:07:04Z</time>
      </trkpt>
      <trkpt lat="45.90593" lon="6.15595">
        <ele>451.96</ele>
        <time>2016-12-20T09:07:05Z</time>
      </trkpt>
      <trkpt lat="45.90594" lon="6.15602">
        <ele>451.96</ele>
        <time>2016-12-20T09:07:06Z</time>
      </trkpt>
      <trkpt lat="45.90594" lon="6.15636">
        <ele>451</ele>
        <time>2016-12-20T09:07:11Z</time>
      </trkpt>
      <trkpt lat="45.90592" lon="6.1565">
        <ele>450.52</ele>
        <time>2016-12-20T09:07:13Z</time>
      </trkpt>
      <trkpt lat="45.90568" lon="6.1576">
        <ele>450.52</ele>
        <time>2016-12-20T09:07:28Z</time>
      </trkpt>
      <trkpt lat="45.90534" lon="6.1584">
        <ele>450.52</ele>
        <time>2016-12-20T09:07:41Z</time>
      </trkpt>
      <trkpt lat="45.90491" lon="6.15904">
        <ele>449.55</ele>
        <time>2016-12-20T09:07:54Z</time>
      </trkpt>
      <trkpt lat="45.90472" lon="6.15924">
        <ele>449.55</ele>
        <time>2016-12-20T09:07:59Z</time>
      </trkpt>
      <trkpt lat="45.90469" lon="6.15927">
        <ele>449.55</ele>
        <time>2016-12-20T09:08:00Z</time>
      </trkpt>
      <trkpt lat="45.90462" lon="6.15934">
        <ele>450.03</ele>
        <time>2016-12-20T09:08:02Z</time>
      </trkpt>
      <trkpt lat="45.90406" lon="6.15969">
        <ele>450.52</ele>
        <time>2016-12-20T09:08:16Z</time>
      </trkpt>
      <trkpt lat="45.90341" lon="6.15997">
        <ele>449.55</ele>
        <time>2016-12-20T09:08:30Z</time>
      </trkpt>
      <trkpt lat="45.90336" lon="6.15998">
        <ele>449.55</ele>
        <time>2016-12-20T09:08:31Z</time>
      </trkpt>
      <trkpt lat="45.90331" lon="6.16">
        <ele>449.55</ele>
        <time>2016-12-20T09:08:32Z</time>
      </trkpt>
      <trkpt lat="45.90327" lon="6.16002">
        <ele>449.55</ele>
        <time>2016-12-20T09:08:33Z</time>
      </trkpt>
      <trkpt lat="45.90322" lon="6.16002">
        <ele>449.55</ele>
        <time>2016-12-20T09:08:34Z</time>
      </trkpt>
      <trkpt lat="45.90318" lon="6.16004">
        <ele>450.03</ele>
        <time>2016-12-20T09:08:35Z</time>
      </trkpt>
      <trkpt lat="45.90263" lon="6.16027">
        <ele>450.03</ele>
        <time>2016-12-20T09:08:47Z</time>
      </trkpt>
      <trkpt lat="45.90244" lon="6.16034">
        <ele>450.03</ele>
        <time>2016-12-20T09:08:51Z</time>
      </trkpt>
      <trkpt lat="45.90235" lon="6.16038">
        <ele>450.03</ele>
        <time>2016-12-20T09:08:53Z</time>
      </trkpt>
      <trkpt lat="45.90173" lon="6.16071">
        <ele>449.55</ele>
        <time>2016-12-20T09:09:06Z</time>
      </trkpt>
      <trkpt lat="45.90154" lon="6.16084">
        <ele>450.03</ele>
        <time>2016-12-20T09:09:10Z</time>
      </trkpt>
      <trkpt lat="45.9015" lon="6.16086">
        <ele>449.55</ele>
        <time>2016-12-20T09:09:11Z</time>
      </trkpt>
      <trkpt lat="45.90099" lon="6.16116">
        <ele>449.55</ele>
        <time>2016-12-20T09:09:21Z</time>
      </trkpt>
      <trkpt lat="45.90052" lon="6.16132">
        <ele>450.52</ele>
        <time>2016-12-20T09:09:30Z</time>
      </trkpt>
      <trkpt lat="45.90047" lon="6.16134">
        <ele>450.03</ele>
        <time>2016-12-20T09:09:31Z</time>
      </trkpt>
      <trkpt lat="45.90027" lon="6.16141">
        <ele>450.52</ele>
        <time>2016-12-20T09:09:35Z</time>
      </trkpt>
      <trkpt lat="45.90018" lon="6.16144">
        <ele>451</ele>
        <time>2016-12-20T09:09:37Z</time>
      </trkpt>
      <trkpt lat="45.90013" lon="6.16146">
        <ele>451</ele>
        <time>2016-12-20T09:09:38Z</time>
      </trkpt>
      <trkpt lat="45.90004" lon="6.16149">
        <ele>451.48</ele>
        <time>2016-12-20T09:09:40Z</time>
      </trkpt>
      <trkpt lat="45.89999" lon="6.16151">
        <ele>451.48</ele>
        <time>2016-12-20T09:09:41Z</time>
      </trkpt>
      <trkpt lat="45.89947" lon="6.16174">
        <ele>451.48</ele>
        <time>2016-12-20T09:09:52Z</time>
      </trkpt>
      <trkpt lat="45.89942" lon="6.16177">
        <ele>451.96</ele>
        <time>2016-12-20T09:09:53Z</time>
      </trkpt>
      <trkpt lat="45.89937" lon="6.1618">
        <ele>451.48</ele>
        <time>2016-12-20T09:09:54Z</time>
      </trkpt>
      <trkpt lat="45.89932" lon="6.16184">
        <ele>451.48</ele>
        <time>2016-12-20T09:09:55Z</time>
      </trkpt>
      <trkpt lat="45.89927" lon="6.16187">
        <ele>451.96</ele>
        <time>2016-12-20T09:09:56Z</time>
      </trkpt>
      <trkpt lat="45.89922" lon="6.1619">
        <ele>451.96</ele>
        <time>2016-12-20T09:09:57Z</time>
      </trkpt>
      <trkpt lat="45.89889" lon="6.16214">
        <ele>451.96</ele>
        <time>2016-12-20T09:10:04Z</time>
      </trkpt>
      <trkpt lat="45.89848" lon="6.16252">
        <ele>451.96</ele>
        <time>2016-12-20T09:10:13Z</time>
      </trkpt>
      <trkpt lat="45.89845" lon="6.16257">
        <ele>451.96</ele>
        <time>2016-12-20T09:10:14Z</time>
      </trkpt>
      <trkpt lat="45.89841" lon="6.16262">
        <ele>451.96</ele>
        <time>2016-12-20T09:10:15Z</time>
      </trkpt>
      <trkpt lat="45.8981" lon="6.16303">
        <ele>451.96</ele>
        <time>2016-12-20T09:10:23Z</time>
      </trkpt>
      <trkpt lat="45.89806" lon="6.16309">
        <ele>451.96</ele>
        <time>2016-12-20T09:10:24Z</time>
      </trkpt>
      <trkpt lat="45.89801" lon="6.16313">
        <ele>451.96</ele>
        <time>2016-12-20T09:10:25Z</time>
      </trkpt>
      <trkpt lat="45.89796" lon="6.16315">
        <ele>451.96</ele>
        <time>2016-12-20T09:10:26Z</time>
      </trkpt>
      <trkpt lat="45.89791" lon="6.16318">
        <ele>451.96</ele>
        <time>2016-12-20T09:10:27Z</time>
      </trkpt>
      <trkpt lat="45.89786" lon="6.16322">
        <ele>451.96</ele>
        <time>2016-12-20T09:10:28Z</time>
      </trkpt>
      <trkpt lat="45.89782" lon="6.16327">
        <ele>451.96</ele>
        <time>2016-12-20T09:10:29Z</time>
      </trkpt>
      <trkpt lat="45.89779" lon="6.16332">
        <ele>451.96</ele>
        <time>2016-12-20T09:10:30Z</time>
      </trkpt>
      <trkpt lat="45.89776" lon="6.16337">
        <ele>452.44</ele>
        <time>2016-12-20T09:10:31Z</time>
      </trkpt>
      <trkpt lat="45.89774" lon="6.16343">
        <ele>452.44</ele>
        <time>2016-12-20T09:10:32Z</time>
      </trkpt>
      <trkpt lat="45.89772" lon="6.16349">
        <ele>452.92</ele>
        <time>2016-12-20T09:10:33Z</time>
      </trkpt>
      <trkpt lat="45.8977" lon="6.16355">
        <ele>452.92</ele>
        <time>2016-12-20T09:10:34Z</time>
      </trkpt>
      <trkpt lat="45.89768" lon="6.16361">
        <ele>453.4</ele>
        <time>2016-12-20T09:10:35Z</time>
      </trkpt>
      <trkpt lat="45.89765" lon="6.16365">
        <ele>453.88</ele>
        <time>2016-12-20T09:10:36Z</time>
      </trkpt>
      <trkpt lat="45.89761" lon="6.16369">
        <ele>453.88</ele>
        <time>2016-12-20T09:10:37Z</time>
      </trkpt>
      <trkpt lat="45.89758" lon="6.16373">
        <ele>453.88</ele>
        <time>2016-12-20T09:10:38Z</time>
      </trkpt>
      <trkpt lat="45.89755" lon="6.16378">
        <ele>453.88</ele>
        <time>2016-12-20T09:10:39Z</time>
      </trkpt>
      <trkpt lat="45.89713" lon="6.16427">
        <ele>456.76</ele>
        <time>2016-12-20T09:10:52Z</time>
      </trkpt>
      <trkpt lat="45.89678" lon="6.1647">
        <ele>458.21</ele>
        <time>2016-12-20T09:11:04Z</time>
      </trkpt>
      <trkpt lat="45.89676" lon="6.16474">
        <ele>458.69</ele>
        <time>2016-12-20T09:11:05Z</time>
      </trkpt>
      <trkpt lat="45.89635" lon="6.16522">
        <ele>461.09</ele>
        <time>2016-12-20T09:11:19Z</time>
      </trkpt>
      <trkpt lat="45.89607" lon="6.16559">
        <ele>462.53</ele>
        <time>2016-12-20T09:11:30Z</time>
      </trkpt>
      <trkpt lat="45.89601" lon="6.16566">
        <ele>462.53</ele>
        <time>2016-12-20T09:11:32Z</time>
      </trkpt>
      <trkpt lat="45.89598" lon="6.16569">
        <ele>462.53</ele>
        <time>2016-12-20T09:11:33Z</time>
      </trkpt>
      <trkpt lat="45.89557" lon="6.1662">
        <ele>465.42</ele>
        <time>2016-12-20T09:11:50Z</time>
      </trkpt>
      <trkpt lat="45.89524" lon="6.16651">
        <ele>466.38</ele>
        <time>2016-12-20T09:12:02Z</time>
      </trkpt>
      <trkpt lat="45.89502" lon="6.1668">
        <ele>465.42</ele>
        <time>2016-12-20T09:12:13Z</time>
      </trkpt>
      <trkpt lat="45.89484" lon="6.167">
        <ele>463.49</ele>
        <time>2016-12-20T09:12:18Z</time>
      </trkpt>
      <trkpt lat="45.89465" lon="6.16725">
        <ele>460.61</ele>
        <time>2016-12-20T09:12:22Z</time>
      </trkpt>
      <trkpt lat="45.89411" lon="6.16786">
        <ele>460.13</ele>
        <time>2016-12-20T09:12:33Z</time>
      </trkpt>
      <trkpt lat="45.89407" lon="6.1679">
        <ele>460.61</ele>
        <time>2016-12-20T09:12:34Z</time>
      </trkpt>
      <trkpt lat="45.894" lon="6.16798">
        <ele>461.09</ele>
        <time>2016-12-20T09:12:36Z</time>
      </trkpt>
      <trkpt lat="45.89396" lon="6.16801">
        <ele>462.05</ele>
        <time>2016-12-20T09:12:37Z</time>
      </trkpt>
      <trkpt lat="45.89393" lon="6.16803">
        <ele>462.05</ele>
        <time>2016-12-20T09:12:38Z</time>
      </trkpt>
      <trkpt lat="45.89389" lon="6.16807">
        <ele>462.53</ele>
        <time>2016-12-20T09:12:39Z</time>
      </trkpt>
      <trkpt lat="45.89386" lon="6.1681">
        <ele>463.01</ele>
        <time>2016-12-20T09:12:40Z</time>
      </trkpt>
      <trkpt lat="45.89383" lon="6.16814">
        <ele>463.49</ele>
        <time>2016-12-20T09:12:41Z</time>
      </trkpt>
      <trkpt lat="45.8937" lon="6.16824">
        <ele>464.93</ele>
        <time>2016-12-20T09:12:45Z</time>
      </trkpt>
      <trkpt lat="45.89355" lon="6.16834">
        <ele>466.86</ele>
        <time>2016-12-20T09:12:50Z</time>
      </trkpt>
      <trkpt lat="45.8932" lon="6.16851">
        <ele>468.78</ele>
        <time>2016-12-20T09:13:02Z</time>
      </trkpt>
      <trkpt lat="45.89283" lon="6.16864">
        <ele>471.18</ele>
        <time>2016-12-20T09:13:13Z</time>
      </trkpt>
      <trkpt lat="45.89271" lon="6.1687">
        <ele>471.66</ele>
        <time>2016-12-20T09:13:20Z</time>
      </trkpt>
      <trkpt lat="45.89269" lon="6.1687">
        <ele>471.18</ele>
        <time>2016-12-20T09:13:21Z</time>
      </trkpt>
      <trkpt lat="45.89255" lon="6.16877">
        <ele>471.18</ele>
        <time>2016-12-20T09:13:30Z</time>
      </trkpt>
      <trkpt lat="45.89255" lon="6.16877">
        <ele>466.86</ele>
        <time>2016-12-20T09:13:36Z</time>
      </trkpt>
      <trkpt lat="45.89255" lon="6.16877">
        <ele>471.66</ele>
        <time>2016-12-20T09:13:37Z</time>
      </trkpt>
      <trkpt lat="45.89255" lon="6.16878">
        <ele>471.18</ele>
        <time>2016-12-20T09:13:38Z</time>
      </trkpt>
      <trkpt lat="45.89246" lon="6.16883">
        <ele>471.18</ele>
        <time>2016-12-20T09:13:43Z</time>
      </trkpt>
      <trkpt lat="45.89244" lon="6.16884">
        <ele>470.7</ele>
        <time>2016-12-20T09:13:44Z</time>
      </trkpt>
      <trkpt lat="45.8921" lon="6.1691">
        <ele>470.22</ele>
        <time>2016-12-20T09:13:59Z</time>
      </trkpt>
      <trkpt lat="45.8919" lon="6.16916">
        <ele>469.26</ele>
        <time>2016-12-20T09:14:04Z</time>
      </trkpt>
      <trkpt lat="45.89175" lon="6.16917">
        <ele>468.3</ele>
        <time>2016-12-20T09:14:07Z</time>
      </trkpt>
      <trkpt lat="45.89162" lon="6.16918">
        <ele>466.86</ele>
        <time>2016-12-20T09:14:09Z</time>
      </trkpt>
      <trkpt lat="45.89155" lon="6.1692">
        <ele>465.9</ele>
        <time>2016-12-20T09:14:10Z</time>
      </trkpt>
      <trkpt lat="45.89148" lon="6.16923">
        <ele>464.93</ele>
        <time>2016-12-20T09:14:11Z</time>
      </trkpt>
      <trkpt lat="45.89141" lon="6.16927">
        <ele>463.97</ele>
        <time>2016-12-20T09:14:12Z</time>
      </trkpt>
      <trkpt lat="45.89134" lon="6.16932">
        <ele>463.49</ele>
        <time>2016-12-20T09:14:13Z</time>
      </trkpt>
      <trkpt lat="45.89127" lon="6.16938">
        <ele>463.01</ele>
        <time>2016-12-20T09:14:14Z</time>
      </trkpt>
      <trkpt lat="45.89121" lon="6.16946">
        <ele>462.05</ele>
        <time>2016-12-20T09:14:15Z</time>
      </trkpt>
      <trkpt lat="45.89083" lon="6.16985">
        <ele>458.69</ele>
        <time>2016-12-20T09:14:21Z</time>
      </trkpt>
      <trkpt lat="45.89078" lon="6.16992">
        <ele>458.69</ele>
        <time>2016-12-20T09:14:22Z</time>
      </trkpt>
      <trkpt lat="45.89073" lon="6.17">
        <ele>458.21</ele>
        <time>2016-12-20T09:14:23Z</time>
      </trkpt>
      <trkpt lat="45.89045" lon="6.17052">
        <ele>454.84</ele>
        <time>2016-12-20T09:14:29Z</time>
      </trkpt>
      <trkpt lat="45.89004" lon="6.17157">
        <ele>454.84</ele>
        <time>2016-12-20T09:14:41Z</time>
      </trkpt>
      <trkpt lat="45.88997" lon="6.17171">
        <ele>455.32</ele>
        <time>2016-12-20T09:14:43Z</time>
      </trkpt>
      <trkpt lat="45.88993" lon="6.17177">
        <ele>455.32</ele>
        <time>2016-12-20T09:14:44Z</time>
      </trkpt>
      <trkpt lat="45.88981" lon="6.17191">
        <ele>456.28</ele>
        <time>2016-12-20T09:14:47Z</time>
      </trkpt>
      <trkpt lat="45.88977" lon="6.17195">
        <ele>456.76</ele>
        <time>2016-12-20T09:14:48Z</time>
      </trkpt>
      <trkpt lat="45.88974" lon="6.17199">
        <ele>457.24</ele>
        <time>2016-12-20T09:14:49Z</time>
      </trkpt>
      <trkpt lat="45.8897" lon="6.17202">
        <ele>457.24</ele>
        <time>2016-12-20T09:14:50Z</time>
      </trkpt>
      <trkpt lat="45.88966" lon="6.17204">
        <ele>458.21</ele>
        <time>2016-12-20T09:14:51Z</time>
      </trkpt>
      <trkpt lat="45.88962" lon="6.17207">
        <ele>458.21</ele>
        <time>2016-12-20T09:14:52Z</time>
      </trkpt>
      <trkpt lat="45.88924" lon="6.17219">
        <ele>458.69</ele>
        <time>2016-12-20T09:15:02Z</time>
      </trkpt>
      <trkpt lat="45.88914" lon="6.17221">
        <ele>457.72</ele>
        <time>2016-12-20T09:15:04Z</time>
      </trkpt>
      <trkpt lat="45.88909" lon="6.17225">
        <ele>457.72</ele>
        <time>2016-12-20T09:15:05Z</time>
      </trkpt>
      <trkpt lat="45.88905" lon="6.17229">
        <ele>457.72</ele>
        <time>2016-12-20T09:15:06Z</time>
      </trkpt>
      <trkpt lat="45.88902" lon="6.17234">
        <ele>457.24</ele>
        <time>2016-12-20T09:15:07Z</time>
      </trkpt>
      <trkpt lat="45.88898" lon="6.1724">
        <ele>457.24</ele>
        <time>2016-12-20T09:15:08Z</time>
      </trkpt>
      <trkpt lat="45.88891" lon="6.17255">
        <ele>457.24</ele>
        <time>2016-12-20T09:15:11Z</time>
      </trkpt>
      <trkpt lat="45.88887" lon="6.1726">
        <ele>457.24</ele>
        <time>2016-12-20T09:15:12Z</time>
      </trkpt>
      <trkpt lat="45.88884" lon="6.17264">
        <ele>457.24</ele>
        <time>2016-12-20T09:15:13Z</time>
      </trkpt>
      <trkpt lat="45.88863" lon="6.17283">
        <ele>457.72</ele>
        <time>2016-12-20T09:15:18Z</time>
      </trkpt>
      <trkpt lat="45.88824" lon="6.17292">
        <ele>459.65</ele>
        <time>2016-12-20T09:15:29Z</time>
      </trkpt>
      <trkpt lat="45.8879" lon="6.17305">
        <ele>461.09</ele>
        <time>2016-12-20T09:15:39Z</time>
      </trkpt>
      <trkpt lat="45.88758" lon="6.17323">
        <ele>463.49</ele>
        <time>2016-12-20T09:15:50Z</time>
      </trkpt>
      <trkpt lat="45.88718" lon="6.17349">
        <ele>464.93</ele>
        <time>2016-12-20T09:16:03Z</time>
      </trkpt>
      <trkpt lat="45.88694" lon="6.17367">
        <ele>469.74</ele>
        <time>2016-12-20T09:16:12Z</time>
      </trkpt>
      <trkpt lat="45.88692" lon="6.17369">
        <ele>463.97</ele>
        <time>2016-12-20T09:16:13Z</time>
      </trkpt>
      <trkpt lat="45.8869" lon="6.17372">
        <ele>469.26</ele>
        <time>2016-12-20T09:16:14Z</time>
      </trkpt>
      <trkpt lat="45.88663" lon="6.17399">
        <ele>469.74</ele>
        <time>2016-12-20T09:16:25Z</time>
      </trkpt>
      <trkpt lat="45.88644" lon="6.17412">
        <ele>469.26</ele>
        <time>2016-12-20T09:16:35Z</time>
      </trkpt>
      <trkpt lat="45.8863" lon="6.17418">
        <ele>468.78</ele>
        <time>2016-12-20T09:16:39Z</time>
      </trkpt>
      <trkpt lat="45.88626" lon="6.17419">
        <ele>468.78</ele>
        <time>2016-12-20T09:16:40Z</time>
      </trkpt>
      <trkpt lat="45.88622" lon="6.1742">
        <ele>468.78</ele>
        <time>2016-12-20T09:16:41Z</time>
      </trkpt>
      <trkpt lat="45.88618" lon="6.17422">
        <ele>468.78</ele>
        <time>2016-12-20T09:16:42Z</time>
      </trkpt>
      <trkpt lat="45.88614" lon="6.17425">
        <ele>468.78</ele>
        <time>2016-12-20T09:16:43Z</time>
      </trkpt>
      <trkpt lat="45.8861" lon="6.17427">
        <ele>468.3</ele>
        <time>2016-12-20T09:16:44Z</time>
      </trkpt>
      <trkpt lat="45.88606" lon="6.17429">
        <ele>468.78</ele>
        <time>2016-12-20T09:16:45Z</time>
      </trkpt>
      <trkpt lat="45.88602" lon="6.1743">
        <ele>468.3</ele>
        <time>2016-12-20T09:16:46Z</time>
      </trkpt>
      <trkpt lat="45.88598" lon="6.1743">
        <ele>468.78</ele>
        <time>2016-12-20T09:16:47Z</time>
      </trkpt>
      <trkpt lat="45.88594" lon="6.17429">
        <ele>468.3</ele>
        <time>2016-12-20T09:16:48Z</time>
      </trkpt>
      <trkpt lat="45.88589" lon="6.17427">
        <ele>467.82</ele>
        <time>2016-12-20T09:16:49Z</time>
      </trkpt>
      <trkpt lat="45.88584" lon="6.17426">
        <ele>467.82</ele>
        <time>2016-12-20T09:16:50Z</time>
      </trkpt>
      <trkpt lat="45.88578" lon="6.17427">
        <ele>467.34</ele>
        <time>2016-12-20T09:16:51Z</time>
      </trkpt>
      <trkpt lat="45.88573" lon="6.17429">
        <ele>466.86</ele>
        <time>2016-12-20T09:16:52Z</time>
      </trkpt>
      <trkpt lat="45.88567" lon="6.17432">
        <ele>465.9</ele>
        <time>2016-12-20T09:16:53Z</time>
      </trkpt>
      <trkpt lat="45.88562" lon="6.17436">
        <ele>465.42</ele>
        <time>2016-12-20T09:16:54Z</time>
      </trkpt>
      <trkpt lat="45.88557" lon="6.17439">
        <ele>465.42</ele>
        <time>2016-12-20T09:16:55Z</time>
      </trkpt>
      <trkpt lat="45.88551" lon="6.17442">
        <ele>464.93</ele>
        <time>2016-12-20T09:16:56Z</time>
      </trkpt>
      <trkpt lat="45.88539" lon="6.17449">
        <ele>463.97</ele>
        <time>2016-12-20T09:16:58Z</time>
      </trkpt>
      <trkpt lat="45.88533" lon="6.17452">
        <ele>463.49</ele>
        <time>2016-12-20T09:16:59Z</time>
      </trkpt>
      <trkpt lat="45.88518" lon="6.17454">
        <ele>462.53</ele>
        <time>2016-12-20T09:17:01Z</time>
      </trkpt>
      <trkpt lat="45.88496" lon="6.17458">
        <ele>461.09</ele>
        <time>2016-12-20T09:17:04Z</time>
      </trkpt>
      <trkpt lat="45.88441" lon="6.17472">
        <ele>457.72</ele>
        <time>2016-12-20T09:17:11Z</time>
      </trkpt>
      <trkpt lat="45.88433" lon="6.17473">
        <ele>456.76</ele>
        <time>2016-12-20T09:17:12Z</time>
      </trkpt>
      <trkpt lat="45.88426" lon="6.17475">
        <ele>456.76</ele>
        <time>2016-12-20T09:17:13Z</time>
      </trkpt>
      <trkpt lat="45.88388" lon="6.17486">
        <ele>455.32</ele>
        <time>2016-12-20T09:17:18Z</time>
      </trkpt>
      <trkpt lat="45.88381" lon="6.1749">
        <ele>455.32</ele>
        <time>2016-12-20T09:17:19Z</time>
      </trkpt>
      <trkpt lat="45.88308" lon="6.17511">
        <ele>458.21</ele>
        <time>2016-12-20T09:17:31Z</time>
      </trkpt>
      <trkpt lat="45.88233" lon="6.17526">
        <ele>456.76</ele>
        <time>2016-12-20T09:17:45Z</time>
      </trkpt>
      <trkpt lat="45.88227" lon="6.17524">
        <ele>456.28</ele>
        <time>2016-12-20T09:17:46Z</time>
      </trkpt>
      <trkpt lat="45.88214" lon="6.1752">
        <ele>454.84</ele>
        <time>2016-12-20T09:17:48Z</time>
      </trkpt>
      <trkpt lat="45.88206" lon="6.1752">
        <ele>454.36</ele>
        <time>2016-12-20T09:17:49Z</time>
      </trkpt>
      <trkpt lat="45.882" lon="6.17523">
        <ele>453.88</ele>
        <time>2016-12-20T09:17:50Z</time>
      </trkpt>
      <trkpt lat="45.88193" lon="6.17527">
        <ele>453.88</ele>
        <time>2016-12-20T09:17:51Z</time>
      </trkpt>
      <trkpt lat="45.88187" lon="6.17532">
        <ele>453.88</ele>
        <time>2016-12-20T09:17:52Z</time>
      </trkpt>
      <trkpt lat="45.88181" lon="6.17535">
        <ele>453.88</ele>
        <time>2016-12-20T09:17:53Z</time>
      </trkpt>
      <trkpt lat="45.88175" lon="6.17539">
        <ele>453.88</ele>
        <time>2016-12-20T09:17:54Z</time>
      </trkpt>
      <trkpt lat="45.88169" lon="6.17543">
        <ele>453.88</ele>
        <time>2016-12-20T09:17:55Z</time>
      </trkpt>
      <trkpt lat="45.88095" lon="6.17578">
        <ele>455.32</ele>
        <time>2016-12-20T09:18:08Z</time>
      </trkpt>
      <trkpt lat="45.88014" lon="6.17603">
        <ele>457.72</ele>
        <time>2016-12-20T09:18:25Z</time>
      </trkpt>
      <trkpt lat="45.87996" lon="6.17609">
        <ele>458.21</ele>
        <time>2016-12-20T09:18:29Z</time>
      </trkpt>
      <trkpt lat="45.87969" lon="6.17617">
        <ele>458.69</ele>
        <time>2016-12-20T09:18:35Z</time>
      </trkpt>
      <trkpt lat="45.87926" lon="6.17635">
        <ele>461.09</ele>
        <time>2016-12-20T09:18:45Z</time>
      </trkpt>
      <trkpt lat="45.87922" lon="6.17638">
        <ele>461.09</ele>
        <time>2016-12-20T09:18:46Z</time>
      </trkpt>
      <trkpt lat="45.87919" lon="6.17641">
        <ele>461.09</ele>
        <time>2016-12-20T09:18:47Z</time>
      </trkpt>
      <trkpt lat="45.87896" lon="6.17665">
        <ele>462.05</ele>
        <time>2016-12-20T09:18:54Z</time>
      </trkpt>
      <trkpt lat="45.87893" lon="6.1767">
        <ele>462.05</ele>
        <time>2016-12-20T09:18:55Z</time>
      </trkpt>
      <trkpt lat="45.87874" lon="6.17717">
        <ele>464.93</ele>
        <time>2016-12-20T09:19:06Z</time>
      </trkpt>
      <trkpt lat="45.87871" lon="6.17731">
        <ele>465.42</ele>
        <time>2016-12-20T09:19:10Z</time>
      </trkpt>
      <trkpt lat="45.87869" lon="6.17733">
        <ele>465.42</ele>
        <time>2016-12-20T09:19:11Z</time>
      </trkpt>
      <trkpt lat="45.87851" lon="6.1776">
        <ele>466.86</ele>
        <time>2016-12-20T09:19:22Z</time>
      </trkpt>
      <trkpt lat="45.87829" lon="6.17795">
        <ele>467.82</ele>
        <time>2016-12-20T09:19:34Z</time>
      </trkpt>
      <trkpt lat="45.87815" lon="6.17816">
        <ele>468.78</ele>
        <time>2016-12-20T09:19:42Z</time>
      </trkpt>
      <trkpt lat="45.87814" lon="6.17819">
        <ele>468.78</ele>
        <time>2016-12-20T09:19:43Z</time>
      </trkpt>
      <trkpt lat="45.87813" lon="6.17821">
        <ele>468.78</ele>
        <time>2016-12-20T09:19:44Z</time>
      </trkpt>
      <trkpt lat="45.87811" lon="6.17823">
        <ele>469.26</ele>
        <time>2016-12-20T09:19:45Z</time>
      </trkpt>
      <trkpt lat="45.87808" lon="6.17826">
        <ele>469.26</ele>
        <time>2016-12-20T09:19:46Z</time>
      </trkpt>
      <trkpt lat="45.87776" lon="6.17861">
        <ele>470.22</ele>
        <time>2016-12-20T09:19:59Z</time>
      </trkpt>
      <trkpt lat="45.87747" lon="6.17898">
        <ele>473.11</ele>
        <time>2016-12-20T09:20:12Z</time>
      </trkpt>
      <trkpt lat="45.87741" lon="6.17905">
        <ele>473.11</ele>
        <time>2016-12-20T09:20:15Z</time>
      </trkpt>
      <trkpt lat="45.87708" lon="6.17913">
        <ele>472.63</ele>
        <time>2016-12-20T09:20:27Z</time>
      </trkpt>
      <trkpt lat="45.87677" lon="6.17913">
        <ele>472.14</ele>
        <time>2016-12-20T09:20:38Z</time>
      </trkpt>
      <trkpt lat="45.87624" lon="6.17926">
        <ele>472.63</ele>
        <time>2016-12-20T09:20:52Z</time>
      </trkpt>
      <trkpt lat="45.87567" lon="6.17951">
        <ele>473.11</ele>
        <time>2016-12-20T09:21:06Z</time>
      </trkpt>
      <trkpt lat="45.87563" lon="6.17954">
        <ele>472.63</ele>
        <time>2016-12-20T09:21:07Z</time>
      </trkpt>
      <trkpt lat="45.87559" lon="6.17957">
        <ele>472.63</ele>
        <time>2016-12-20T09:21:08Z</time>
      </trkpt>
      <trkpt lat="45.87555" lon="6.1796">
        <ele>472.63</ele>
        <time>2016-12-20T09:21:09Z</time>
      </trkpt>
      <trkpt lat="45.87552" lon="6.17963">
        <ele>473.11</ele>
        <time>2016-12-20T09:21:10Z</time>
      </trkpt>
      <trkpt lat="45.87548" lon="6.17965">
        <ele>472.63</ele>
        <time>2016-12-20T09:21:11Z</time>
      </trkpt>
      <trkpt lat="45.87544" lon="6.17968">
        <ele>473.11</ele>
        <time>2016-12-20T09:21:12Z</time>
      </trkpt>
      <trkpt lat="45.8752" lon="6.17987">
        <ele>473.11</ele>
        <time>2016-12-20T09:21:19Z</time>
      </trkpt>
      <trkpt lat="45.87516" lon="6.1799">
        <ele>473.11</ele>
        <time>2016-12-20T09:21:20Z</time>
      </trkpt>
      <trkpt lat="45.87513" lon="6.17993">
        <ele>473.11</ele>
        <time>2016-12-20T09:21:21Z</time>
      </trkpt>
      <trkpt lat="45.8751" lon="6.17995">
        <ele>473.59</ele>
        <time>2016-12-20T09:21:22Z</time>
      </trkpt>
      <trkpt lat="45.87507" lon="6.17997">
        <ele>473.59</ele>
        <time>2016-12-20T09:21:23Z</time>
      </trkpt>
      <trkpt lat="45.87486" lon="6.18012">
        <ele>473.11</ele>
        <time>2016-12-20T09:21:29Z</time>
      </trkpt>
      <trkpt lat="45.87457" lon="6.18032">
        <ele>472.63</ele>
        <time>2016-12-20T09:21:36Z</time>
      </trkpt>
      <trkpt lat="45.87449" lon="6.18039">
        <ele>472.63</ele>
        <time>2016-12-20T09:21:38Z</time>
      </trkpt>
      <trkpt lat="45.87445" lon="6.18043">
        <ele>472.63</ele>
        <time>2016-12-20T09:21:39Z</time>
      </trkpt>
      <trkpt lat="45.87441" lon="6.18046">
        <ele>472.63</ele>
        <time>2016-12-20T09:21:40Z</time>
      </trkpt>
      <trkpt lat="45.87438" lon="6.18049">
        <ele>472.63</ele>
        <time>2016-12-20T09:21:41Z</time>
      </trkpt>
      <trkpt lat="45.87434" lon="6.18053">
        <ele>472.63</ele>
        <time>2016-12-20T09:21:42Z</time>
      </trkpt>
      <trkpt lat="45.8743" lon="6.18056">
        <ele>472.63</ele>
        <time>2016-12-20T09:21:43Z</time>
      </trkpt>
      <trkpt lat="45.87425" lon="6.18059">
        <ele>472.14</ele>
        <time>2016-12-20T09:21:44Z</time>
      </trkpt>
      <trkpt lat="45.87413" lon="6.18069">
        <ele>472.14</ele>
        <time>2016-12-20T09:21:47Z</time>
      </trkpt>
      <trkpt lat="45.87409" lon="6.18071">
        <ele>472.14</ele>
        <time>2016-12-20T09:21:48Z</time>
      </trkpt>
      <trkpt lat="45.87404" lon="6.18073">
        <ele>472.63</ele>
        <time>2016-12-20T09:21:49Z</time>
      </trkpt>
      <trkpt lat="45.874" lon="6.18076">
        <ele>472.14</ele>
        <time>2016-12-20T09:21:50Z</time>
      </trkpt>
      <trkpt lat="45.87396" lon="6.18079">
        <ele>472.14</ele>
        <time>2016-12-20T09:21:51Z</time>
      </trkpt>
      <trkpt lat="45.87392" lon="6.18082">
        <ele>472.14</ele>
        <time>2016-12-20T09:21:52Z</time>
      </trkpt>
      <trkpt lat="45.87388" lon="6.18085">
        <ele>472.14</ele>
        <time>2016-12-20T09:21:53Z</time>
      </trkpt>
      <trkpt lat="45.87384" lon="6.18088">
        <ele>472.14</ele>
        <time>2016-12-20T09:21:54Z</time>
      </trkpt>
      <trkpt lat="45.8738" lon="6.18092">
        <ele>472.14</ele>
        <time>2016-12-20T09:21:55Z</time>
      </trkpt>
      <trkpt lat="45.87376" lon="6.18095">
        <ele>472.14</ele>
        <time>2016-12-20T09:21:56Z</time>
      </trkpt>
      <trkpt lat="45.87372" lon="6.18098">
        <ele>472.14</ele>
        <time>2016-12-20T09:21:57Z</time>
      </trkpt>
      <trkpt lat="45.87368" lon="6.18101">
        <ele>471.66</ele>
        <time>2016-12-20T09:21:58Z</time>
      </trkpt>
      <trkpt lat="45.87355" lon="6.1811">
        <ele>471.66</ele>
        <time>2016-12-20T09:22:01Z</time>
      </trkpt>
      <trkpt lat="45.87352" lon="6.18114">
        <ele>471.66</ele>
        <time>2016-12-20T09:22:02Z</time>
      </trkpt>
      <trkpt lat="45.87348" lon="6.18117">
        <ele>471.66</ele>
        <time>2016-12-20T09:22:03Z</time>
      </trkpt>
      <trkpt lat="45.87312" lon="6.18142">
        <ele>473.11</ele>
        <time>2016-12-20T09:22:13Z</time>
      </trkpt>
      <trkpt lat="45.87308" lon="6.18144">
        <ele>473.59</ele>
        <time>2016-12-20T09:22:14Z</time>
      </trkpt>
      <trkpt lat="45.87281" lon="6.18163">
        <ele>473.59</ele>
        <time>2016-12-20T09:22:21Z</time>
      </trkpt>
      <trkpt lat="45.87257" lon="6.18174">
        <ele>472.63</ele>
        <time>2016-12-20T09:22:27Z</time>
      </trkpt>
      <trkpt lat="45.87253" lon="6.18176">
        <ele>478.39</ele>
        <time>2016-12-20T09:22:28Z</time>
      </trkpt>
      <trkpt lat="45.87249" lon="6.18178">
        <ele>473.11</ele>
        <time>2016-12-20T09:22:29Z</time>
      </trkpt>
      <trkpt lat="45.87211" lon="6.18198">
        <ele>475.03</ele>
        <time>2016-12-20T09:22:39Z</time>
      </trkpt>
      <trkpt lat="45.87181" lon="6.18215">
        <ele>473.59</ele>
        <time>2016-12-20T09:22:46Z</time>
      </trkpt>
      <trkpt lat="45.87157" lon="6.18227">
        <ele>473.11</ele>
        <time>2016-12-20T09:22:54Z</time>
      </trkpt>
      <trkpt lat="45.87123" lon="6.18245">
        <ele>469.26</ele>
        <time>2016-12-20T09:23:00Z</time>
      </trkpt>
      <trkpt lat="45.87117" lon="6.1825">
        <ele>468.78</ele>
        <time>2016-12-20T09:23:01Z</time>
      </trkpt>
      <trkpt lat="45.87093" lon="6.18268">
        <ele>469.26</ele>
        <time>2016-12-20T09:23:05Z</time>
      </trkpt>
      <trkpt lat="45.87071" lon="6.18284">
        <ele>469.74</ele>
        <time>2016-12-20T09:23:09Z</time>
      </trkpt>
      <trkpt lat="45.87066" lon="6.18287">
        <ele>469.74</ele>
        <time>2016-12-20T09:23:10Z</time>
      </trkpt>
      <trkpt lat="45.87047" lon="6.183">
        <ele>470.7</ele>
        <time>2016-12-20T09:23:14Z</time>
      </trkpt>
      <trkpt lat="45.87044" lon="6.18303">
        <ele>471.18</ele>
        <time>2016-12-20T09:23:15Z</time>
      </trkpt>
      <trkpt lat="45.87004" lon="6.1833">
        <ele>473.11</ele>
        <time>2016-12-20T09:23:27Z</time>
      </trkpt>
      <trkpt lat="45.8698" lon="6.18345">
        <ele>473.59</ele>
        <time>2016-12-20T09:23:37Z</time>
      </trkpt>
      <trkpt lat="45.86969" lon="6.18348">
        <ele>472.63</ele>
        <time>2016-12-20T09:23:41Z</time>
      </trkpt>
      <trkpt lat="45.86966" lon="6.1835">
        <ele>472.63</ele>
        <time>2016-12-20T09:23:42Z</time>
      </trkpt>
      <trkpt lat="45.86962" lon="6.18352">
        <ele>472.63</ele>
        <time>2016-12-20T09:23:43Z</time>
      </trkpt>
      <trkpt lat="45.86905" lon="6.18388">
        <ele>469.74</ele>
        <time>2016-12-20T09:23:55Z</time>
      </trkpt>
      <trkpt lat="45.86875" lon="6.18407">
        <ele>469.74</ele>
        <time>2016-12-20T09:24:01Z</time>
      </trkpt>
      <trkpt lat="45.86865" lon="6.18414">
        <ele>469.26</ele>
        <time>2016-12-20T09:24:03Z</time>
      </trkpt>
      <trkpt lat="45.8686" lon="6.18417">
        <ele>469.26</ele>
        <time>2016-12-20T09:24:04Z</time>
      </trkpt>
      <trkpt lat="45.86855" lon="6.1842">
        <ele>469.26</ele>
        <time>2016-12-20T09:24:05Z</time>
      </trkpt>
      <trkpt lat="45.86827" lon="6.18436">
        <ele>469.26</ele>
        <time>2016-12-20T09:24:11Z</time>
      </trkpt>
      <trkpt lat="45.86817" lon="6.1844">
        <ele>469.26</ele>
        <time>2016-12-20T09:24:13Z</time>
      </trkpt>
      <trkpt lat="45.86804" lon="6.18448">
        <ele>469.74</ele>
        <time>2016-12-20T09:24:16Z</time>
      </trkpt>
      <trkpt lat="45.868" lon="6.18449">
        <ele>469.74</ele>
        <time>2016-12-20T09:24:17Z</time>
      </trkpt>
      <trkpt lat="45.86795" lon="6.1845">
        <ele>469.26</ele>
        <time>2016-12-20T09:24:18Z</time>
      </trkpt>
      <trkpt lat="45.86761" lon="6.18469">
        <ele>468.3</ele>
        <time>2016-12-20T09:24:26Z</time>
      </trkpt>
      <trkpt lat="45.86757" lon="6.18473">
        <ele>468.3</ele>
        <time>2016-12-20T09:24:27Z</time>
      </trkpt>
      <trkpt lat="45.86737" lon="6.18494">
        <ele>467.82</ele>
        <time>2016-12-20T09:24:32Z</time>
      </trkpt>
      <trkpt lat="45.86719" lon="6.18516">
        <ele>469.26</ele>
        <time>2016-12-20T09:24:37Z</time>
      </trkpt>
      <trkpt lat="45.86716" lon="6.18519">
        <ele>469.26</ele>
        <time>2016-12-20T09:24:38Z</time>
      </trkpt>
      <trkpt lat="45.86713" lon="6.18522">
        <ele>469.74</ele>
        <time>2016-12-20T09:24:39Z</time>
      </trkpt>
      <trkpt lat="45.8671" lon="6.18525">
        <ele>470.22</ele>
        <time>2016-12-20T09:24:40Z</time>
      </trkpt>
      <trkpt lat="45.86708" lon="6.18528">
        <ele>470.7</ele>
        <time>2016-12-20T09:24:41Z</time>
      </trkpt>
      <trkpt lat="45.86706" lon="6.18531">
        <ele>470.7</ele>
        <time>2016-12-20T09:24:42Z</time>
      </trkpt>
      <trkpt lat="45.86704" lon="6.18532">
        <ele>471.66</ele>
        <time>2016-12-20T09:24:43Z</time>
      </trkpt>
      <trkpt lat="45.86703" lon="6.18534">
        <ele>471.66</ele>
        <time>2016-12-20T09:24:44Z</time>
      </trkpt>
      <trkpt lat="45.86678" lon="6.18559">
        <ele>472.63</ele>
        <time>2016-12-20T09:24:55Z</time>
      </trkpt>
      <trkpt lat="45.86649" lon="6.18587">
        <ele>474.55</ele>
        <time>2016-12-20T09:25:06Z</time>
      </trkpt>
      <trkpt lat="45.86619" lon="6.18621">
        <ele>475.03</ele>
        <time>2016-12-20T09:25:18Z</time>
      </trkpt>
      <trkpt lat="45.86584" lon="6.18671">
        <ele>475.51</ele>
        <time>2016-12-20T09:25:33Z</time>
      </trkpt>
      <trkpt lat="45.86541" lon="6.18715">
        <ele>475.99</ele>
        <time>2016-12-20T09:25:48Z</time>
      </trkpt>
      <trkpt lat="45.86509" lon="6.18755">
        <ele>475.99</ele>
        <time>2016-12-20T09:26:00Z</time>
      </trkpt>
      <trkpt lat="45.86478" lon="6.188">
        <ele>475.03</ele>
        <time>2016-12-20T09:26:11Z</time>
      </trkpt>
      <trkpt lat="45.86446" lon="6.18859">
        <ele>473.11</ele>
        <time>2016-12-20T09:26:23Z</time>
      </trkpt>
      <trkpt lat="45.86432" lon="6.1888">
        <ele>472.63</ele>
        <time>2016-12-20T09:26:27Z</time>
      </trkpt>
      <trkpt lat="45.86429" lon="6.18885">
        <ele>472.63</ele>
        <time>2016-12-20T09:26:28Z</time>
      </trkpt>
      <trkpt lat="45.86406" lon="6.18921">
        <ele>471.66</ele>
        <time>2016-12-20T09:26:38Z</time>
      </trkpt>
      <trkpt lat="45.8637" lon="6.18969">
        <ele>468.78</ele>
        <time>2016-12-20T09:26:51Z</time>
      </trkpt>
      <trkpt lat="45.86354" lon="6.18986">
        <ele>467.82</ele>
        <time>2016-12-20T09:26:55Z</time>
      </trkpt>
      <trkpt lat="45.8635" lon="6.18989">
        <ele>467.82</ele>
        <time>2016-12-20T09:26:56Z</time>
      </trkpt>
      <trkpt lat="45.86337" lon="6.19005">
        <ele>467.34</ele>
        <time>2016-12-20T09:27:01Z</time>
      </trkpt>
      <trkpt lat="45.86336" lon="6.19009">
        <ele>467.82</ele>
        <time>2016-12-20T09:27:02Z</time>
      </trkpt>
      <trkpt lat="45.86335" lon="6.19012">
        <ele>467.82</ele>
        <time>2016-12-20T09:27:03Z</time>
      </trkpt>
      <trkpt lat="45.86334" lon="6.19016">
        <ele>467.82</ele>
        <time>2016-12-20T09:27:04Z</time>
      </trkpt>
      <trkpt lat="45.86334" lon="6.19019">
        <ele>467.34</ele>
        <time>2016-12-20T09:27:05Z</time>
      </trkpt>
      <trkpt lat="45.86335" lon="6.19024">
        <ele>467.34</ele>
        <time>2016-12-20T09:27:06Z</time>
      </trkpt>
      <trkpt lat="45.86336" lon="6.19028">
        <ele>466.86</ele>
        <time>2016-12-20T09:27:07Z</time>
      </trkpt>
      <trkpt lat="45.86336" lon="6.19031">
        <ele>467.34</ele>
        <time>2016-12-20T09:27:08Z</time>
      </trkpt>
      <trkpt lat="45.86335" lon="6.19034">
        <ele>467.34</ele>
        <time>2016-12-20T09:27:09Z</time>
      </trkpt>
      <trkpt lat="45.86333" lon="6.19037">
        <ele>467.34</ele>
        <time>2016-12-20T09:27:10Z</time>
      </trkpt>
      <trkpt lat="45.86331" lon="6.19039">
        <ele>467.34</ele>
        <time>2016-12-20T09:27:11Z</time>
      </trkpt>
      <trkpt lat="45.86329" lon="6.19041">
        <ele>467.34</ele>
        <time>2016-12-20T09:27:12Z</time>
      </trkpt>
      <trkpt lat="45.86326" lon="6.19044">
        <ele>467.82</ele>
        <time>2016-12-20T09:27:13Z</time>
      </trkpt>
      <trkpt lat="45.86324" lon="6.19047">
        <ele>467.82</ele>
        <time>2016-12-20T09:27:14Z</time>
      </trkpt>
      <trkpt lat="45.86287" lon="6.19089">
        <ele>468.3</ele>
        <time>2016-12-20T09:27:27Z</time>
      </trkpt>
      <trkpt lat="45.86249" lon="6.19128">
        <ele>469.26</ele>
        <time>2016-12-20T09:27:40Z</time>
      </trkpt>
      <trkpt lat="45.8624" lon="6.19135">
        <ele>469.74</ele>
        <time>2016-12-20T09:27:44Z</time>
      </trkpt>
      <trkpt lat="45.86237" lon="6.19136">
        <ele>469.74</ele>
        <time>2016-12-20T09:27:45Z</time>
      </trkpt>
      <trkpt lat="45.86234" lon="6.19137">
        <ele>469.26</ele>
        <time>2016-12-20T09:27:46Z</time>
      </trkpt>
      <trkpt lat="45.86231" lon="6.19139">
        <ele>469.74</ele>
        <time>2016-12-20T09:27:47Z</time>
      </trkpt>
      <trkpt lat="45.86228" lon="6.19142">
        <ele>469.26</ele>
        <time>2016-12-20T09:27:48Z</time>
      </trkpt>
      <trkpt lat="45.86225" lon="6.19144">
        <ele>469.26</ele>
        <time>2016-12-20T09:27:49Z</time>
      </trkpt>
      <trkpt lat="45.86222" lon="6.19148">
        <ele>469.26</ele>
        <time>2016-12-20T09:27:50Z</time>
      </trkpt>
      <trkpt lat="45.86219" lon="6.19151">
        <ele>469.26</ele>
        <time>2016-12-20T09:27:51Z</time>
      </trkpt>
      <trkpt lat="45.86166" lon="6.19187">
        <ele>469.74</ele>
        <time>2016-12-20T09:28:05Z</time>
      </trkpt>
      <trkpt lat="45.86135" lon="6.19223">
        <ele>472.14</ele>
        <time>2016-12-20T09:28:17Z</time>
      </trkpt>
      <trkpt lat="45.8612" lon="6.19248">
        <ele>474.07</ele>
        <time>2016-12-20T09:28:26Z</time>
      </trkpt>
      <trkpt lat="45.86119" lon="6.19251">
        <ele>474.07</ele>
        <time>2016-12-20T09:28:27Z</time>
      </trkpt>
      <trkpt lat="45.86101" lon="6.19301">
        <ele>475.99</ele>
        <time>2016-12-20T09:28:42Z</time>
      </trkpt>
      <trkpt lat="45.86089" lon="6.19364">
        <ele>477.91</ele>
        <time>2016-12-20T09:28:58Z</time>
      </trkpt>
      <trkpt lat="45.86089" lon="6.19427">
        <ele>479.84</ele>
        <time>2016-12-20T09:29:12Z</time>
      </trkpt>
      <trkpt lat="45.86078" lon="6.19479">
        <ele>482.24</ele>
        <time>2016-12-20T09:29:25Z</time>
      </trkpt>
      <trkpt lat="45.86059" lon="6.19514">
        <ele>483.68</ele>
        <time>2016-12-20T09:29:36Z</time>
      </trkpt>
      <trkpt lat="45.86015" lon="6.19561">
        <ele>484.64</ele>
        <time>2016-12-20T09:29:52Z</time>
      </trkpt>
      <trkpt lat="45.85979" lon="6.19597">
        <ele>484.64</ele>
        <time>2016-12-20T09:30:05Z</time>
      </trkpt>
      <trkpt lat="45.8595" lon="6.19614">
        <ele>484.64</ele>
        <time>2016-12-20T09:30:18Z</time>
      </trkpt>
      <trkpt lat="45.85946" lon="6.19618">
        <ele>484.64</ele>
        <time>2016-12-20T09:30:34Z</time>
      </trkpt>
      <trkpt lat="45.85908" lon="6.1965">
        <ele>483.68</ele>
        <time>2016-12-20T09:30:47Z</time>
      </trkpt>
      <trkpt lat="45.85901" lon="6.19656">
        <ele>483.2</ele>
        <time>2016-12-20T09:30:49Z</time>
      </trkpt>
      <trkpt lat="45.85893" lon="6.1966">
        <ele>482.72</ele>
        <time>2016-12-20T09:30:51Z</time>
      </trkpt>
      <trkpt lat="45.85884" lon="6.19665">
        <ele>482.72</ele>
        <time>2016-12-20T09:30:53Z</time>
      </trkpt>
      <trkpt lat="45.85879" lon="6.19668">
        <ele>482.72</ele>
        <time>2016-12-20T09:30:54Z</time>
      </trkpt>
      <trkpt lat="45.85862" lon="6.19678">
        <ele>482.72</ele>
        <time>2016-12-20T09:30:58Z</time>
      </trkpt>
      <trkpt lat="45.85858" lon="6.19681">
        <ele>482.72</ele>
        <time>2016-12-20T09:30:59Z</time>
      </trkpt>
      <trkpt lat="45.85854" lon="6.19683">
        <ele>483.2</ele>
        <time>2016-12-20T09:31:00Z</time>
      </trkpt>
      <trkpt lat="45.85846" lon="6.1969">
        <ele>483.2</ele>
        <time>2016-12-20T09:31:02Z</time>
      </trkpt>
      <trkpt lat="45.85843" lon="6.19694">
        <ele>483.2</ele>
        <time>2016-12-20T09:31:03Z</time>
      </trkpt>
      <trkpt lat="45.8584" lon="6.19699">
        <ele>483.68</ele>
        <time>2016-12-20T09:31:04Z</time>
      </trkpt>
      <trkpt lat="45.8583" lon="6.19711">
        <ele>484.16</ele>
        <time>2016-12-20T09:31:07Z</time>
      </trkpt>
      <trkpt lat="45.85808" lon="6.19749">
        <ele>487.53</ele>
        <time>2016-12-20T09:31:17Z</time>
      </trkpt>
      <trkpt lat="45.85781" lon="6.19775">
        <ele>490.41</ele>
        <time>2016-12-20T09:31:28Z</time>
      </trkpt>
      <trkpt lat="45.85772" lon="6.19778">
        <ele>491.37</ele>
        <time>2016-12-20T09:31:31Z</time>
      </trkpt>
      <trkpt lat="45.8577" lon="6.1978">
        <ele>491.37</ele>
        <time>2016-12-20T09:31:32Z</time>
      </trkpt>
      <trkpt lat="45.85768" lon="6.19782">
        <ele>491.85</ele>
        <time>2016-12-20T09:31:33Z</time>
      </trkpt>
      <trkpt lat="45.85758" lon="6.19796">
        <ele>492.81</ele>
        <time>2016-12-20T09:31:38Z</time>
      </trkpt>
      <trkpt lat="45.85737" lon="6.19794">
        <ele>494.26</ele>
        <time>2016-12-20T09:31:48Z</time>
      </trkpt>
      <trkpt lat="45.85724" lon="6.19785">
        <ele>495.22</ele>
        <time>2016-12-20T09:31:57Z</time>
      </trkpt>
      <trkpt lat="45.85712" lon="6.19777">
        <ele>495.7</ele>
        <time>2016-12-20T09:32:02Z</time>
      </trkpt>
      <trkpt lat="45.85674" lon="6.19743">
        <ele>498.1</ele>
        <time>2016-12-20T09:32:18Z</time>
      </trkpt>
      <trkpt lat="45.85628" lon="6.19742">
        <ele>500.5</ele>
        <time>2016-12-20T09:32:34Z</time>
      </trkpt>
      <trkpt lat="45.85587" lon="6.19773">
        <ele>502.91</ele>
        <time>2016-12-20T09:32:49Z</time>
      </trkpt>
      <trkpt lat="45.85562" lon="6.19812">
        <ele>504.83</ele>
        <time>2016-12-20T09:33:01Z</time>
      </trkpt>
      <trkpt lat="45.8554" lon="6.19842">
        <ele>507.71</ele>
        <time>2016-12-20T09:33:12Z</time>
      </trkpt>
      <trkpt lat="45.85539" lon="6.19844">
        <ele>507.71</ele>
        <time>2016-12-20T09:33:25Z</time>
      </trkpt>
      <trkpt lat="45.85539" lon="6.19844">
        <ele>508.19</ele>
        <time>2016-12-20T09:33:29Z</time>
      </trkpt>
      <trkpt lat="45.85538" lon="6.19845">
        <ele>508.19</ele>
        <time>2016-12-20T09:33:31Z</time>
      </trkpt>
      <trkpt lat="45.8553" lon="6.19852">
        <ele>508.19</ele>
        <time>2016-12-20T09:33:35Z</time>
      </trkpt>
      <trkpt lat="45.85523" lon="6.19865">
        <ele>508.67</ele>
        <time>2016-12-20T09:33:38Z</time>
      </trkpt>
      <trkpt lat="45.8552" lon="6.19869">
        <ele>509.16</ele>
        <time>2016-12-20T09:33:39Z</time>
      </trkpt>
      <trkpt lat="45.85488" lon="6.19916">
        <ele>512.04</ele>
        <time>2016-12-20T09:33:53Z</time>
      </trkpt>
      <trkpt lat="45.85462" lon="6.19971">
        <ele>514.44</ele>
        <time>2016-12-20T09:34:10Z</time>
      </trkpt>
      <trkpt lat="45.8545" lon="6.19997">
        <ele>514.92</ele>
        <time>2016-12-20T09:34:20Z</time>
      </trkpt>
      <trkpt lat="45.85448" lon="6.19998">
        <ele>515.4</ele>
        <time>2016-12-20T09:34:21Z</time>
      </trkpt>
      <trkpt lat="45.85446" lon="6.20001">
        <ele>515.4</ele>
        <time>2016-12-20T09:34:22Z</time>
      </trkpt>
      <trkpt lat="45.85446" lon="6.20003">
        <ele>515.4</ele>
        <time>2016-12-20T09:34:23Z</time>
      </trkpt>
      <trkpt lat="45.85445" lon="6.20006">
        <ele>515.4</ele>
        <time>2016-12-20T09:34:24Z</time>
      </trkpt>
      <trkpt lat="45.85444" lon="6.20008">
        <ele>515.4</ele>
        <time>2016-12-20T09:34:25Z</time>
      </trkpt>
      <trkpt lat="45.85442" lon="6.2001">
        <ele>515.4</ele>
        <time>2016-12-20T09:34:26Z</time>
      </trkpt>
      <trkpt lat="45.85441" lon="6.20013">
        <ele>515.88</ele>
        <time>2016-12-20T09:34:27Z</time>
      </trkpt>
      <trkpt lat="45.85441" lon="6.20016">
        <ele>515.88</ele>
        <time>2016-12-20T09:34:28Z</time>
      </trkpt>
      <trkpt lat="45.85439" lon="6.20019">
        <ele>515.88</ele>
        <time>2016-12-20T09:34:29Z</time>
      </trkpt>
      <trkpt lat="45.85438" lon="6.20022">
        <ele>515.88</ele>
        <time>2016-12-20T09:34:30Z</time>
      </trkpt>
      <trkpt lat="45.85437" lon="6.20025">
        <ele>515.88</ele>
        <time>2016-12-20T09:34:31Z</time>
      </trkpt>
      <trkpt lat="45.85432" lon="6.20037">
        <ele>516.37</ele>
        <time>2016-12-20T09:34:35Z</time>
      </trkpt>
      <trkpt lat="45.85431" lon="6.20039">
        <ele>516.37</ele>
        <time>2016-12-20T09:34:36Z</time>
      </trkpt>
      <trkpt lat="45.8543" lon="6.20042">
        <ele>516.85</ele>
        <time>2016-12-20T09:34:37Z</time>
      </trkpt>
      <trkpt lat="45.85429" lon="6.20045">
        <ele>516.85</ele>
        <time>2016-12-20T09:34:38Z</time>
      </trkpt>
      <trkpt lat="45.85428" lon="6.20048">
        <ele>516.85</ele>
        <time>2016-12-20T09:34:39Z</time>
      </trkpt>
      <trkpt lat="45.85427" lon="6.20051">
        <ele>516.85</ele>
        <time>2016-12-20T09:34:40Z</time>
      </trkpt>
      <trkpt lat="45.85426" lon="6.20054">
        <ele>516.85</ele>
        <time>2016-12-20T09:34:41Z</time>
      </trkpt>
      <trkpt lat="45.85425" lon="6.20057">
        <ele>517.33</ele>
        <time>2016-12-20T09:34:42Z</time>
      </trkpt>
      <trkpt lat="45.85406" lon="6.20097">
        <ele>519.25</ele>
        <time>2016-12-20T09:34:57Z</time>
      </trkpt>
      <trkpt lat="45.85393" lon="6.20126">
        <ele>520.21</ele>
        <time>2016-12-20T09:35:07Z</time>
      </trkpt>
      <trkpt lat="45.85374" lon="6.20172">
        <ele>522.13</ele>
        <time>2016-12-20T09:35:22Z</time>
      </trkpt>
      <trkpt lat="45.85359" lon="6.20207">
        <ele>524.06</ele>
        <time>2016-12-20T09:35:33Z</time>
      </trkpt>
      <trkpt lat="45.85344" lon="6.20251">
        <ele>525.98</ele>
        <time>2016-12-20T09:35:46Z</time>
      </trkpt>
      <trkpt lat="45.8534" lon="6.20267">
        <ele>526.94</ele>
        <time>2016-12-20T09:35:51Z</time>
      </trkpt>
      <trkpt lat="45.85341" lon="6.2027">
        <ele>526.94</ele>
        <time>2016-12-20T09:35:52Z</time>
      </trkpt>
      <trkpt lat="45.8534" lon="6.20272">
        <ele>526.94</ele>
        <time>2016-12-20T09:35:53Z</time>
      </trkpt>
      <trkpt lat="45.85338" lon="6.20274">
        <ele>527.42</ele>
        <time>2016-12-20T09:35:54Z</time>
      </trkpt>
      <trkpt lat="45.85338" lon="6.20276">
        <ele>527.42</ele>
        <time>2016-12-20T09:35:55Z</time>
      </trkpt>
      <trkpt lat="45.85337" lon="6.20278">
        <ele>527.42</ele>
        <time>2016-12-20T09:35:56Z</time>
      </trkpt>
      <trkpt lat="45.85337" lon="6.20287">
        <ele>527.9</ele>
        <time>2016-12-20T09:36:01Z</time>
      </trkpt>
      <trkpt lat="45.85338" lon="6.20285">
        <ele>527.9</ele>
        <time>2016-12-20T09:36:03Z</time>
      </trkpt>
      <trkpt lat="45.85339" lon="6.20281">
        <ele>527.9</ele>
        <time>2016-12-20T09:36:06Z</time>
      </trkpt>
      <trkpt lat="45.85338" lon="6.20289">
        <ele>528.38</ele>
        <time>2016-12-20T09:36:14Z</time>
      </trkpt>
      <trkpt lat="45.85338" lon="6.20289">
        <ele>528.38</ele>
        <time>2016-12-20T09:36:15Z</time>
      </trkpt>
      <trkpt lat="45.85339" lon="6.20284">
        <ele>527.9</ele>
        <time>2016-12-20T09:36:19Z</time>
      </trkpt>
      <trkpt lat="45.85339" lon="6.20287">
        <ele>527.9</ele>
        <time>2016-12-20T09:36:28Z</time>
      </trkpt>
      <trkpt lat="45.85339" lon="6.20284">
        <ele>527.9</ele>
        <time>2016-12-20T09:36:30Z</time>
      </trkpt>
      <trkpt lat="45.85336" lon="6.20298">
        <ele>528.38</ele>
        <time>2016-12-20T09:36:37Z</time>
      </trkpt>
      <trkpt lat="45.85335" lon="6.20304">
        <ele>528.38</ele>
        <time>2016-12-20T09:36:39Z</time>
      </trkpt>
      <trkpt lat="45.85328" lon="6.20355">
        <ele>530.3</ele>
        <time>2016-12-20T09:36:56Z</time>
      </trkpt>
      <trkpt lat="45.85324" lon="6.204">
        <ele>532.23</ele>
        <time>2016-12-20T09:37:10Z</time>
      </trkpt>
      <trkpt lat="45.85321" lon="6.20411">
        <ele>532.71</ele>
        <time>2016-12-20T09:37:14Z</time>
      </trkpt>
      <trkpt lat="45.85324" lon="6.20429">
        <ele>533.67</ele>
        <time>2016-12-20T09:37:20Z</time>
      </trkpt>
      <trkpt lat="45.85321" lon="6.20452">
        <ele>534.63</ele>
        <time>2016-12-20T09:37:28Z</time>
      </trkpt>
      <trkpt lat="45.85295" lon="6.20496">
        <ele>535.59</ele>
        <time>2016-12-20T09:37:45Z</time>
      </trkpt>
      <trkpt lat="45.85289" lon="6.20506">
        <ele>536.07</ele>
        <time>2016-12-20T09:37:49Z</time>
      </trkpt>
      <trkpt lat="45.85285" lon="6.20509">
        <ele>536.55</ele>
        <time>2016-12-20T09:37:51Z</time>
      </trkpt>
      <trkpt lat="45.8528" lon="6.20518">
        <ele>537.03</ele>
        <time>2016-12-20T09:37:55Z</time>
      </trkpt>
      <trkpt lat="45.85279" lon="6.20519">
        <ele>537.03</ele>
        <time>2016-12-20T09:38:03Z</time>
      </trkpt>
      <trkpt lat="45.85272" lon="6.2053">
        <ele>537.51</ele>
        <time>2016-12-20T09:38:07Z</time>
      </trkpt>
      <trkpt lat="45.85247" lon="6.20563">
        <ele>538.48</ele>
        <time>2016-12-20T09:38:21Z</time>
      </trkpt>
      <trkpt lat="45.85224" lon="6.20596">
        <ele>539.92</ele>
        <time>2016-12-20T09:38:35Z</time>
      </trkpt>
      <trkpt lat="45.85201" lon="6.20625">
        <ele>541.84</ele>
        <time>2016-12-20T09:38:47Z</time>
      </trkpt>
      <trkpt lat="45.85176" lon="6.20653">
        <ele>543.28</ele>
        <time>2016-12-20T09:39:01Z</time>
      </trkpt>
      <trkpt lat="45.85166" lon="6.20666">
        <ele>543.76</ele>
        <time>2016-12-20T09:39:07Z</time>
      </trkpt>
      <trkpt lat="45.85152" lon="6.20682">
        <ele>544.72</ele>
        <time>2016-12-20T09:39:15Z</time>
      </trkpt>
      <trkpt lat="45.85124" lon="6.20718">
        <ele>546.17</ele>
        <time>2016-12-20T09:39:30Z</time>
      </trkpt>
      <trkpt lat="45.85099" lon="6.20756">
        <ele>547.13</ele>
        <time>2016-12-20T09:39:44Z</time>
      </trkpt>
      <trkpt lat="45.85062" lon="6.20801">
        <ele>547.13</ele>
        <time>2016-12-20T09:40:00Z</time>
      </trkpt>
      <trkpt lat="45.85035" lon="6.20835">
        <ele>547.13</ele>
        <time>2016-12-20T09:40:11Z</time>
      </trkpt>
      <trkpt lat="45.85001" lon="6.20885">
        <ele>547.61</ele>
        <time>2016-12-20T09:40:24Z</time>
      </trkpt>
      <trkpt lat="45.84972" lon="6.20937">
        <ele>548.09</ele>
        <time>2016-12-20T09:40:37Z</time>
      </trkpt>
      <trkpt lat="45.84938" lon="6.20994">
        <ele>548.57</ele>
        <time>2016-12-20T09:40:51Z</time>
      </trkpt>
      <trkpt lat="45.84903" lon="6.21055">
        <ele>549.05</ele>
        <time>2016-12-20T09:41:05Z</time>
      </trkpt>
      <trkpt lat="45.849" lon="6.2106">
        <ele>549.05</ele>
        <time>2016-12-20T09:41:06Z</time>
      </trkpt>
      <trkpt lat="45.84862" lon="6.21128">
        <ele>549.53</ele>
        <time>2016-12-20T09:41:21Z</time>
      </trkpt>
      <trkpt lat="45.84831" lon="6.21181">
        <ele>550.49</ele>
        <time>2016-12-20T09:41:34Z</time>
      </trkpt>
      <trkpt lat="45.84789" lon="6.21255">
        <ele>552.41</ele>
        <time>2016-12-20T09:41:52Z</time>
      </trkpt>
      <trkpt lat="45.84759" lon="6.21311">
        <ele>554.34</ele>
        <time>2016-12-20T09:42:07Z</time>
      </trkpt>
      <trkpt lat="45.84736" lon="6.21351">
        <ele>555.78</ele>
        <time>2016-12-20T09:42:18Z</time>
      </trkpt>
      <trkpt lat="45.84718" lon="6.21389">
        <ele>557.7</ele>
        <time>2016-12-20T09:42:29Z</time>
      </trkpt>
      <trkpt lat="45.8471" lon="6.21397">
        <ele>558.66</ele>
        <time>2016-12-20T09:42:33Z</time>
      </trkpt>
      <trkpt lat="45.84708" lon="6.21395">
        <ele>558.66</ele>
        <time>2016-12-20T09:42:36Z</time>
      </trkpt>
      <trkpt lat="45.84696" lon="6.21395">
        <ele>559.14</ele>
        <time>2016-12-20T09:42:43Z</time>
      </trkpt>
      <trkpt lat="45.84663" lon="6.21411">
        <ele>560.59</ele>
        <time>2016-12-20T09:42:56Z</time>
      </trkpt>
      <trkpt lat="45.84646" lon="6.21398">
        <ele>561.07</ele>
        <time>2016-12-20T09:43:05Z</time>
      </trkpt>
      <trkpt lat="45.84646" lon="6.21409">
        <ele>561.55</ele>
        <time>2016-12-20T09:43:10Z</time>
      </trkpt>
      <trkpt lat="45.84651" lon="6.21413">
        <ele>561.07</ele>
        <time>2016-12-20T09:43:12Z</time>
      </trkpt>
      <trkpt lat="45.84656" lon="6.21426">
        <ele>561.55</ele>
        <time>2016-12-20T09:43:20Z</time>
      </trkpt>
      <trkpt lat="45.84655" lon="6.2142">
        <ele>561.55</ele>
        <time>2016-12-20T09:43:26Z</time>
      </trkpt>
      <trkpt lat="45.84651" lon="6.21406">
        <ele>561.07</ele>
        <time>2016-12-20T09:43:31Z</time>
      </trkpt>
      <trkpt lat="45.84641" lon="6.21392">
        <ele>561.07</ele>
        <time>2016-12-20T09:43:37Z</time>
      </trkpt>
      <trkpt lat="45.84633" lon="6.21381">
        <ele>559.62</ele>
        <time>2016-12-20T09:43:40Z</time>
      </trkpt>
      <trkpt lat="45.84612" lon="6.21354">
        <ele>556.26</ele>
        <time>2016-12-20T09:43:45Z</time>
      </trkpt>
      <trkpt lat="45.84584" lon="6.21321">
        <ele>552.41</ele>
        <time>2016-12-20T09:43:50Z</time>
      </trkpt>
      <trkpt lat="45.84553" lon="6.21281">
        <ele>549.05</ele>
        <time>2016-12-20T09:43:55Z</time>
      </trkpt>
      <trkpt lat="45.84528" lon="6.21252">
        <ele>546.65</ele>
        <time>2016-12-20T09:43:59Z</time>
      </trkpt>
      <trkpt lat="45.8452" lon="6.2125">
        <ele>546.17</ele>
        <time>2016-12-20T09:44:00Z</time>
      </trkpt>
      <trkpt lat="45.84512" lon="6.21254">
        <ele>545.2</ele>
        <time>2016-12-20T09:44:01Z</time>
      </trkpt>
      <trkpt lat="45.84505" lon="6.21261">
        <ele>543.28</ele>
        <time>2016-12-20T09:44:02Z</time>
      </trkpt>
      <trkpt lat="45.845" lon="6.21272">
        <ele>542.32</ele>
        <time>2016-12-20T09:44:03Z</time>
      </trkpt>
      <trkpt lat="45.84495" lon="6.21283">
        <ele>540.4</ele>
        <time>2016-12-20T09:44:04Z</time>
      </trkpt>
      <trkpt lat="45.84471" lon="6.21327">
        <ele>537.03</ele>
        <time>2016-12-20T09:44:08Z</time>
      </trkpt>
      <trkpt lat="45.84458" lon="6.21347">
        <ele>535.59</ele>
        <time>2016-12-20T09:44:10Z</time>
      </trkpt>
      <trkpt lat="45.84433" lon="6.21385">
        <ele>534.15</ele>
        <time>2016-12-20T09:44:15Z</time>
      </trkpt>
      <trkpt lat="45.84429" lon="6.21387">
        <ele>534.63</ele>
        <time>2016-12-20T09:44:16Z</time>
      </trkpt>
      <trkpt lat="45.84425" lon="6.21386">
        <ele>534.15</ele>
        <time>2016-12-20T09:44:17Z</time>
      </trkpt>
      <trkpt lat="45.84422" lon="6.21383">
        <ele>533.67</ele>
        <time>2016-12-20T09:44:18Z</time>
      </trkpt>
      <trkpt lat="45.84421" lon="6.21377">
        <ele>533.19</ele>
        <time>2016-12-20T09:44:19Z</time>
      </trkpt>
      <trkpt lat="45.84421" lon="6.2137">
        <ele>532.23</ele>
        <time>2016-12-20T09:44:20Z</time>
      </trkpt>
      <trkpt lat="45.84422" lon="6.21363">
        <ele>531.27</ele>
        <time>2016-12-20T09:44:21Z</time>
      </trkpt>
      <trkpt lat="45.84423" lon="6.21355">
        <ele>530.3</ele>
        <time>2016-12-20T09:44:22Z</time>
      </trkpt>
      <trkpt lat="45.84426" lon="6.21315">
        <ele>527.42</ele>
        <time>2016-12-20T09:44:26Z</time>
      </trkpt>
      <trkpt lat="45.84428" lon="6.21272">
        <ele>524.06</ele>
        <time>2016-12-20T09:44:30Z</time>
      </trkpt>
      <trkpt lat="45.84428" lon="6.2125">
        <ele>523.09</ele>
        <time>2016-12-20T09:44:32Z</time>
      </trkpt>
      <trkpt lat="45.84425" lon="6.21239">
        <ele>522.13</ele>
        <time>2016-12-20T09:44:33Z</time>
      </trkpt>
      <trkpt lat="45.84422" lon="6.21229">
        <ele>521.17</ele>
        <time>2016-12-20T09:44:34Z</time>
      </trkpt>
      <trkpt lat="45.84403" lon="6.21186">
        <ele>517.33</ele>
        <time>2016-12-20T09:44:38Z</time>
      </trkpt>
      <trkpt lat="45.84383" lon="6.2114">
        <ele>513.96</ele>
        <time>2016-12-20T09:44:42Z</time>
      </trkpt>
      <trkpt lat="45.84362" lon="6.21088">
        <ele>510.12</ele>
        <time>2016-12-20T09:44:47Z</time>
      </trkpt>
      <trkpt lat="45.84359" lon="6.2108">
        <ele>510.12</ele>
        <time>2016-12-20T09:44:48Z</time>
      </trkpt>
      <trkpt lat="45.84354" lon="6.21076">
        <ele>510.12</ele>
        <time>2016-12-20T09:44:49Z</time>
      </trkpt>
      <trkpt lat="45.84349" lon="6.21077">
        <ele>510.12</ele>
        <time>2016-12-20T09:44:50Z</time>
      </trkpt>
      <trkpt lat="45.84345" lon="6.21082">
        <ele>509.64</ele>
        <time>2016-12-20T09:44:51Z</time>
      </trkpt>
      <trkpt lat="45.84343" lon="6.2109">
        <ele>509.16</ele>
        <time>2016-12-20T09:44:52Z</time>
      </trkpt>
      <trkpt lat="45.84342" lon="6.21099">
        <ele>508.67</ele>
        <time>2016-12-20T09:44:53Z</time>
      </trkpt>
      <trkpt lat="45.84339" lon="6.21112">
        <ele>507.23</ele>
        <time>2016-12-20T09:44:55Z</time>
      </trkpt>
      <trkpt lat="45.84338" lon="6.21117">
        <ele>507.23</ele>
        <time>2016-12-20T09:44:56Z</time>
      </trkpt>
      <trkpt lat="45.84338" lon="6.21122">
        <ele>507.23</ele>
        <time>2016-12-20T09:44:57Z</time>
      </trkpt>
      <trkpt lat="45.84337" lon="6.21126">
        <ele>506.75</ele>
        <time>2016-12-20T09:44:58Z</time>
      </trkpt>
      <trkpt lat="45.84336" lon="6.2113">
        <ele>506.27</ele>
        <time>2016-12-20T09:44:59Z</time>
      </trkpt>
      <trkpt lat="45.84334" lon="6.21155">
        <ele>504.83</ele>
        <time>2016-12-20T09:45:03Z</time>
      </trkpt>
      <trkpt lat="45.84335" lon="6.21162">
        <ele>504.35</ele>
        <time>2016-12-20T09:45:04Z</time>
      </trkpt>
      <trkpt lat="45.8434" lon="6.21197">
        <ele>501.46</ele>
        <time>2016-12-20T09:45:08Z</time>
      </trkpt>
      <trkpt lat="45.8434" lon="6.21208">
        <ele>500.98</ele>
        <time>2016-12-20T09:45:09Z</time>
      </trkpt>
      <trkpt lat="45.84338" lon="6.21219">
        <ele>500.02</ele>
        <time>2016-12-20T09:45:10Z</time>
      </trkpt>
      <trkpt lat="45.84336" lon="6.2123">
        <ele>499.06</ele>
        <time>2016-12-20T09:45:11Z</time>
      </trkpt>
      <trkpt lat="45.84332" lon="6.21241">
        <ele>497.62</ele>
        <time>2016-12-20T09:45:12Z</time>
      </trkpt>
      <trkpt lat="45.84327" lon="6.21252">
        <ele>497.14</ele>
        <time>2016-12-20T09:45:13Z</time>
      </trkpt>
      <trkpt lat="45.84322" lon="6.21262">
        <ele>496.66</ele>
        <time>2016-12-20T09:45:14Z</time>
      </trkpt>
      <trkpt lat="45.84311" lon="6.21281">
        <ele>494.74</ele>
        <time>2016-12-20T09:45:16Z</time>
      </trkpt>
      <trkpt lat="45.84303" lon="6.2129">
        <ele>493.77</ele>
        <time>2016-12-20T09:45:17Z</time>
      </trkpt>
      <trkpt lat="45.84289" lon="6.21307">
        <ele>491.37</ele>
        <time>2016-12-20T09:45:19Z</time>
      </trkpt>
      <trkpt lat="45.84283" lon="6.21318">
        <ele>490.41</ele>
        <time>2016-12-20T09:45:20Z</time>
      </trkpt>
      <trkpt lat="45.84278" lon="6.21329">
        <ele>490.41</ele>
        <time>2016-12-20T09:45:21Z</time>
      </trkpt>
      <trkpt lat="45.84273" lon="6.21341">
        <ele>490.41</ele>
        <time>2016-12-20T09:45:22Z</time>
      </trkpt>
      <trkpt lat="45.8427" lon="6.21352">
        <ele>490.41</ele>
        <time>2016-12-20T09:45:23Z</time>
      </trkpt>
      <trkpt lat="45.84245" lon="6.21431">
        <ele>487.05</ele>
        <time>2016-12-20T09:45:30Z</time>
      </trkpt>
      <trkpt lat="45.84236" lon="6.21453">
        <ele>486.08</ele>
        <time>2016-12-20T09:45:32Z</time>
      </trkpt>
      <trkpt lat="45.84231" lon="6.21463">
        <ele>485.6</ele>
        <time>2016-12-20T09:45:33Z</time>
      </trkpt>
      <trkpt lat="45.84226" lon="6.21472">
        <ele>485.6</ele>
        <time>2016-12-20T09:45:34Z</time>
      </trkpt>
      <trkpt lat="45.84195" lon="6.2151">
        <ele>488.01</ele>
        <time>2016-12-20T09:45:40Z</time>
      </trkpt>
      <trkpt lat="45.84186" lon="6.21518">
        <ele>488.49</ele>
        <time>2016-12-20T09:45:42Z</time>
      </trkpt>
      <trkpt lat="45.84148" lon="6.2155">
        <ele>490.89</ele>
        <time>2016-12-20T09:45:53Z</time>
      </trkpt>
      <trkpt lat="45.84102" lon="6.21587">
        <ele>488.01</ele>
        <time>2016-12-20T09:46:06Z</time>
      </trkpt>
      <trkpt lat="45.84049" lon="6.21628">
        <ele>484.64</ele>
        <time>2016-12-20T09:46:16Z</time>
      </trkpt>
      <trkpt lat="45.84018" lon="6.2165">
        <ele>481.76</ele>
        <time>2016-12-20T09:46:21Z</time>
      </trkpt>
      <trkpt lat="45.83998" lon="6.21661">
        <ele>480.32</ele>
        <time>2016-12-20T09:46:24Z</time>
      </trkpt>
      <trkpt lat="45.83992" lon="6.21663">
        <ele>479.84</ele>
        <time>2016-12-20T09:46:25Z</time>
      </trkpt>
      <trkpt lat="45.83986" lon="6.21663">
        <ele>479.84</ele>
        <time>2016-12-20T09:46:26Z</time>
      </trkpt>
      <trkpt lat="45.83981" lon="6.21662">
        <ele>479.84</ele>
        <time>2016-12-20T09:46:27Z</time>
      </trkpt>
      <trkpt lat="45.83977" lon="6.2166">
        <ele>479.84</ele>
        <time>2016-12-20T09:46:28Z</time>
      </trkpt>
      <trkpt lat="45.83973" lon="6.21658">
        <ele>479.84</ele>
        <time>2016-12-20T09:46:29Z</time>
      </trkpt>
      <trkpt lat="45.8397" lon="6.21655">
        <ele>479.84</ele>
        <time>2016-12-20T09:46:30Z</time>
      </trkpt>
      <trkpt lat="45.83967" lon="6.21651">
        <ele>479.35</ele>
        <time>2016-12-20T09:46:31Z</time>
      </trkpt>
      <trkpt lat="45.83965" lon="6.21647">
        <ele>478.87</ele>
        <time>2016-12-20T09:46:32Z</time>
      </trkpt>
      <trkpt lat="45.83963" lon="6.21641">
        <ele>478.39</ele>
        <time>2016-12-20T09:46:33Z</time>
      </trkpt>
      <trkpt lat="45.83961" lon="6.21634">
        <ele>477.43</ele>
        <time>2016-12-20T09:46:34Z</time>
      </trkpt>
      <trkpt lat="45.83961" lon="6.21627">
        <ele>476.95</ele>
        <time>2016-12-20T09:46:35Z</time>
      </trkpt>
      <trkpt lat="45.8396" lon="6.21618">
        <ele>475.99</ele>
        <time>2016-12-20T09:46:36Z</time>
      </trkpt>
      <trkpt lat="45.83959" lon="6.2161">
        <ele>475.51</ele>
        <time>2016-12-20T09:46:37Z</time>
      </trkpt>
      <trkpt lat="45.83957" lon="6.21586">
        <ele>474.07</ele>
        <time>2016-12-20T09:46:40Z</time>
      </trkpt>
      <trkpt lat="45.83957" lon="6.21579">
        <ele>473.59</ele>
        <time>2016-12-20T09:46:41Z</time>
      </trkpt>
      <trkpt lat="45.83958" lon="6.21556">
        <ele>472.63</ele>
        <time>2016-12-20T09:46:44Z</time>
      </trkpt>
      <trkpt lat="45.83963" lon="6.21534">
        <ele>470.7</ele>
        <time>2016-12-20T09:46:47Z</time>
      </trkpt>
      <trkpt lat="45.8397" lon="6.21501">
        <ele>469.26</ele>
        <time>2016-12-20T09:46:52Z</time>
      </trkpt>
      <trkpt lat="45.83972" lon="6.21481">
        <ele>469.26</ele>
        <time>2016-12-20T09:46:56Z</time>
      </trkpt>
      <trkpt lat="45.83974" lon="6.21479">
        <ele>469.26</ele>
        <time>2016-12-20T09:46:57Z</time>
      </trkpt>
      <trkpt lat="45.83976" lon="6.21478">
        <ele>469.74</ele>
        <time>2016-12-20T09:46:58Z</time>
      </trkpt>
      <trkpt lat="45.8398" lon="6.21478">
        <ele>469.26</ele>
        <time>2016-12-20T09:46:59Z</time>
      </trkpt>
      <trkpt lat="45.83983" lon="6.21477">
        <ele>469.74</ele>
        <time>2016-12-20T09:47:00Z</time>
      </trkpt>
      <trkpt lat="45.83987" lon="6.21476">
        <ele>469.74</ele>
        <time>2016-12-20T09:47:01Z</time>
      </trkpt>
      <trkpt lat="45.83991" lon="6.21475">
        <ele>469.74</ele>
        <time>2016-12-20T09:47:02Z</time>
      </trkpt>
      <trkpt lat="45.84013" lon="6.21464">
        <ele>471.66</ele>
        <time>2016-12-20T09:47:11Z</time>
      </trkpt>
      <trkpt lat="45.8403" lon="6.21455">
        <ele>472.63</ele>
        <time>2016-12-20T09:47:20Z</time>
      </trkpt>
      <trkpt lat="45.84041" lon="6.21455">
        <ele>473.11</ele>
        <time>2016-12-20T09:47:29Z</time>
      </trkpt>
      <trkpt lat="45.84042" lon="6.21455">
        <ele>473.11</ele>
        <time>2016-12-20T09:47:30Z</time>
      </trkpt>
      <trkpt lat="45.84044" lon="6.21454">
        <ele>473.11</ele>
        <time>2016-12-20T09:47:31Z</time>
      </trkpt>
      <trkpt lat="45.84053" lon="6.21454">
        <ele>473.11</ele>
        <time>2016-12-20T09:47:38Z</time>
      </trkpt>
      <trkpt lat="45.84053" lon="6.21453">
        <ele>473.59</ele>
        <time>2016-12-20T09:47:39Z</time>
      </trkpt>
      <trkpt lat="45.84052" lon="6.21452">
        <ele>473.59</ele>
        <time>2016-12-20T09:47:40Z</time>
      </trkpt>
      <trkpt lat="45.84018" lon="6.21458">
        <ele>472.14</ele>
        <time>2016-12-20T09:47:53Z</time>
      </trkpt>
      <trkpt lat="45.84003" lon="6.21472">
        <ele>470.7</ele>
        <time>2016-12-20T09:47:58Z</time>
      </trkpt>
      <trkpt lat="45.83998" lon="6.21474">
        <ele>470.7</ele>
        <time>2016-12-20T09:47:59Z</time>
      </trkpt>
      <trkpt lat="45.83994" lon="6.21475">
        <ele>469.74</ele>
        <time>2016-12-20T09:48:00Z</time>
      </trkpt>
      <trkpt lat="45.83989" lon="6.21476">
        <ele>469.26</ele>
        <time>2016-12-20T09:48:01Z</time>
      </trkpt>
      <trkpt lat="45.83983" lon="6.21477">
        <ele>468.78</ele>
        <time>2016-12-20T09:48:02Z</time>
      </trkpt>
      <trkpt lat="45.83978" lon="6.21477">
        <ele>468.78</ele>
        <time>2016-12-20T09:48:03Z</time>
      </trkpt>
      <trkpt lat="45.83973" lon="6.21476">
        <ele>468.78</ele>
        <time>2016-12-20T09:48:04Z</time>
      </trkpt>
      <trkpt lat="45.83969" lon="6.21474">
        <ele>468.78</ele>
        <time>2016-12-20T09:48:05Z</time>
      </trkpt>
      <trkpt lat="45.83964" lon="6.21473">
        <ele>468.78</ele>
        <time>2016-12-20T09:48:06Z</time>
      </trkpt>
      <trkpt lat="45.8396" lon="6.21471">
        <ele>468.78</ele>
        <time>2016-12-20T09:48:07Z</time>
      </trkpt>
      <trkpt lat="45.83925" lon="6.2148">
        <ele>469.74</ele>
        <time>2016-12-20T09:48:17Z</time>
      </trkpt>
      <trkpt lat="45.839" lon="6.21496">
        <ele>468.3</ele>
        <time>2016-12-20T09:48:24Z</time>
      </trkpt>
      <trkpt lat="45.83898" lon="6.21497">
        <ele>468.3</ele>
        <time>2016-12-20T09:48:25Z</time>
      </trkpt>
      <trkpt lat="45.83896" lon="6.21497">
        <ele>468.3</ele>
        <time>2016-12-20T09:48:26Z</time>
      </trkpt>
      <trkpt lat="45.83895" lon="6.21499">
        <ele>468.3</ele>
        <time>2016-12-20T09:48:27Z</time>
      </trkpt>
      <trkpt lat="45.83895" lon="6.215">
        <ele>468.3</ele>
        <time>2016-12-20T09:48:28Z</time>
      </trkpt>
      <trkpt lat="45.83896" lon="6.21501">
        <ele>468.3</ele>
        <time>2016-12-20T09:48:40Z</time>
      </trkpt>
      <trkpt lat="45.83894" lon="6.21503">
        <ele>468.3</ele>
        <time>2016-12-20T09:48:50Z</time>
      </trkpt>
      <trkpt lat="45.83892" lon="6.21503">
        <ele>468.3</ele>
        <time>2016-12-20T09:48:51Z</time>
      </trkpt>
      <trkpt lat="45.83888" lon="6.21504">
        <ele>467.82</ele>
        <time>2016-12-20T09:48:53Z</time>
      </trkpt>
      <trkpt lat="45.83886" lon="6.21506">
        <ele>467.82</ele>
        <time>2016-12-20T09:48:54Z</time>
      </trkpt>
      <trkpt lat="45.83883" lon="6.21507">
        <ele>467.82</ele>
        <time>2016-12-20T09:48:55Z</time>
      </trkpt>
      <trkpt lat="45.83879" lon="6.21509">
        <ele>467.82</ele>
        <time>2016-12-20T09:48:56Z</time>
      </trkpt>
      <trkpt lat="45.83876" lon="6.21511">
        <ele>467.34</ele>
        <time>2016-12-20T09:48:57Z</time>
      </trkpt>
      <trkpt lat="45.83844" lon="6.21525">
        <ele>465.42</ele>
        <time>2016-12-20T09:49:05Z</time>
      </trkpt>
      <trkpt lat="45.83829" lon="6.2153">
        <ele>464.45</ele>
        <time>2016-12-20T09:49:08Z</time>
      </trkpt>
      <trkpt lat="45.83823" lon="6.21531">
        <ele>463.97</ele>
        <time>2016-12-20T09:49:09Z</time>
      </trkpt>
      <trkpt lat="45.83818" lon="6.21534">
        <ele>463.49</ele>
        <time>2016-12-20T09:49:10Z</time>
      </trkpt>
      <trkpt lat="45.83812" lon="6.21537">
        <ele>463.01</ele>
        <time>2016-12-20T09:49:11Z</time>
      </trkpt>
      <trkpt lat="45.83806" lon="6.21541">
        <ele>462.53</ele>
        <time>2016-12-20T09:49:12Z</time>
      </trkpt>
      <trkpt lat="45.838" lon="6.21545">
        <ele>462.05</ele>
        <time>2016-12-20T09:49:13Z</time>
      </trkpt>
      <trkpt lat="45.83794" lon="6.21551">
        <ele>461.57</ele>
        <time>2016-12-20T09:49:14Z</time>
      </trkpt>
      <trkpt lat="45.83782" lon="6.21561">
        <ele>460.61</ele>
        <time>2016-12-20T09:49:16Z</time>
      </trkpt>
      <trkpt lat="45.83776" lon="6.21567">
        <ele>459.65</ele>
        <time>2016-12-20T09:49:17Z</time>
      </trkpt>
      <trkpt lat="45.8377" lon="6.21574">
        <ele>459.65</ele>
        <time>2016-12-20T09:49:18Z</time>
      </trkpt>
      <trkpt lat="45.83739" lon="6.21614">
        <ele>455.8</ele>
        <time>2016-12-20T09:49:23Z</time>
      </trkpt>
      <trkpt lat="45.83712" lon="6.2165">
        <ele>451.96</ele>
        <time>2016-12-20T09:49:27Z</time>
      </trkpt>
      <trkpt lat="45.83694" lon="6.21673">
        <ele>451.96</ele>
        <time>2016-12-20T09:49:30Z</time>
      </trkpt>
      <trkpt lat="45.8369" lon="6.21679">
        <ele>452.92</ele>
        <time>2016-12-20T09:49:31Z</time>
      </trkpt>
      <trkpt lat="45.83686" lon="6.21685">
        <ele>453.4</ele>
        <time>2016-12-20T09:49:32Z</time>
      </trkpt>
      <trkpt lat="45.83683" lon="6.2169">
        <ele>453.4</ele>
        <time>2016-12-20T09:49:33Z</time>
      </trkpt>
      <trkpt lat="45.83679" lon="6.21692">
        <ele>453.4</ele>
        <time>2016-12-20T09:49:34Z</time>
      </trkpt>
      <trkpt lat="45.83674" lon="6.21694">
        <ele>453.4</ele>
        <time>2016-12-20T09:49:35Z</time>
      </trkpt>
      <trkpt lat="45.83669" lon="6.21695">
        <ele>452.92</ele>
        <time>2016-12-20T09:49:36Z</time>
      </trkpt>
      <trkpt lat="45.83639" lon="6.21699">
        <ele>450.03</ele>
        <time>2016-12-20T09:49:41Z</time>
      </trkpt>
      <trkpt lat="45.83576" lon="6.217">
        <ele>449.55</ele>
        <time>2016-12-20T09:49:55Z</time>
      </trkpt>
      <trkpt lat="45.83522" lon="6.217">
        <ele>449.55</ele>
        <time>2016-12-20T09:50:09Z</time>
      </trkpt>
      <trkpt lat="45.83484" lon="6.21703">
        <ele>450.03</ele>
        <time>2016-12-20T09:50:17Z</time>
      </trkpt>
      <trkpt lat="45.83479" lon="6.21704">
        <ele>449.55</ele>
        <time>2016-12-20T09:50:18Z</time>
      </trkpt>
      <trkpt lat="45.83424" lon="6.21716">
        <ele>450.03</ele>
        <time>2016-12-20T09:50:30Z</time>
      </trkpt>
      <trkpt lat="45.83371" lon="6.21732">
        <ele>450.52</ele>
        <time>2016-12-20T09:50:42Z</time>
      </trkpt>
      <trkpt lat="45.83344" lon="6.21753">
        <ele>451</ele>
        <time>2016-12-20T09:50:49Z</time>
      </trkpt>
      <trkpt lat="45.83337" lon="6.21762">
        <ele>451</ele>
        <time>2016-12-20T09:50:51Z</time>
      </trkpt>
      <trkpt lat="45.83314" lon="6.21798">
        <ele>450.52</ele>
        <time>2016-12-20T09:50:58Z</time>
      </trkpt>
      <trkpt lat="45.83258" lon="6.21908">
        <ele>449.07</ele>
        <time>2016-12-20T09:51:15Z</time>
      </trkpt>
      <trkpt lat="45.832" lon="6.21971">
        <ele>449.55</ele>
        <time>2016-12-20T09:51:28Z</time>
      </trkpt>
      <trkpt lat="45.83181" lon="6.21985">
        <ele>449.55</ele>
        <time>2016-12-20T09:51:32Z</time>
      </trkpt>
      <trkpt lat="45.83094" lon="6.22024">
        <ele>450.03</ele>
        <time>2016-12-20T09:51:50Z</time>
      </trkpt>
      <trkpt lat="45.83024" lon="6.22053">
        <ele>452.92</ele>
        <time>2016-12-20T09:52:07Z</time>
      </trkpt>
      <trkpt lat="45.82971" lon="6.22071">
        <ele>454.36</ele>
        <time>2016-12-20T09:52:21Z</time>
      </trkpt>
      <trkpt lat="45.82918" lon="6.22087">
        <ele>455.32</ele>
        <time>2016-12-20T09:52:35Z</time>
      </trkpt>
      <trkpt lat="45.82883" lon="6.22092">
        <ele>455.8</ele>
        <time>2016-12-20T09:52:44Z</time>
      </trkpt>
      <trkpt lat="45.82871" lon="6.22096">
        <ele>456.28</ele>
        <time>2016-12-20T09:52:47Z</time>
      </trkpt>
      <trkpt lat="45.82821" lon="6.22102">
        <ele>456.76</ele>
        <time>2016-12-20T09:52:59Z</time>
      </trkpt>
      <trkpt lat="45.82817" lon="6.22103">
        <ele>456.76</ele>
        <time>2016-12-20T09:53:00Z</time>
      </trkpt>
      <trkpt lat="45.82738" lon="6.22115">
        <ele>456.76</ele>
        <time>2016-12-20T09:53:17Z</time>
      </trkpt>
      <trkpt lat="45.82654" lon="6.22157">
        <ele>456.76</ele>
        <time>2016-12-20T09:53:35Z</time>
      </trkpt>
      <trkpt lat="45.82621" lon="6.2219">
        <ele>456.76</ele>
        <time>2016-12-20T09:53:43Z</time>
      </trkpt>
      <trkpt lat="45.82617" lon="6.22195">
        <ele>456.28</ele>
        <time>2016-12-20T09:53:44Z</time>
      </trkpt>
      <trkpt lat="45.82588" lon="6.22226">
        <ele>456.76</ele>
        <time>2016-12-20T09:53:51Z</time>
      </trkpt>
      <trkpt lat="45.82582" lon="6.22237">
        <ele>456.28</ele>
        <time>2016-12-20T09:53:53Z</time>
      </trkpt>
      <trkpt lat="45.82579" lon="6.22243">
        <ele>456.28</ele>
        <time>2016-12-20T09:53:54Z</time>
      </trkpt>
      <trkpt lat="45.82576" lon="6.2225">
        <ele>456.28</ele>
        <time>2016-12-20T09:53:55Z</time>
      </trkpt>
      <trkpt lat="45.82573" lon="6.22256">
        <ele>456.76</ele>
        <time>2016-12-20T09:53:56Z</time>
      </trkpt>
      <trkpt lat="45.82569" lon="6.22261">
        <ele>456.76</ele>
        <time>2016-12-20T09:53:57Z</time>
      </trkpt>
      <trkpt lat="45.82531" lon="6.22327">
        <ele>456.28</ele>
        <time>2016-12-20T09:54:08Z</time>
      </trkpt>
      <trkpt lat="45.82527" lon="6.22332">
        <ele>456.28</ele>
        <time>2016-12-20T09:54:09Z</time>
      </trkpt>
      <trkpt lat="45.82524" lon="6.22337">
        <ele>455.8</ele>
        <time>2016-12-20T09:54:10Z</time>
      </trkpt>
      <trkpt lat="45.82521" lon="6.22342">
        <ele>455.8</ele>
        <time>2016-12-20T09:54:11Z</time>
      </trkpt>
      <trkpt lat="45.82518" lon="6.22348">
        <ele>455.8</ele>
        <time>2016-12-20T09:54:12Z</time>
      </trkpt>
      <trkpt lat="45.82515" lon="6.22354">
        <ele>455.8</ele>
        <time>2016-12-20T09:54:13Z</time>
      </trkpt>
      <trkpt lat="45.82509" lon="6.22366">
        <ele>455.32</ele>
        <time>2016-12-20T09:54:15Z</time>
      </trkpt>
      <trkpt lat="45.82503" lon="6.22376">
        <ele>455.32</ele>
        <time>2016-12-20T09:54:17Z</time>
      </trkpt>
      <trkpt lat="45.82474" lon="6.2243">
        <ele>454.84</ele>
        <time>2016-12-20T09:54:27Z</time>
      </trkpt>
      <trkpt lat="45.8247" lon="6.22436">
        <ele>454.36</ele>
        <time>2016-12-20T09:54:28Z</time>
      </trkpt>
      <trkpt lat="45.82406" lon="6.22548">
        <ele>453.4</ele>
        <time>2016-12-20T09:54:45Z</time>
      </trkpt>
      <trkpt lat="45.82358" lon="6.2263">
        <ele>452.44</ele>
        <time>2016-12-20T09:54:59Z</time>
      </trkpt>
      <trkpt lat="45.82344" lon="6.22655">
        <ele>451.96</ele>
        <time>2016-12-20T09:55:03Z</time>
      </trkpt>
      <trkpt lat="45.82274" lon="6.227">
        <ele>449.55</ele>
        <time>2016-12-20T09:55:16Z</time>
      </trkpt>
      <trkpt lat="45.82252" lon="6.22704">
        <ele>448.11</ele>
        <time>2016-12-20T09:55:19Z</time>
      </trkpt>
      <trkpt lat="45.82231" lon="6.22705">
        <ele>449.07</ele>
        <time>2016-12-20T09:55:22Z</time>
      </trkpt>
      <trkpt lat="45.82224" lon="6.22704">
        <ele>449.07</ele>
        <time>2016-12-20T09:55:23Z</time>
      </trkpt>
      <trkpt lat="45.82218" lon="6.22701">
        <ele>449.07</ele>
        <time>2016-12-20T09:55:24Z</time>
      </trkpt>
      <trkpt lat="45.82211" lon="6.22697">
        <ele>449.55</ele>
        <time>2016-12-20T09:55:25Z</time>
      </trkpt>
      <trkpt lat="45.82205" lon="6.22693">
        <ele>449.07</ele>
        <time>2016-12-20T09:55:26Z</time>
      </trkpt>
      <trkpt lat="45.82174" lon="6.22673">
        <ele>449.07</ele>
        <time>2016-12-20T09:55:31Z</time>
      </trkpt>
      <trkpt lat="45.82168" lon="6.22671">
        <ele>449.07</ele>
        <time>2016-12-20T09:55:32Z</time>
      </trkpt>
      <trkpt lat="45.82161" lon="6.2267">
        <ele>449.07</ele>
        <time>2016-12-20T09:55:33Z</time>
      </trkpt>
      <trkpt lat="45.82155" lon="6.22671">
        <ele>449.07</ele>
        <time>2016-12-20T09:55:34Z</time>
      </trkpt>
      <trkpt lat="45.82148" lon="6.22673">
        <ele>449.07</ele>
        <time>2016-12-20T09:55:35Z</time>
      </trkpt>
      <trkpt lat="45.82143" lon="6.22677">
        <ele>449.07</ele>
        <time>2016-12-20T09:55:36Z</time>
      </trkpt>
      <trkpt lat="45.82137" lon="6.22682">
        <ele>449.07</ele>
        <time>2016-12-20T09:55:37Z</time>
      </trkpt>
      <trkpt lat="45.82132" lon="6.22687">
        <ele>449.07</ele>
        <time>2016-12-20T09:55:38Z</time>
      </trkpt>
      <trkpt lat="45.82083" lon="6.22724">
        <ele>448.59</ele>
        <time>2016-12-20T09:55:47Z</time>
      </trkpt>
      <trkpt lat="45.82078" lon="6.2273">
        <ele>449.07</ele>
        <time>2016-12-20T09:55:48Z</time>
      </trkpt>
      <trkpt lat="45.82074" lon="6.22736">
        <ele>449.07</ele>
        <time>2016-12-20T09:55:49Z</time>
      </trkpt>
      <trkpt lat="45.82013" lon="6.22815">
        <ele>448.59</ele>
        <time>2016-12-20T09:56:03Z</time>
      </trkpt>
      <trkpt lat="45.81999" lon="6.22828">
        <ele>448.59</ele>
        <time>2016-12-20T09:56:06Z</time>
      </trkpt>
      <trkpt lat="45.81915" lon="6.22874">
        <ele>448.59</ele>
        <time>2016-12-20T09:56:22Z</time>
      </trkpt>
      <trkpt lat="45.81821" lon="6.22906">
        <ele>448.11</ele>
        <time>2016-12-20T09:56:40Z</time>
      </trkpt>
      <trkpt lat="45.81801" lon="6.22919">
        <ele>449.07</ele>
        <time>2016-12-20T09:56:44Z</time>
      </trkpt>
      <trkpt lat="45.81796" lon="6.22921">
        <ele>448.59</ele>
        <time>2016-12-20T09:56:45Z</time>
      </trkpt>
      <trkpt lat="45.81791" lon="6.22922">
        <ele>449.55</ele>
        <time>2016-12-20T09:56:46Z</time>
      </trkpt>
      <trkpt lat="45.81785" lon="6.22923">
        <ele>448.59</ele>
        <time>2016-12-20T09:56:47Z</time>
      </trkpt>
      <trkpt lat="45.8178" lon="6.22923">
        <ele>449.07</ele>
        <time>2016-12-20T09:56:48Z</time>
      </trkpt>
      <trkpt lat="45.81774" lon="6.22922">
        <ele>449.07</ele>
        <time>2016-12-20T09:56:49Z</time>
      </trkpt>
      <trkpt lat="45.81769" lon="6.22921">
        <ele>449.07</ele>
        <time>2016-12-20T09:56:50Z</time>
      </trkpt>
      <trkpt lat="45.81749" lon="6.22918">
        <ele>449.07</ele>
        <time>2016-12-20T09:56:54Z</time>
      </trkpt>
      <trkpt lat="45.81731" lon="6.22912">
        <ele>450.03</ele>
        <time>2016-12-20T09:56:58Z</time>
      </trkpt>
      <trkpt lat="45.81722" lon="6.22908">
        <ele>450.03</ele>
        <time>2016-12-20T09:57:00Z</time>
      </trkpt>
      <trkpt lat="45.81674" lon="6.22906">
        <ele>448.59</ele>
        <time>2016-12-20T09:57:09Z</time>
      </trkpt>
      <trkpt lat="45.81655" lon="6.22905">
        <ele>449.55</ele>
        <time>2016-12-20T09:57:13Z</time>
      </trkpt>
      <trkpt lat="45.81644" lon="6.22904">
        <ele>449.55</ele>
        <time>2016-12-20T09:57:16Z</time>
      </trkpt>
      <trkpt lat="45.8164" lon="6.22904">
        <ele>449.55</ele>
        <time>2016-12-20T09:57:17Z</time>
      </trkpt>
      <trkpt lat="45.81635" lon="6.22903">
        <ele>449.55</ele>
        <time>2016-12-20T09:57:18Z</time>
      </trkpt>
      <trkpt lat="45.81591" lon="6.22909">
        <ele>451</ele>
        <time>2016-12-20T09:57:30Z</time>
      </trkpt>
      <trkpt lat="45.8159" lon="6.22911">
        <ele>451</ele>
        <time>2016-12-20T09:57:31Z</time>
      </trkpt>
      <trkpt lat="45.81589" lon="6.22913">
        <ele>451</ele>
        <time>2016-12-20T09:57:32Z</time>
      </trkpt>
      <trkpt lat="45.81588" lon="6.22914">
        <ele>451.48</ele>
        <time>2016-12-20T09:57:33Z</time>
      </trkpt>
      <trkpt lat="45.81587" lon="6.22919">
        <ele>451</ele>
        <time>2016-12-20T09:57:37Z</time>
      </trkpt>
      <trkpt lat="45.81558" lon="6.22944">
        <ele>449.55</ele>
        <time>2016-12-20T09:57:46Z</time>
      </trkpt>
      <trkpt lat="45.81534" lon="6.22966">
        <ele>449.07</ele>
        <time>2016-12-20T09:57:51Z</time>
      </trkpt>
      <trkpt lat="45.81505" lon="6.22981">
        <ele>449.07</ele>
        <time>2016-12-20T09:57:56Z</time>
      </trkpt>
      <trkpt lat="45.81471" lon="6.22998">
        <ele>448.59</ele>
        <time>2016-12-20T09:58:02Z</time>
      </trkpt>
      <trkpt lat="45.81447" lon="6.23017">
        <ele>449.07</ele>
        <time>2016-12-20T09:58:07Z</time>
      </trkpt>
      <trkpt lat="45.81397" lon="6.23063">
        <ele>450.03</ele>
        <time>2016-12-20T09:58:18Z</time>
      </trkpt>
      <trkpt lat="45.81388" lon="6.23068">
        <ele>450.03</ele>
        <time>2016-12-20T09:58:20Z</time>
      </trkpt>
      <trkpt lat="45.81378" lon="6.23072">
        <ele>450.52</ele>
        <time>2016-12-20T09:58:22Z</time>
      </trkpt>
      <trkpt lat="45.81374" lon="6.23073">
        <ele>450.52</ele>
        <time>2016-12-20T09:58:23Z</time>
      </trkpt>
      <trkpt lat="45.81369" lon="6.23072">
        <ele>451</ele>
        <time>2016-12-20T09:58:24Z</time>
      </trkpt>
      <trkpt lat="45.81364" lon="6.23071">
        <ele>451</ele>
        <time>2016-12-20T09:58:25Z</time>
      </trkpt>
      <trkpt lat="45.8136" lon="6.2307">
        <ele>451.48</ele>
        <time>2016-12-20T09:58:26Z</time>
      </trkpt>
      <trkpt lat="45.81341" lon="6.23063">
        <ele>451.48</ele>
        <time>2016-12-20T09:58:30Z</time>
      </trkpt>
      <trkpt lat="45.81323" lon="6.2306">
        <ele>452.44</ele>
        <time>2016-12-20T09:58:34Z</time>
      </trkpt>
      <trkpt lat="45.81243" lon="6.23073">
        <ele>452.44</ele>
        <time>2016-12-20T09:58:50Z</time>
      </trkpt>
      <trkpt lat="45.81166" lon="6.23109">
        <ele>451.48</ele>
        <time>2016-12-20T09:59:04Z</time>
      </trkpt>
      <trkpt lat="45.81078" lon="6.23127">
        <ele>451</ele>
        <time>2016-12-20T09:59:19Z</time>
      </trkpt>
      <trkpt lat="45.81073" lon="6.23127">
        <ele>451</ele>
        <time>2016-12-20T09:59:20Z</time>
      </trkpt>
      <trkpt lat="45.80975" lon="6.23159">
        <ele>450.52</ele>
        <time>2016-12-20T09:59:37Z</time>
      </trkpt>
      <trkpt lat="45.80899" lon="6.23162">
        <ele>451.96</ele>
        <time>2016-12-20T09:59:51Z</time>
      </trkpt>
      <trkpt lat="45.80881" lon="6.23163">
        <ele>451.96</ele>
        <time>2016-12-20T09:59:55Z</time>
      </trkpt>
      <trkpt lat="45.80863" lon="6.23166">
        <ele>451.96</ele>
        <time>2016-12-20T09:59:59Z</time>
      </trkpt>
      <trkpt lat="45.80859" lon="6.23168">
        <ele>451.96</ele>
        <time>2016-12-20T10:00:00Z</time>
      </trkpt>
      <trkpt lat="45.80814" lon="6.23198">
        <ele>451</ele>
        <time>2016-12-20T10:00:10Z</time>
      </trkpt>
      <trkpt lat="45.8081" lon="6.23199">
        <ele>451</ele>
        <time>2016-12-20T10:00:11Z</time>
      </trkpt>
      <trkpt lat="45.80805" lon="6.232">
        <ele>451</ele>
        <time>2016-12-20T10:00:12Z</time>
      </trkpt>
      <trkpt lat="45.80767" lon="6.23203">
        <ele>451.96</ele>
        <time>2016-12-20T10:00:19Z</time>
      </trkpt>
      <trkpt lat="45.80722" lon="6.23215">
        <ele>451.48</ele>
        <time>2016-12-20T10:00:27Z</time>
      </trkpt>
      <trkpt lat="45.80716" lon="6.23215">
        <ele>451.48</ele>
        <time>2016-12-20T10:00:28Z</time>
      </trkpt>
      <trkpt lat="45.8071" lon="6.23213">
        <ele>451.48</ele>
        <time>2016-12-20T10:00:29Z</time>
      </trkpt>
      <trkpt lat="45.80659" lon="6.23207">
        <ele>451.96</ele>
        <time>2016-12-20T10:00:38Z</time>
      </trkpt>
      <trkpt lat="45.80654" lon="6.23208">
        <ele>451.96</ele>
        <time>2016-12-20T10:00:39Z</time>
      </trkpt>
      <trkpt lat="45.806" lon="6.23226">
        <ele>451.96</ele>
        <time>2016-12-20T10:00:49Z</time>
      </trkpt>
      <trkpt lat="45.80595" lon="6.23226">
        <ele>451.96</ele>
        <time>2016-12-20T10:00:50Z</time>
      </trkpt>
      <trkpt lat="45.80589" lon="6.23224">
        <ele>451.96</ele>
        <time>2016-12-20T10:00:51Z</time>
      </trkpt>
      <trkpt lat="45.80584" lon="6.23222">
        <ele>451.96</ele>
        <time>2016-12-20T10:00:52Z</time>
      </trkpt>
      <trkpt lat="45.80579" lon="6.23219">
        <ele>451.96</ele>
        <time>2016-12-20T10:00:53Z</time>
      </trkpt>
      <trkpt lat="45.80574" lon="6.23215">
        <ele>452.44</ele>
        <time>2016-12-20T10:00:54Z</time>
      </trkpt>
      <trkpt lat="45.80569" lon="6.2321">
        <ele>452.44</ele>
        <time>2016-12-20T10:00:55Z</time>
      </trkpt>
      <trkpt lat="45.80565" lon="6.23205">
        <ele>452.44</ele>
        <time>2016-12-20T10:00:56Z</time>
      </trkpt>
      <trkpt lat="45.80494" lon="6.2317">
        <ele>451.96</ele>
        <time>2016-12-20T10:01:09Z</time>
      </trkpt>
      <trkpt lat="45.80473" lon="6.23159">
        <ele>451.96</ele>
        <time>2016-12-20T10:01:13Z</time>
      </trkpt>
      <trkpt lat="45.80378" lon="6.23074">
        <ele>451.96</ele>
        <time>2016-12-20T10:01:33Z</time>
      </trkpt>
      <trkpt lat="45.80298" lon="6.23008">
        <ele>451.96</ele>
        <time>2016-12-20T10:01:51Z</time>
      </trkpt>
      <trkpt lat="45.80271" lon="6.22991">
        <ele>451.48</ele>
        <time>2016-12-20T10:01:57Z</time>
      </trkpt>
      <trkpt lat="45.80266" lon="6.22988">
        <ele>451.48</ele>
        <time>2016-12-20T10:01:58Z</time>
      </trkpt>
      <trkpt lat="45.80262" lon="6.22986">
        <ele>451.48</ele>
        <time>2016-12-20T10:01:59Z</time>
      </trkpt>
      <trkpt lat="45.80229" lon="6.22965">
        <ele>451.96</ele>
        <time>2016-12-20T10:02:07Z</time>
      </trkpt>
      <trkpt lat="45.80196" lon="6.22949">
        <ele>451.96</ele>
        <time>2016-12-20T10:02:15Z</time>
      </trkpt>
      <trkpt lat="45.80192" lon="6.22947">
        <ele>452.44</ele>
        <time>2016-12-20T10:02:16Z</time>
      </trkpt>
      <trkpt lat="45.80185" lon="6.22942">
        <ele>451.96</ele>
        <time>2016-12-20T10:02:18Z</time>
      </trkpt>
      <trkpt lat="45.80141" lon="6.22917">
        <ele>451.96</ele>
        <time>2016-12-20T10:02:29Z</time>
      </trkpt>
      <trkpt lat="45.80077" lon="6.22911">
        <ele>451.48</ele>
        <time>2016-12-20T10:02:43Z</time>
      </trkpt>
      <trkpt lat="45.80026" lon="6.22917">
        <ele>451</ele>
        <time>2016-12-20T10:02:53Z</time>
      </trkpt>
      <trkpt lat="45.80016" lon="6.22921">
        <ele>451</ele>
        <time>2016-12-20T10:02:55Z</time>
      </trkpt>
      <trkpt lat="45.80011" lon="6.22924">
        <ele>451</ele>
        <time>2016-12-20T10:02:56Z</time>
      </trkpt>
      <trkpt lat="45.79981" lon="6.22951">
        <ele>450.52</ele>
        <time>2016-12-20T10:03:03Z</time>
      </trkpt>
      <trkpt lat="45.79914" lon="6.23035">
        <ele>451</ele>
        <time>2016-12-20T10:03:20Z</time>
      </trkpt>
      <trkpt lat="45.79845" lon="6.23117">
        <ele>450.03</ele>
        <time>2016-12-20T10:03:37Z</time>
      </trkpt>
      <trkpt lat="45.79776" lon="6.23143">
        <ele>450.52</ele>
        <time>2016-12-20T10:03:52Z</time>
      </trkpt>
      <trkpt lat="45.79717" lon="6.23155">
        <ele>451</ele>
        <time>2016-12-20T10:04:06Z</time>
      </trkpt>
      <trkpt lat="45.79713" lon="6.23156">
        <ele>451</ele>
        <time>2016-12-20T10:04:07Z</time>
      </trkpt>
      <trkpt lat="45.79708" lon="6.23157">
        <ele>451</ele>
        <time>2016-12-20T10:04:08Z</time>
      </trkpt>
      <trkpt lat="45.79664" lon="6.23165">
        <ele>451</ele>
        <time>2016-12-20T10:04:18Z</time>
      </trkpt>
      <trkpt lat="45.79587" lon="6.23179">
        <ele>451</ele>
        <time>2016-12-20T10:04:35Z</time>
      </trkpt>
      <trkpt lat="45.7951" lon="6.23193">
        <ele>451</ele>
        <time>2016-12-20T10:04:52Z</time>
      </trkpt>
      <trkpt lat="45.79431" lon="6.23209">
        <ele>451.48</ele>
        <time>2016-12-20T10:05:10Z</time>
      </trkpt>
      <trkpt lat="45.79356" lon="6.23224">
        <ele>451.96</ele>
        <time>2016-12-20T10:05:27Z</time>
      </trkpt>
      <trkpt lat="45.79279" lon="6.23224">
        <ele>452.44</ele>
        <time>2016-12-20T10:05:44Z</time>
      </trkpt>
      <trkpt lat="45.79244" lon="6.23204">
        <ele>452.92</ele>
        <time>2016-12-20T10:05:53Z</time>
      </trkpt>
      <trkpt lat="45.7924" lon="6.23201">
        <ele>452.92</ele>
        <time>2016-12-20T10:05:54Z</time>
      </trkpt>
      <trkpt lat="45.79236" lon="6.23198">
        <ele>452.44</ele>
        <time>2016-12-20T10:05:55Z</time>
      </trkpt>
      <trkpt lat="45.79233" lon="6.23195">
        <ele>452.92</ele>
        <time>2016-12-20T10:05:56Z</time>
      </trkpt>
      <trkpt lat="45.7923" lon="6.23192">
        <ele>452.92</ele>
        <time>2016-12-20T10:05:57Z</time>
      </trkpt>
      <trkpt lat="45.79228" lon="6.23189">
        <ele>452.92</ele>
        <time>2016-12-20T10:05:58Z</time>
      </trkpt>
      <trkpt lat="45.79225" lon="6.23187">
        <ele>453.4</ele>
        <time>2016-12-20T10:05:59Z</time>
      </trkpt>
      <trkpt lat="45.79214" lon="6.23176">
        <ele>453.88</ele>
        <time>2016-12-20T10:06:05Z</time>
      </trkpt>
      <trkpt lat="45.79213" lon="6.23174">
        <ele>453.88</ele>
        <time>2016-12-20T10:06:06Z</time>
      </trkpt>
      <trkpt lat="45.7918" lon="6.23153">
        <ele>453.88</ele>
        <time>2016-12-20T10:06:20Z</time>
      </trkpt>
      <trkpt lat="45.79125" lon="6.23153">
        <ele>454.36</ele>
        <time>2016-12-20T10:06:36Z</time>
      </trkpt>
      <trkpt lat="45.79063" lon="6.2316">
        <ele>455.32</ele>
        <time>2016-12-20T10:06:53Z</time>
      </trkpt>
      <trkpt lat="45.7901" lon="6.2317">
        <ele>456.28</ele>
        <time>2016-12-20T10:07:08Z</time>
      </trkpt>
      <trkpt lat="45.78958" lon="6.23178">
        <ele>456.76</ele>
        <time>2016-12-20T10:07:22Z</time>
      </trkpt>
      <trkpt lat="45.78921" lon="6.23173">
        <ele>456.76</ele>
        <time>2016-12-20T10:07:32Z</time>
      </trkpt>
      <trkpt lat="45.78877" lon="6.2316">
        <ele>456.28</ele>
        <time>2016-12-20T10:07:43Z</time>
      </trkpt>
      <trkpt lat="45.78795" lon="6.23131">
        <ele>455.8</ele>
        <time>2016-12-20T10:08:01Z</time>
      </trkpt>
      <trkpt lat="45.78721" lon="6.23107">
        <ele>456.28</ele>
        <time>2016-12-20T10:08:18Z</time>
      </trkpt>
      <trkpt lat="45.78716" lon="6.23105">
        <ele>456.28</ele>
        <time>2016-12-20T10:08:19Z</time>
      </trkpt>
      <trkpt lat="45.78708" lon="6.23103">
        <ele>455.8</ele>
        <time>2016-12-20T10:08:21Z</time>
      </trkpt>
      <trkpt lat="45.78704" lon="6.23102">
        <ele>456.28</ele>
        <time>2016-12-20T10:08:22Z</time>
      </trkpt>
      <trkpt lat="45.78687" lon="6.23097">
        <ele>456.28</ele>
        <time>2016-12-20T10:08:26Z</time>
      </trkpt>
      <trkpt lat="45.78624" lon="6.23075">
        <ele>457.72</ele>
        <time>2016-12-20T10:08:41Z</time>
      </trkpt>
      <trkpt lat="45.78603" lon="6.23067">
        <ele>458.21</ele>
        <time>2016-12-20T10:08:46Z</time>
      </trkpt>
      <trkpt lat="45.78594" lon="6.23065">
        <ele>458.21</ele>
        <time>2016-12-20T10:08:48Z</time>
      </trkpt>
      <trkpt lat="45.78526" lon="6.23054">
        <ele>460.13</ele>
        <time>2016-12-20T10:09:06Z</time>
      </trkpt>
      <trkpt lat="45.78479" lon="6.23062">
        <ele>461.09</ele>
        <time>2016-12-20T10:09:19Z</time>
      </trkpt>
      <trkpt lat="45.78439" lon="6.23053">
        <ele>462.05</ele>
        <time>2016-12-20T10:09:31Z</time>
      </trkpt>
      <trkpt lat="45.78438" lon="6.23043">
        <ele>462.05</ele>
        <time>2016-12-20T10:09:33Z</time>
      </trkpt>
      <trkpt lat="45.78439" lon="6.23039">
        <ele>462.05</ele>
        <time>2016-12-20T10:09:34Z</time>
      </trkpt>
      <trkpt lat="45.78439" lon="6.23034">
        <ele>462.05</ele>
        <time>2016-12-20T10:09:35Z</time>
      </trkpt>
      <trkpt lat="45.78438" lon="6.2303">
        <ele>462.53</ele>
        <time>2016-12-20T10:09:36Z</time>
      </trkpt>
      <trkpt lat="45.78437" lon="6.23026">
        <ele>462.53</ele>
        <time>2016-12-20T10:09:37Z</time>
      </trkpt>
      <trkpt lat="45.78436" lon="6.23022">
        <ele>462.53</ele>
        <time>2016-12-20T10:09:38Z</time>
      </trkpt>
      <trkpt lat="45.78436" lon="6.23018">
        <ele>462.53</ele>
        <time>2016-12-20T10:09:39Z</time>
      </trkpt>
      <trkpt lat="45.78425" lon="6.2297">
        <ele>463.49</ele>
        <time>2016-12-20T10:09:53Z</time>
      </trkpt>
      <trkpt lat="45.7842" lon="6.2293">
        <ele>463.49</ele>
        <time>2016-12-20T10:10:05Z</time>
      </trkpt>
      <trkpt lat="45.78408" lon="6.22865">
        <ele>463.97</ele>
        <time>2016-12-20T10:10:19Z</time>
      </trkpt>
      <trkpt lat="45.7837" lon="6.22837">
        <ele>464.45</ele>
        <time>2016-12-20T10:10:31Z</time>
      </trkpt>
      <trkpt lat="45.78305" lon="6.22795">
        <ele>465.42</ele>
        <time>2016-12-20T10:10:49Z</time>
      </trkpt>
      <trkpt lat="45.78247" lon="6.22758">
        <ele>466.86</ele>
        <time>2016-12-20T10:11:05Z</time>
      </trkpt>
      <trkpt lat="45.78232" lon="6.22751">
        <ele>467.34</ele>
        <time>2016-12-20T10:11:10Z</time>
      </trkpt>
      <trkpt lat="45.78229" lon="6.22752">
        <ele>467.34</ele>
        <time>2016-12-20T10:11:11Z</time>
      </trkpt>
      <trkpt lat="45.7821" lon="6.22778">
        <ele>467.34</ele>
        <time>2016-12-20T10:11:18Z</time>
      </trkpt>
      <trkpt lat="45.78191" lon="6.22811">
        <ele>465.9</ele>
        <time>2016-12-20T10:11:24Z</time>
      </trkpt>
      <trkpt lat="45.78189" lon="6.22817">
        <ele>465.42</ele>
        <time>2016-12-20T10:11:25Z</time>
      </trkpt>
      <trkpt lat="45.78185" lon="6.22823">
        <ele>464.93</ele>
        <time>2016-12-20T10:11:26Z</time>
      </trkpt>
      <trkpt lat="45.7818" lon="6.22827">
        <ele>464.93</ele>
        <time>2016-12-20T10:11:27Z</time>
      </trkpt>
      <trkpt lat="45.78175" lon="6.22828">
        <ele>464.45</ele>
        <time>2016-12-20T10:11:28Z</time>
      </trkpt>
      <trkpt lat="45.7817" lon="6.22825">
        <ele>464.45</ele>
        <time>2016-12-20T10:11:29Z</time>
      </trkpt>
      <trkpt lat="45.78166" lon="6.22821">
        <ele>464.45</ele>
        <time>2016-12-20T10:11:30Z</time>
      </trkpt>
      <trkpt lat="45.78161" lon="6.22816">
        <ele>464.93</ele>
        <time>2016-12-20T10:11:31Z</time>
      </trkpt>
      <trkpt lat="45.78158" lon="6.22812">
        <ele>464.93</ele>
        <time>2016-12-20T10:11:32Z</time>
      </trkpt>
      <trkpt lat="45.78156" lon="6.22806">
        <ele>464.93</ele>
        <time>2016-12-20T10:11:33Z</time>
      </trkpt>
      <trkpt lat="45.78154" lon="6.228">
        <ele>464.93</ele>
        <time>2016-12-20T10:11:34Z</time>
      </trkpt>
      <trkpt lat="45.7815" lon="6.22796">
        <ele>464.93</ele>
        <time>2016-12-20T10:11:35Z</time>
      </trkpt>
      <trkpt lat="45.78147" lon="6.22792">
        <ele>465.42</ele>
        <time>2016-12-20T10:11:36Z</time>
      </trkpt>
      <trkpt lat="45.78143" lon="6.2279">
        <ele>465.9</ele>
        <time>2016-12-20T10:11:37Z</time>
      </trkpt>
      <trkpt lat="45.7814" lon="6.22789">
        <ele>466.38</ele>
        <time>2016-12-20T10:11:38Z</time>
      </trkpt>
      <trkpt lat="45.78136" lon="6.22789">
        <ele>466.86</ele>
        <time>2016-12-20T10:11:39Z</time>
      </trkpt>
      <trkpt lat="45.78132" lon="6.2279">
        <ele>467.34</ele>
        <time>2016-12-20T10:11:40Z</time>
      </trkpt>
      <trkpt lat="45.78129" lon="6.22791">
        <ele>467.82</ele>
        <time>2016-12-20T10:11:41Z</time>
      </trkpt>
      <trkpt lat="45.78105" lon="6.22808">
        <ele>470.22</ele>
        <time>2016-12-20T10:11:50Z</time>
      </trkpt>
      <trkpt lat="45.78103" lon="6.22806">
        <ele>470.22</ele>
        <time>2016-12-20T10:11:51Z</time>
      </trkpt>
      <trkpt lat="45.78102" lon="6.22803">
        <ele>470.22</ele>
        <time>2016-12-20T10:11:52Z</time>
      </trkpt>
      <trkpt lat="45.78104" lon="6.22796">
        <ele>470.7</ele>
        <time>2016-12-20T10:11:54Z</time>
      </trkpt>
      <trkpt lat="45.78106" lon="6.22793">
        <ele>470.7</ele>
        <time>2016-12-20T10:11:55Z</time>
      </trkpt>
      <trkpt lat="45.78137" lon="6.22756">
        <ele>470.22</ele>
        <time>2016-12-20T10:12:08Z</time>
      </trkpt>
      <trkpt lat="45.78165" lon="6.2272">
        <ele>469.74</ele>
        <time>2016-12-20T10:12:17Z</time>
      </trkpt>
      <trkpt lat="45.78168" lon="6.22716">
        <ele>470.22</ele>
        <time>2016-12-20T10:12:18Z</time>
      </trkpt>
      <trkpt lat="45.78217" lon="6.22652">
        <ele>470.22</ele>
        <time>2016-12-20T10:12:33Z</time>
      </trkpt>
      <trkpt lat="45.78278" lon="6.22573">
        <ele>469.74</ele>
        <time>2016-12-20T10:12:51Z</time>
      </trkpt>
      <trkpt lat="45.78312" lon="6.2253">
        <ele>469.74</ele>
        <time>2016-12-20T10:13:01Z</time>
      </trkpt>
      <trkpt lat="45.78315" lon="6.22525">
        <ele>469.74</ele>
        <time>2016-12-20T10:13:02Z</time>
      </trkpt>
      <trkpt lat="45.78319" lon="6.22521">
        <ele>470.22</ele>
        <time>2016-12-20T10:13:03Z</time>
      </trkpt>
      <trkpt lat="45.78363" lon="6.22459">
        <ele>469.74</ele>
        <time>2016-12-20T10:13:17Z</time>
      </trkpt>
      <trkpt lat="45.7838" lon="6.22438">
        <ele>469.74</ele>
        <time>2016-12-20T10:13:23Z</time>
      </trkpt>
      <trkpt lat="45.78383" lon="6.22434">
        <ele>469.26</ele>
        <time>2016-12-20T10:13:24Z</time>
      </trkpt>
      <trkpt lat="45.78436" lon="6.22351">
        <ele>467.34</ele>
        <time>2016-12-20T10:13:39Z</time>
      </trkpt>
      <trkpt lat="45.78497" lon="6.22228">
        <ele>465.42</ele>
        <time>2016-12-20T10:13:54Z</time>
      </trkpt>
      <trkpt lat="45.78562" lon="6.2209">
        <ele>463.97</ele>
        <time>2016-12-20T10:14:10Z</time>
      </trkpt>
      <trkpt lat="45.78623" lon="6.21956">
        <ele>462.53</ele>
        <time>2016-12-20T10:14:27Z</time>
      </trkpt>
      <trkpt lat="45.78685" lon="6.21837">
        <ele>461.09</ele>
        <time>2016-12-20T10:14:43Z</time>
      </trkpt>
      <trkpt lat="45.78753" lon="6.21731">
        <ele>460.13</ele>
        <time>2016-12-20T10:14:59Z</time>
      </trkpt>
      <trkpt lat="45.78835" lon="6.21632">
        <ele>458.69</ele>
        <time>2016-12-20T10:15:16Z</time>
      </trkpt>
      <trkpt lat="45.78906" lon="6.21562">
        <ele>457.24</ele>
        <time>2016-12-20T10:15:30Z</time>
      </trkpt>
      <trkpt lat="45.78917" lon="6.21554">
        <ele>457.24</ele>
        <time>2016-12-20T10:15:32Z</time>
      </trkpt>
      <trkpt lat="45.78981" lon="6.21493">
        <ele>456.28</ele>
        <time>2016-12-20T10:15:44Z</time>
      </trkpt>
      <trkpt lat="45.78986" lon="6.21488">
        <ele>456.28</ele>
        <time>2016-12-20T10:15:45Z</time>
      </trkpt>
      <trkpt lat="45.7899" lon="6.21484">
        <ele>456.28</ele>
        <time>2016-12-20T10:15:46Z</time>
      </trkpt>
      <trkpt lat="45.78995" lon="6.21479">
        <ele>456.28</ele>
        <time>2016-12-20T10:15:47Z</time>
      </trkpt>
      <trkpt lat="45.79" lon="6.21475">
        <ele>456.28</ele>
        <time>2016-12-20T10:15:48Z</time>
      </trkpt>
      <trkpt lat="45.79036" lon="6.2144">
        <ele>455.8</ele>
        <time>2016-12-20T10:15:55Z</time>
      </trkpt>
      <trkpt lat="45.79056" lon="6.2142">
        <ele>455.32</ele>
        <time>2016-12-20T10:15:59Z</time>
      </trkpt>
      <trkpt lat="45.79126" lon="6.21353">
        <ele>455.32</ele>
        <time>2016-12-20T10:16:13Z</time>
      </trkpt>
      <trkpt lat="45.79138" lon="6.21342">
        <ele>455.8</ele>
        <time>2016-12-20T10:16:16Z</time>
      </trkpt>
      <trkpt lat="45.79146" lon="6.21337">
        <ele>456.76</ele>
        <time>2016-12-20T10:16:24Z</time>
      </trkpt>
      <trkpt lat="45.79147" lon="6.21336">
        <ele>456.76</ele>
        <time>2016-12-20T10:16:25Z</time>
      </trkpt>
      <trkpt lat="45.79148" lon="6.21334">
        <ele>456.76</ele>
        <time>2016-12-20T10:16:26Z</time>
      </trkpt>
      <trkpt lat="45.79171" lon="6.2131">
        <ele>455.8</ele>
        <time>2016-12-20T10:16:35Z</time>
      </trkpt>
      <trkpt lat="45.79199" lon="6.21286">
        <ele>456.28</ele>
        <time>2016-12-20T10:16:44Z</time>
      </trkpt>
      <trkpt lat="45.7921" lon="6.21279">
        <ele>457.24</ele>
        <time>2016-12-20T10:16:48Z</time>
      </trkpt>
      <trkpt lat="45.79212" lon="6.21277">
        <ele>456.76</ele>
        <time>2016-12-20T10:16:49Z</time>
      </trkpt>
      <trkpt lat="45.79215" lon="6.21275">
        <ele>456.76</ele>
        <time>2016-12-20T10:16:50Z</time>
      </trkpt>
      <trkpt lat="45.79217" lon="6.21273">
        <ele>456.76</ele>
        <time>2016-12-20T10:16:51Z</time>
      </trkpt>
      <trkpt lat="45.7922" lon="6.21269">
        <ele>456.76</ele>
        <time>2016-12-20T10:16:52Z</time>
      </trkpt>
      <trkpt lat="45.79244" lon="6.21253">
        <ele>456.76</ele>
        <time>2016-12-20T10:16:58Z</time>
      </trkpt>
      <trkpt lat="45.79248" lon="6.2125">
        <ele>456.76</ele>
        <time>2016-12-20T10:16:59Z</time>
      </trkpt>
      <trkpt lat="45.79304" lon="6.21218">
        <ele>457.72</ele>
        <time>2016-12-20T10:17:13Z</time>
      </trkpt>
      <trkpt lat="45.79373" lon="6.2119">
        <ele>458.69</ele>
        <time>2016-12-20T10:17:30Z</time>
      </trkpt>
      <trkpt lat="45.79406" lon="6.2118">
        <ele>458.69</ele>
        <time>2016-12-20T10:17:38Z</time>
      </trkpt>
      <trkpt lat="45.7941" lon="6.21179">
        <ele>458.69</ele>
        <time>2016-12-20T10:17:39Z</time>
      </trkpt>
      <trkpt lat="45.79414" lon="6.21178">
        <ele>458.69</ele>
        <time>2016-12-20T10:17:40Z</time>
      </trkpt>
      <trkpt lat="45.79432" lon="6.21174">
        <ele>459.17</ele>
        <time>2016-12-20T10:17:44Z</time>
      </trkpt>
      <trkpt lat="45.79493" lon="6.21167">
        <ele>459.17</ele>
        <time>2016-12-20T10:17:58Z</time>
      </trkpt>
      <trkpt lat="45.79498" lon="6.21167">
        <ele>459.17</ele>
        <time>2016-12-20T10:17:59Z</time>
      </trkpt>
      <trkpt lat="45.79515" lon="6.21166">
        <ele>459.65</ele>
        <time>2016-12-20T10:18:03Z</time>
      </trkpt>
      <trkpt lat="45.79519" lon="6.21168">
        <ele>459.65</ele>
        <time>2016-12-20T10:18:04Z</time>
      </trkpt>
      <trkpt lat="45.79523" lon="6.21169">
        <ele>459.65</ele>
        <time>2016-12-20T10:18:05Z</time>
      </trkpt>
      <trkpt lat="45.79526" lon="6.21168">
        <ele>459.65</ele>
        <time>2016-12-20T10:18:06Z</time>
      </trkpt>
      <trkpt lat="45.7953" lon="6.21167">
        <ele>459.65</ele>
        <time>2016-12-20T10:18:07Z</time>
      </trkpt>
      <trkpt lat="45.79533" lon="6.21167">
        <ele>459.65</ele>
        <time>2016-12-20T10:18:08Z</time>
      </trkpt>
      <trkpt lat="45.79537" lon="6.21168">
        <ele>459.65</ele>
        <time>2016-12-20T10:18:09Z</time>
      </trkpt>
      <trkpt lat="45.79541" lon="6.21168">
        <ele>459.65</ele>
        <time>2016-12-20T10:18:10Z</time>
      </trkpt>
      <trkpt lat="45.79544" lon="6.21167">
        <ele>459.65</ele>
        <time>2016-12-20T10:18:11Z</time>
      </trkpt>
      <trkpt lat="45.79548" lon="6.21167">
        <ele>459.65</ele>
        <time>2016-12-20T10:18:12Z</time>
      </trkpt>
      <trkpt lat="45.79551" lon="6.21167">
        <ele>459.65</ele>
        <time>2016-12-20T10:18:13Z</time>
      </trkpt>
      <trkpt lat="45.79581" lon="6.21165">
        <ele>460.13</ele>
        <time>2016-12-20T10:18:25Z</time>
      </trkpt>
      <trkpt lat="45.79613" lon="6.21167">
        <ele>460.13</ele>
        <time>2016-12-20T10:18:36Z</time>
      </trkpt>
      <trkpt lat="45.79622" lon="6.21167">
        <ele>460.13</ele>
        <time>2016-12-20T10:18:38Z</time>
      </trkpt>
      <trkpt lat="45.79626" lon="6.21166">
        <ele>460.13</ele>
        <time>2016-12-20T10:18:39Z</time>
      </trkpt>
      <trkpt lat="45.79631" lon="6.21166">
        <ele>460.13</ele>
        <time>2016-12-20T10:18:40Z</time>
      </trkpt>
      <trkpt lat="45.79694" lon="6.21162">
        <ele>460.13</ele>
        <time>2016-12-20T10:18:53Z</time>
      </trkpt>
      <trkpt lat="45.79739" lon="6.2116">
        <ele>460.61</ele>
        <time>2016-12-20T10:19:02Z</time>
      </trkpt>
      <trkpt lat="45.79816" lon="6.2116">
        <ele>461.57</ele>
        <time>2016-12-20T10:19:19Z</time>
      </trkpt>
      <trkpt lat="45.7982" lon="6.2116">
        <ele>461.57</ele>
        <time>2016-12-20T10:19:20Z</time>
      </trkpt>
      <trkpt lat="45.79886" lon="6.21157">
        <ele>462.05</ele>
        <time>2016-12-20T10:19:35Z</time>
      </trkpt>
      <trkpt lat="45.79975" lon="6.21155">
        <ele>463.49</ele>
        <time>2016-12-20T10:19:55Z</time>
      </trkpt>
      <trkpt lat="45.7998" lon="6.21155">
        <ele>463.49</ele>
        <time>2016-12-20T10:19:56Z</time>
      </trkpt>
      <trkpt lat="45.80003" lon="6.21155">
        <ele>463.97</ele>
        <time>2016-12-20T10:20:01Z</time>
      </trkpt>
      <trkpt lat="45.80079" lon="6.21153">
        <ele>464.93</ele>
        <time>2016-12-20T10:20:17Z</time>
      </trkpt>
      <trkpt lat="45.80084" lon="6.21153">
        <ele>464.93</ele>
        <time>2016-12-20T10:20:18Z</time>
      </trkpt>
      <trkpt lat="45.80088" lon="6.21153">
        <ele>464.93</ele>
        <time>2016-12-20T10:20:19Z</time>
      </trkpt>
      <trkpt lat="45.80166" lon="6.2115">
        <ele>465.9</ele>
        <time>2016-12-20T10:20:36Z</time>
      </trkpt>
      <trkpt lat="45.80175" lon="6.21149">
        <ele>465.9</ele>
        <time>2016-12-20T10:20:38Z</time>
      </trkpt>
      <trkpt lat="45.80236" lon="6.21147">
        <ele>466.86</ele>
        <time>2016-12-20T10:20:52Z</time>
      </trkpt>
      <trkpt lat="45.8024" lon="6.21147">
        <ele>466.86</ele>
        <time>2016-12-20T10:20:53Z</time>
      </trkpt>
      <trkpt lat="45.80271" lon="6.21147">
        <ele>466.86</ele>
        <time>2016-12-20T10:21:00Z</time>
      </trkpt>
      <trkpt lat="45.80336" lon="6.21141">
        <ele>467.82</ele>
        <time>2016-12-20T10:21:14Z</time>
      </trkpt>
      <trkpt lat="45.80375" lon="6.21137">
        <ele>468.78</ele>
        <time>2016-12-20T10:21:23Z</time>
      </trkpt>
      <trkpt lat="45.80379" lon="6.21136">
        <ele>468.78</ele>
        <time>2016-12-20T10:21:24Z</time>
      </trkpt>
      <trkpt lat="45.80387" lon="6.21134">
        <ele>468.3</ele>
        <time>2016-12-20T10:21:26Z</time>
      </trkpt>
      <trkpt lat="45.80392" lon="6.21132">
        <ele>468.3</ele>
        <time>2016-12-20T10:21:27Z</time>
      </trkpt>
      <trkpt lat="45.80425" lon="6.21123">
        <ele>468.78</ele>
        <time>2016-12-20T10:21:35Z</time>
      </trkpt>
      <trkpt lat="45.80429" lon="6.21122">
        <ele>468.78</ele>
        <time>2016-12-20T10:21:36Z</time>
      </trkpt>
      <trkpt lat="45.80487" lon="6.211">
        <ele>469.74</ele>
        <time>2016-12-20T10:21:51Z</time>
      </trkpt>
      <trkpt lat="45.80535" lon="6.21081">
        <ele>470.22</ele>
        <time>2016-12-20T10:22:03Z</time>
      </trkpt>
      <trkpt lat="45.80576" lon="6.21067">
        <ele>470.7</ele>
        <time>2016-12-20T10:22:14Z</time>
      </trkpt>
      <trkpt lat="45.80611" lon="6.21054">
        <ele>471.18</ele>
        <time>2016-12-20T10:22:22Z</time>
      </trkpt>
      <trkpt lat="45.80616" lon="6.21053">
        <ele>471.18</ele>
        <time>2016-12-20T10:22:23Z</time>
      </trkpt>
      <trkpt lat="45.8067" lon="6.21033">
        <ele>471.18</ele>
        <time>2016-12-20T10:22:37Z</time>
      </trkpt>
      <trkpt lat="45.8074" lon="6.21008">
        <ele>470.7</ele>
        <time>2016-12-20T10:22:54Z</time>
      </trkpt>
      <trkpt lat="45.80814" lon="6.20984">
        <ele>470.7</ele>
        <time>2016-12-20T10:23:11Z</time>
      </trkpt>
      <trkpt lat="45.80894" lon="6.20955">
        <ele>470.22</ele>
        <time>2016-12-20T10:23:28Z</time>
      </trkpt>
      <trkpt lat="45.80924" lon="6.20946">
        <ele>469.74</ele>
        <time>2016-12-20T10:23:34Z</time>
      </trkpt>
      <trkpt lat="45.80928" lon="6.20946">
        <ele>470.22</ele>
        <time>2016-12-20T10:23:35Z</time>
      </trkpt>
      <trkpt lat="45.80933" lon="6.20947">
        <ele>469.74</ele>
        <time>2016-12-20T10:23:36Z</time>
      </trkpt>
      <trkpt lat="45.80942" lon="6.20949">
        <ele>469.74</ele>
        <time>2016-12-20T10:23:38Z</time>
      </trkpt>
      <trkpt lat="45.80946" lon="6.2095">
        <ele>469.74</ele>
        <time>2016-12-20T10:23:39Z</time>
      </trkpt>
      <trkpt lat="45.8095" lon="6.20948">
        <ele>469.74</ele>
        <time>2016-12-20T10:23:40Z</time>
      </trkpt>
      <trkpt lat="45.80952" lon="6.20945">
        <ele>469.74</ele>
        <time>2016-12-20T10:23:41Z</time>
      </trkpt>
      <trkpt lat="45.80955" lon="6.20941">
        <ele>470.22</ele>
        <time>2016-12-20T10:23:42Z</time>
      </trkpt>
      <trkpt lat="45.8096" lon="6.20934">
        <ele>469.74</ele>
        <time>2016-12-20T10:23:44Z</time>
      </trkpt>
      <trkpt lat="45.80963" lon="6.20932">
        <ele>469.74</ele>
        <time>2016-12-20T10:23:45Z</time>
      </trkpt>
      <trkpt lat="45.80967" lon="6.20931">
        <ele>469.74</ele>
        <time>2016-12-20T10:23:46Z</time>
      </trkpt>
      <trkpt lat="45.81011" lon="6.20914">
        <ele>469.26</ele>
        <time>2016-12-20T10:23:58Z</time>
      </trkpt>
      <trkpt lat="45.81072" lon="6.20892">
        <ele>468.3</ele>
        <time>2016-12-20T10:24:11Z</time>
      </trkpt>
      <trkpt lat="45.81142" lon="6.20867">
        <ele>467.82</ele>
        <time>2016-12-20T10:24:25Z</time>
      </trkpt>
      <trkpt lat="45.81239" lon="6.20836">
        <ele>466.86</ele>
        <time>2016-12-20T10:24:44Z</time>
      </trkpt>
      <trkpt lat="45.81329" lon="6.20813">
        <ele>466.38</ele>
        <time>2016-12-20T10:25:01Z</time>
      </trkpt>
      <trkpt lat="45.8139" lon="6.20799">
        <ele>465.42</ele>
        <time>2016-12-20T10:25:13Z</time>
      </trkpt>
      <trkpt lat="45.81405" lon="6.20794">
        <ele>465.42</ele>
        <time>2016-12-20T10:25:16Z</time>
      </trkpt>
      <trkpt lat="45.81494" lon="6.20775">
        <ele>465.42</ele>
        <time>2016-12-20T10:25:33Z</time>
      </trkpt>
      <trkpt lat="45.81571" lon="6.20756">
        <ele>464.45</ele>
        <time>2016-12-20T10:25:48Z</time>
      </trkpt>
      <trkpt lat="45.81666" lon="6.20734">
        <ele>463.97</ele>
        <time>2016-12-20T10:26:07Z</time>
      </trkpt>
      <trkpt lat="45.8174" lon="6.20717">
        <ele>463.49</ele>
        <time>2016-12-20T10:26:22Z</time>
      </trkpt>
      <trkpt lat="45.81817" lon="6.20698">
        <ele>463.01</ele>
        <time>2016-12-20T10:26:38Z</time>
      </trkpt>
      <trkpt lat="45.81855" lon="6.20684">
        <ele>463.49</ele>
        <time>2016-12-20T10:26:46Z</time>
      </trkpt>
      <trkpt lat="45.8186" lon="6.20683">
        <ele>463.49</ele>
        <time>2016-12-20T10:26:47Z</time>
      </trkpt>
      <trkpt lat="45.81865" lon="6.2068">
        <ele>463.49</ele>
        <time>2016-12-20T10:26:48Z</time>
      </trkpt>
      <trkpt lat="45.81869" lon="6.20679">
        <ele>463.97</ele>
        <time>2016-12-20T10:26:49Z</time>
      </trkpt>
      <trkpt lat="45.81874" lon="6.20677">
        <ele>463.49</ele>
        <time>2016-12-20T10:26:50Z</time>
      </trkpt>
      <trkpt lat="45.8196" lon="6.20638">
        <ele>463.97</ele>
        <time>2016-12-20T10:27:09Z</time>
      </trkpt>
      <trkpt lat="45.81994" lon="6.20626">
        <ele>464.45</ele>
        <time>2016-12-20T10:27:16Z</time>
      </trkpt>
      <trkpt lat="45.82013" lon="6.20622">
        <ele>464.45</ele>
        <time>2016-12-20T10:27:20Z</time>
      </trkpt>
      <trkpt lat="45.8207" lon="6.20622">
        <ele>464.45</ele>
        <time>2016-12-20T10:27:32Z</time>
      </trkpt>
      <trkpt lat="45.82075" lon="6.20623">
        <ele>464.45</ele>
        <time>2016-12-20T10:27:33Z</time>
      </trkpt>
      <trkpt lat="45.82079" lon="6.20624">
        <ele>464.45</ele>
        <time>2016-12-20T10:27:34Z</time>
      </trkpt>
      <trkpt lat="45.82084" lon="6.20625">
        <ele>464.45</ele>
        <time>2016-12-20T10:27:35Z</time>
      </trkpt>
      <trkpt lat="45.82089" lon="6.20626">
        <ele>464.45</ele>
        <time>2016-12-20T10:27:36Z</time>
      </trkpt>
      <trkpt lat="45.82093" lon="6.20627">
        <ele>464.45</ele>
        <time>2016-12-20T10:27:37Z</time>
      </trkpt>
      <trkpt lat="45.8213" lon="6.20642">
        <ele>464.45</ele>
        <time>2016-12-20T10:27:45Z</time>
      </trkpt>
      <trkpt lat="45.82134" lon="6.20645">
        <ele>464.45</ele>
        <time>2016-12-20T10:27:46Z</time>
      </trkpt>
      <trkpt lat="45.82183" lon="6.20678">
        <ele>464.93</ele>
        <time>2016-12-20T10:27:57Z</time>
      </trkpt>
      <trkpt lat="45.82192" lon="6.20685">
        <ele>464.93</ele>
        <time>2016-12-20T10:27:59Z</time>
      </trkpt>
      <trkpt lat="45.82196" lon="6.20688">
        <ele>464.93</ele>
        <time>2016-12-20T10:28:00Z</time>
      </trkpt>
      <trkpt lat="45.822" lon="6.20692">
        <ele>464.93</ele>
        <time>2016-12-20T10:28:01Z</time>
      </trkpt>
      <trkpt lat="45.82204" lon="6.20696">
        <ele>464.45</ele>
        <time>2016-12-20T10:28:02Z</time>
      </trkpt>
      <trkpt lat="45.82208" lon="6.207">
        <ele>464.45</ele>
        <time>2016-12-20T10:28:03Z</time>
      </trkpt>
      <trkpt lat="45.82232" lon="6.20726">
        <ele>463.97</ele>
        <time>2016-12-20T10:28:09Z</time>
      </trkpt>
      <trkpt lat="45.82269" lon="6.20766">
        <ele>464.45</ele>
        <time>2016-12-20T10:28:19Z</time>
      </trkpt>
      <trkpt lat="45.82273" lon="6.2077">
        <ele>464.45</ele>
        <time>2016-12-20T10:28:20Z</time>
      </trkpt>
      <trkpt lat="45.82277" lon="6.20775">
        <ele>464.45</ele>
        <time>2016-12-20T10:28:21Z</time>
      </trkpt>
      <trkpt lat="45.82286" lon="6.20784">
        <ele>463.97</ele>
        <time>2016-12-20T10:28:23Z</time>
      </trkpt>
      <trkpt lat="45.82332" lon="6.20815">
        <ele>463.49</ele>
        <time>2016-12-20T10:28:32Z</time>
      </trkpt>
      <trkpt lat="45.82424" lon="6.20841">
        <ele>462.05</ele>
        <time>2016-12-20T10:28:48Z</time>
      </trkpt>
      <trkpt lat="45.82521" lon="6.20815">
        <ele>461.57</ele>
        <time>2016-12-20T10:29:05Z</time>
      </trkpt>
      <trkpt lat="45.82601" lon="6.20749">
        <ele>460.13</ele>
        <time>2016-12-20T10:29:21Z</time>
      </trkpt>
      <trkpt lat="45.82633" lon="6.20705">
        <ele>459.65</ele>
        <time>2016-12-20T10:29:30Z</time>
      </trkpt>
      <trkpt lat="45.8264" lon="6.20691">
        <ele>459.65</ele>
        <time>2016-12-20T10:29:32Z</time>
      </trkpt>
      <trkpt lat="45.82645" lon="6.20677">
        <ele>459.17</ele>
        <time>2016-12-20T10:29:34Z</time>
      </trkpt>
      <trkpt lat="45.8269" lon="6.20566">
        <ele>458.21</ele>
        <time>2016-12-20T10:29:50Z</time>
      </trkpt>
      <trkpt lat="45.82694" lon="6.20416">
        <ele>459.17</ele>
        <time>2016-12-20T10:30:12Z</time>
      </trkpt>
      <trkpt lat="45.82693" lon="6.20413">
        <ele>459.17</ele>
        <time>2016-12-20T10:30:13Z</time>
      </trkpt>
      <trkpt lat="45.82691" lon="6.20396">
        <ele>459.17</ele>
        <time>2016-12-20T10:30:20Z</time>
      </trkpt>
      <trkpt lat="45.82692" lon="6.20401">
        <ele>459.65</ele>
        <time>2016-12-20T10:30:23Z</time>
      </trkpt>
      <trkpt lat="45.82688" lon="6.20411">
        <ele>459.17</ele>
        <time>2016-12-20T10:30:28Z</time>
      </trkpt>
      <trkpt lat="45.82676" lon="6.20402">
        <ele>458.21</ele>
        <time>2016-12-20T10:30:32Z</time>
      </trkpt>
      <trkpt lat="45.82672" lon="6.20393">
        <ele>456.76</ele>
        <time>2016-12-20T10:30:34Z</time>
      </trkpt>
      <trkpt lat="45.82672" lon="6.20387">
        <ele>456.28</ele>
        <time>2016-12-20T10:30:37Z</time>
      </trkpt>
      <trkpt lat="45.82669" lon="6.2038">
        <ele>455.32</ele>
        <time>2016-12-20T10:30:45Z</time>
      </trkpt>
      <trkpt lat="45.82692" lon="6.20369">
        <ele>453.88</ele>
        <time>2016-12-20T10:30:53Z</time>
      </trkpt>
      <trkpt lat="45.82695" lon="6.20369">
        <ele>453.88</ele>
        <time>2016-12-20T10:30:54Z</time>
      </trkpt>
      <trkpt lat="45.82705" lon="6.20386">
        <ele>454.36</ele>
        <time>2016-12-20T10:31:00Z</time>
      </trkpt>
      <trkpt lat="45.82721" lon="6.20427">
        <ele>456.76</ele>
        <time>2016-12-20T10:31:13Z</time>
      </trkpt>
      <trkpt lat="45.82753" lon="6.20456">
        <ele>457.24</ele>
        <time>2016-12-20T10:31:25Z</time>
      </trkpt>
      <trkpt lat="45.82797" lon="6.20482">
        <ele>455.8</ele>
        <time>2016-12-20T10:31:40Z</time>
      </trkpt>
      <trkpt lat="45.82804" lon="6.20489">
        <ele>455.32</ele>
        <time>2016-12-20T10:31:42Z</time>
      </trkpt>
      <trkpt lat="45.82809" lon="6.20493">
        <ele>454.84</ele>
        <time>2016-12-20T10:31:43Z</time>
      </trkpt>
      <trkpt lat="45.82813" lon="6.20497">
        <ele>454.84</ele>
        <time>2016-12-20T10:31:44Z</time>
      </trkpt>
      <trkpt lat="45.82816" lon="6.20501">
        <ele>454.84</ele>
        <time>2016-12-20T10:31:45Z</time>
      </trkpt>
      <trkpt lat="45.82818" lon="6.20506">
        <ele>454.84</ele>
        <time>2016-12-20T10:31:46Z</time>
      </trkpt>
      <trkpt lat="45.82823" lon="6.20515">
        <ele>455.32</ele>
        <time>2016-12-20T10:31:48Z</time>
      </trkpt>
      <trkpt lat="45.82824" lon="6.20521">
        <ele>455.8</ele>
        <time>2016-12-20T10:31:49Z</time>
      </trkpt>
      <trkpt lat="45.82826" lon="6.20526">
        <ele>455.8</ele>
        <time>2016-12-20T10:31:50Z</time>
      </trkpt>
      <trkpt lat="45.82827" lon="6.20531">
        <ele>455.8</ele>
        <time>2016-12-20T10:31:51Z</time>
      </trkpt>
      <trkpt lat="45.82829" lon="6.20536">
        <ele>455.8</ele>
        <time>2016-12-20T10:31:52Z</time>
      </trkpt>
      <trkpt lat="45.82831" lon="6.2054">
        <ele>456.28</ele>
        <time>2016-12-20T10:31:53Z</time>
      </trkpt>
      <trkpt lat="45.82834" lon="6.20541">
        <ele>456.28</ele>
        <time>2016-12-20T10:31:54Z</time>
      </trkpt>
      <trkpt lat="45.82836" lon="6.2054">
        <ele>456.28</ele>
        <time>2016-12-20T10:31:55Z</time>
      </trkpt>
      <trkpt lat="45.82838" lon="6.20539">
        <ele>456.28</ele>
        <time>2016-12-20T10:31:56Z</time>
      </trkpt>
      <trkpt lat="45.8284" lon="6.20537">
        <ele>456.28</ele>
        <time>2016-12-20T10:31:57Z</time>
      </trkpt>
      <trkpt lat="45.82843" lon="6.20535">
        <ele>455.8</ele>
        <time>2016-12-20T10:31:58Z</time>
      </trkpt>
      <trkpt lat="45.82846" lon="6.20532">
        <ele>454.84</ele>
        <time>2016-12-20T10:31:59Z</time>
      </trkpt>
      <trkpt lat="45.8285" lon="6.20528">
        <ele>454.36</ele>
        <time>2016-12-20T10:32:00Z</time>
      </trkpt>
      <trkpt lat="45.82853" lon="6.20524">
        <ele>453.88</ele>
        <time>2016-12-20T10:32:01Z</time>
      </trkpt>
      <trkpt lat="45.82857" lon="6.20522">
        <ele>453.88</ele>
        <time>2016-12-20T10:32:02Z</time>
      </trkpt>
      <trkpt lat="45.8286" lon="6.20522">
        <ele>453.4</ele>
        <time>2016-12-20T10:32:03Z</time>
      </trkpt>
      <trkpt lat="45.82864" lon="6.20522">
        <ele>453.4</ele>
        <time>2016-12-20T10:32:04Z</time>
      </trkpt>
      <trkpt lat="45.82868" lon="6.20523">
        <ele>453.88</ele>
        <time>2016-12-20T10:32:06Z</time>
      </trkpt>
      <trkpt lat="45.82878" lon="6.20496">
        <ele>451.96</ele>
        <time>2016-12-20T10:32:15Z</time>
      </trkpt>
      <trkpt lat="45.8288" lon="6.20483">
        <ele>451.96</ele>
        <time>2016-12-20T10:32:18Z</time>
      </trkpt>
      <trkpt lat="45.82881" lon="6.20481">
        <ele>451.96</ele>
        <time>2016-12-20T10:32:20Z</time>
      </trkpt>
      <trkpt lat="45.82878" lon="6.20479">
        <ele>451.96</ele>
        <time>2016-12-20T10:32:21Z</time>
      </trkpt>
      <trkpt lat="45.82876" lon="6.20475">
        <ele>451.96</ele>
        <time>2016-12-20T10:32:22Z</time>
      </trkpt>
      <trkpt lat="45.82874" lon="6.20471">
        <ele>451.96</ele>
        <time>2016-12-20T10:32:23Z</time>
      </trkpt>
      <trkpt lat="45.82873" lon="6.20465">
        <ele>451.96</ele>
        <time>2016-12-20T10:32:24Z</time>
      </trkpt>
      <trkpt lat="45.82872" lon="6.20461">
        <ele>451.96</ele>
        <time>2016-12-20T10:32:25Z</time>
      </trkpt>
      <trkpt lat="45.82871" lon="6.20457">
        <ele>451.48</ele>
        <time>2016-12-20T10:32:26Z</time>
      </trkpt>
      <trkpt lat="45.82869" lon="6.20453">
        <ele>451.96</ele>
        <time>2016-12-20T10:32:27Z</time>
      </trkpt>
      <trkpt lat="45.82867" lon="6.20433">
        <ele>451.96</ele>
        <time>2016-12-20T10:32:33Z</time>
      </trkpt>
      <trkpt lat="45.82869" lon="6.20432">
        <ele>451.96</ele>
        <time>2016-12-20T10:32:47Z</time>
      </trkpt>
      <trkpt lat="45.82871" lon="6.20433">
        <ele>451.96</ele>
        <time>2016-12-20T10:32:48Z</time>
      </trkpt>
      <trkpt lat="45.82873" lon="6.20434">
        <ele>452.44</ele>
        <time>2016-12-20T10:32:49Z</time>
      </trkpt>
      <trkpt lat="45.82875" lon="6.20437">
        <ele>451.96</ele>
        <time>2016-12-20T10:32:50Z</time>
      </trkpt>
      <trkpt lat="45.82876" lon="6.20441">
        <ele>451.48</ele>
        <time>2016-12-20T10:32:51Z</time>
      </trkpt>
      <trkpt lat="45.82879" lon="6.20445">
        <ele>451.48</ele>
        <time>2016-12-20T10:32:52Z</time>
      </trkpt>
      <trkpt lat="45.82881" lon="6.20449">
        <ele>451.48</ele>
        <time>2016-12-20T10:32:53Z</time>
      </trkpt>
      <trkpt lat="45.82895" lon="6.20467">
        <ele>451.48</ele>
        <time>2016-12-20T10:32:58Z</time>
      </trkpt>
      <trkpt lat="45.82899" lon="6.20471">
        <ele>451.48</ele>
        <time>2016-12-20T10:32:59Z</time>
      </trkpt>
      <trkpt lat="45.82902" lon="6.20475">
        <ele>451.48</ele>
        <time>2016-12-20T10:33:00Z</time>
      </trkpt>
      <trkpt lat="45.82937" lon="6.20515">
        <ele>451</ele>
        <time>2016-12-20T10:33:11Z</time>
      </trkpt>
      <trkpt lat="45.8294" lon="6.20519">
        <ele>451</ele>
        <time>2016-12-20T10:33:12Z</time>
      </trkpt>
      <trkpt lat="45.82978" lon="6.20567">
        <ele>451.48</ele>
        <time>2016-12-20T10:33:25Z</time>
      </trkpt>
      <trkpt lat="45.82993" lon="6.20587">
        <ele>451.48</ele>
        <time>2016-12-20T10:33:30Z</time>
      </trkpt>
      <trkpt lat="45.82995" lon="6.20591">
        <ele>451.48</ele>
        <time>2016-12-20T10:33:31Z</time>
      </trkpt>
      <trkpt lat="45.82997" lon="6.20597">
        <ele>451.48</ele>
        <time>2016-12-20T10:33:32Z</time>
      </trkpt>
      <trkpt lat="45.82998" lon="6.20602">
        <ele>451.96</ele>
        <time>2016-12-20T10:33:33Z</time>
      </trkpt>
      <trkpt lat="45.82999" lon="6.20607">
        <ele>451.96</ele>
        <time>2016-12-20T10:33:34Z</time>
      </trkpt>
      <trkpt lat="45.83" lon="6.20611">
        <ele>452.44</ele>
        <time>2016-12-20T10:33:35Z</time>
      </trkpt>
      <trkpt lat="45.83" lon="6.20616">
        <ele>452.44</ele>
        <time>2016-12-20T10:33:36Z</time>
      </trkpt>
      <trkpt lat="45.83001" lon="6.20628">
        <ele>452.92</ele>
        <time>2016-12-20T10:33:40Z</time>
      </trkpt>
      <trkpt lat="45.83002" lon="6.20629">
        <ele>452.92</ele>
        <time>2016-12-20T10:33:41Z</time>
      </trkpt>
      <trkpt lat="45.83007" lon="6.2063">
        <ele>452.92</ele>
        <time>2016-12-20T10:33:45Z</time>
      </trkpt>
      <trkpt lat="45.83008" lon="6.20629">
        <ele>452.92</ele>
        <time>2016-12-20T10:33:46Z</time>
      </trkpt>
      <trkpt lat="45.8301" lon="6.20623">
        <ele>452.44</ele>
        <time>2016-12-20T10:33:51Z</time>
      </trkpt>
      <trkpt lat="45.83011" lon="6.20622">
        <ele>452.92</ele>
        <time>2016-12-20T10:33:52Z</time>
      </trkpt>
      <trkpt lat="45.83013" lon="6.20621">
        <ele>452.44</ele>
        <time>2016-12-20T10:33:53Z</time>
      </trkpt>
      <trkpt lat="45.83014" lon="6.20619">
        <ele>452.44</ele>
        <time>2016-12-20T10:33:54Z</time>
      </trkpt>
      <trkpt lat="45.83015" lon="6.20617">
        <ele>451.48</ele>
        <time>2016-12-20T10:34:01Z</time>
      </trkpt>
      <trkpt lat="45.83015" lon="6.20617">
        <ele>451</ele>
        <time>2016-12-20T10:34:05Z</time>
      </trkpt>
      <trkpt lat="45.83012" lon="6.20593">
        <ele>452.44</ele>
        <time>2016-12-20T10:37:27Z</time>
      </trkpt>
      <trkpt lat="45.82988" lon="6.20555">
        <ele>451.96</ele>
        <time>2016-12-20T10:37:39Z</time>
      </trkpt>
      <trkpt lat="45.82985" lon="6.20551">
        <ele>451.96</ele>
        <time>2016-12-20T10:37:40Z</time>
      </trkpt>
      <trkpt lat="45.82982" lon="6.20547">
        <ele>451.96</ele>
        <time>2016-12-20T10:37:41Z</time>
      </trkpt>
      <trkpt lat="45.82963" lon="6.20539">
        <ele>452.92</ele>
        <time>2016-12-20T10:37:48Z</time>
      </trkpt>
      <trkpt lat="45.82962" lon="6.20538">
        <ele>452.92</ele>
        <time>2016-12-20T10:37:49Z</time>
      </trkpt>
      <trkpt lat="45.8296" lon="6.20535">
        <ele>452.92</ele>
        <time>2016-12-20T10:37:50Z</time>
      </trkpt>
      <trkpt lat="45.8292" lon="6.20489">
        <ele>452.44</ele>
        <time>2016-12-20T10:38:04Z</time>
      </trkpt>
      <trkpt lat="45.82902" lon="6.20468">
        <ele>452.44</ele>
        <time>2016-12-20T10:38:14Z</time>
      </trkpt>
      <trkpt lat="45.82874" lon="6.20432">
        <ele>451.96</ele>
        <time>2016-12-20T10:38:24Z</time>
      </trkpt>
      <trkpt lat="45.82852" lon="6.20398">
        <ele>451.96</ele>
        <time>2016-12-20T10:38:36Z</time>
      </trkpt>
      <trkpt lat="45.82845" lon="6.20395">
        <ele>451.96</ele>
        <time>2016-12-20T10:38:48Z</time>
      </trkpt>
      <trkpt lat="45.82844" lon="6.20395">
        <ele>452.44</ele>
        <time>2016-12-20T10:38:49Z</time>
      </trkpt>
      <trkpt lat="45.82842" lon="6.20397">
        <ele>451.96</ele>
        <time>2016-12-20T10:38:51Z</time>
      </trkpt>
      <trkpt lat="45.82843" lon="6.20403">
        <ele>451.96</ele>
        <time>2016-12-20T10:39:01Z</time>
      </trkpt>
      <trkpt lat="45.82845" lon="6.20403">
        <ele>451.96</ele>
        <time>2016-12-20T10:39:09Z</time>
      </trkpt>
      <trkpt lat="45.82847" lon="6.20402">
        <ele>451.96</ele>
        <time>2016-12-20T10:39:11Z</time>
      </trkpt>
      <trkpt lat="45.82848" lon="6.20401">
        <ele>451.96</ele>
        <time>2016-12-20T10:39:12Z</time>
      </trkpt>
      <trkpt lat="45.82849" lon="6.204">
        <ele>451.96</ele>
        <time>2016-12-20T10:39:13Z</time>
      </trkpt>
      <trkpt lat="45.82851" lon="6.20399">
        <ele>451.96</ele>
        <time>2016-12-20T10:39:14Z</time>
      </trkpt>
      <trkpt lat="45.82852" lon="6.20397">
        <ele>451.48</ele>
        <time>2016-12-20T10:39:24Z</time>
      </trkpt>
      <trkpt lat="45.82851" lon="6.20396">
        <ele>453.88</ele>
        <time>2016-12-20T10:55:42Z</time>
      </trkpt>
      <trkpt lat="45.82849" lon="6.20399">
        <ele>453.88</ele>
        <time>2016-12-20T10:55:43Z</time>
      </trkpt>
      <trkpt lat="45.82858" lon="6.20394">
        <ele>453.4</ele>
        <time>2016-12-20T10:55:52Z</time>
      </trkpt>
      <trkpt lat="45.82862" lon="6.20414">
        <ele>453.4</ele>
        <time>2016-12-20T10:56:04Z</time>
      </trkpt>
      <trkpt lat="45.82865" lon="6.20417">
        <ele>453.4</ele>
        <time>2016-12-20T10:56:06Z</time>
      </trkpt>
      <trkpt lat="45.82867" lon="6.20424">
        <ele>453.4</ele>
        <time>2016-12-20T10:56:12Z</time>
      </trkpt>
      <trkpt lat="45.82867" lon="6.20447">
        <ele>453.4</ele>
        <time>2016-12-20T10:56:19Z</time>
      </trkpt>
      <trkpt lat="45.82877" lon="6.20469">
        <ele>453.4</ele>
        <time>2016-12-20T10:56:26Z</time>
      </trkpt>
      <trkpt lat="45.82877" lon="6.20473">
        <ele>453.88</ele>
        <time>2016-12-20T10:56:29Z</time>
      </trkpt>
      <trkpt lat="45.82852" lon="6.20483">
        <ele>454.84</ele>
        <time>2016-12-20T10:56:36Z</time>
      </trkpt>
      <trkpt lat="45.82827" lon="6.20496">
        <ele>455.8</ele>
        <time>2016-12-20T10:56:46Z</time>
      </trkpt>
      <trkpt lat="45.82821" lon="6.205">
        <ele>456.28</ele>
        <time>2016-12-20T10:56:49Z</time>
      </trkpt>
      <trkpt lat="45.82805" lon="6.20494">
        <ele>455.8</ele>
        <time>2016-12-20T10:56:56Z</time>
      </trkpt>
      <trkpt lat="45.82795" lon="6.20484">
        <ele>456.76</ele>
        <time>2016-12-20T10:57:05Z</time>
      </trkpt>
      <trkpt lat="45.82795" lon="6.20485">
        <ele>456.76</ele>
        <time>2016-12-20T10:57:10Z</time>
      </trkpt>
      <trkpt lat="45.82805" lon="6.20492">
        <ele>456.28</ele>
        <time>2016-12-20T10:57:14Z</time>
      </trkpt>
      <trkpt lat="45.82816" lon="6.20502">
        <ele>455.8</ele>
        <time>2016-12-20T10:57:17Z</time>
      </trkpt>
      <trkpt lat="45.82818" lon="6.20507">
        <ele>456.28</ele>
        <time>2016-12-20T10:57:18Z</time>
      </trkpt>
      <trkpt lat="45.82826" lon="6.20531">
        <ele>456.28</ele>
        <time>2016-12-20T10:57:23Z</time>
      </trkpt>
      <trkpt lat="45.82817" lon="6.20559">
        <ele>458.21</ele>
        <time>2016-12-20T10:57:31Z</time>
      </trkpt>
      <trkpt lat="45.8282" lon="6.20554">
        <ele>457.72</ele>
        <time>2016-12-20T10:57:35Z</time>
      </trkpt>
      <trkpt lat="45.82821" lon="6.20551">
        <ele>457.24</ele>
        <time>2016-12-20T10:57:36Z</time>
      </trkpt>
      <trkpt lat="45.82822" lon="6.20548">
        <ele>457.24</ele>
        <time>2016-12-20T10:57:37Z</time>
      </trkpt>
      <trkpt lat="45.82823" lon="6.20543">
        <ele>456.76</ele>
        <time>2016-12-20T10:57:38Z</time>
      </trkpt>
      <trkpt lat="45.82824" lon="6.20539">
        <ele>456.28</ele>
        <time>2016-12-20T10:57:39Z</time>
      </trkpt>
      <trkpt lat="45.82824" lon="6.20533">
        <ele>456.28</ele>
        <time>2016-12-20T10:57:40Z</time>
      </trkpt>
      <trkpt lat="45.82823" lon="6.20527">
        <ele>455.8</ele>
        <time>2016-12-20T10:57:41Z</time>
      </trkpt>
      <trkpt lat="45.82822" lon="6.20522">
        <ele>455.32</ele>
        <time>2016-12-20T10:57:42Z</time>
      </trkpt>
      <trkpt lat="45.8282" lon="6.20516">
        <ele>455.32</ele>
        <time>2016-12-20T10:57:43Z</time>
      </trkpt>
      <trkpt lat="45.82817" lon="6.2051">
        <ele>454.84</ele>
        <time>2016-12-20T10:57:44Z</time>
      </trkpt>
      <trkpt lat="45.82813" lon="6.20505">
        <ele>454.84</ele>
        <time>2016-12-20T10:57:45Z</time>
      </trkpt>
      <trkpt lat="45.82798" lon="6.20486">
        <ele>454.84</ele>
        <time>2016-12-20T10:57:49Z</time>
      </trkpt>
      <trkpt lat="45.82793" lon="6.20484">
        <ele>455.32</ele>
        <time>2016-12-20T10:57:50Z</time>
      </trkpt>
      <trkpt lat="45.82789" lon="6.20481">
        <ele>455.32</ele>
        <time>2016-12-20T10:57:51Z</time>
      </trkpt>
      <trkpt lat="45.82784" lon="6.2048">
        <ele>455.8</ele>
        <time>2016-12-20T10:57:52Z</time>
      </trkpt>
      <trkpt lat="45.8278" lon="6.20478">
        <ele>456.28</ele>
        <time>2016-12-20T10:57:53Z</time>
      </trkpt>
      <trkpt lat="45.82776" lon="6.20476">
        <ele>456.28</ele>
        <time>2016-12-20T10:57:54Z</time>
      </trkpt>
      <trkpt lat="45.82743" lon="6.20452">
        <ele>457.24</ele>
        <time>2016-12-20T10:58:03Z</time>
      </trkpt>
      <trkpt lat="45.8274" lon="6.20448">
        <ele>457.24</ele>
        <time>2016-12-20T10:58:04Z</time>
      </trkpt>
      <trkpt lat="45.82734" lon="6.2044">
        <ele>456.76</ele>
        <time>2016-12-20T10:58:06Z</time>
      </trkpt>
      <trkpt lat="45.8273" lon="6.20437">
        <ele>456.76</ele>
        <time>2016-12-20T10:58:07Z</time>
      </trkpt>
      <trkpt lat="45.82709" lon="6.20417">
        <ele>456.28</ele>
        <time>2016-12-20T10:58:17Z</time>
      </trkpt>
      <trkpt lat="45.82701" lon="6.20414">
        <ele>458.21</ele>
        <time>2016-12-20T10:58:23Z</time>
      </trkpt>
      <trkpt lat="45.82698" lon="6.20415">
        <ele>459.17</ele>
        <time>2016-12-20T10:58:25Z</time>
      </trkpt>
      <trkpt lat="45.82696" lon="6.20414">
        <ele>459.17</ele>
        <time>2016-12-20T10:58:26Z</time>
      </trkpt>
      <trkpt lat="45.82693" lon="6.20411">
        <ele>458.69</ele>
        <time>2016-12-20T10:58:29Z</time>
      </trkpt>
      <trkpt lat="45.82691" lon="6.20388">
        <ele>458.21</ele>
        <time>2016-12-20T10:58:37Z</time>
      </trkpt>
      <trkpt lat="45.82685" lon="6.20346">
        <ele>456.76</ele>
        <time>2016-12-20T10:58:45Z</time>
      </trkpt>
      <trkpt lat="45.82684" lon="6.2034">
        <ele>456.28</ele>
        <time>2016-12-20T10:58:46Z</time>
      </trkpt>
      <trkpt lat="45.82673" lon="6.20277">
        <ele>456.76</ele>
        <time>2016-12-20T10:58:59Z</time>
      </trkpt>
      <trkpt lat="45.82667" lon="6.2024">
        <ele>456.76</ele>
        <time>2016-12-20T10:59:12Z</time>
      </trkpt>
      <trkpt lat="45.82667" lon="6.20234">
        <ele>456.76</ele>
        <time>2016-12-20T10:59:15Z</time>
      </trkpt>
      <trkpt lat="45.82667" lon="6.20232">
        <ele>456.76</ele>
        <time>2016-12-20T10:59:16Z</time>
      </trkpt>
      <trkpt lat="45.82666" lon="6.2023">
        <ele>456.76</ele>
        <time>2016-12-20T10:59:17Z</time>
      </trkpt>
      <trkpt lat="45.82665" lon="6.20227">
        <ele>456.76</ele>
        <time>2016-12-20T10:59:18Z</time>
      </trkpt>
      <trkpt lat="45.82665" lon="6.20224">
        <ele>456.76</ele>
        <time>2016-12-20T10:59:19Z</time>
      </trkpt>
      <trkpt lat="45.82658" lon="6.20187">
        <ele>456.76</ele>
        <time>2016-12-20T10:59:31Z</time>
      </trkpt>
      <trkpt lat="45.82652" lon="6.20159">
        <ele>456.76</ele>
        <time>2016-12-20T10:59:44Z</time>
      </trkpt>
      <trkpt lat="45.82646" lon="6.20118">
        <ele>456.28</ele>
        <time>2016-12-20T10:59:54Z</time>
      </trkpt>
      <trkpt lat="45.82645" lon="6.20111">
        <ele>455.8</ele>
        <time>2016-12-20T10:59:55Z</time>
      </trkpt>
      <trkpt lat="45.82644" lon="6.20104">
        <ele>455.8</ele>
        <time>2016-12-20T10:59:56Z</time>
      </trkpt>
      <trkpt lat="45.82642" lon="6.20096">
        <ele>455.8</ele>
        <time>2016-12-20T10:59:57Z</time>
      </trkpt>
      <trkpt lat="45.8264" lon="6.20088">
        <ele>455.8</ele>
        <time>2016-12-20T10:59:58Z</time>
      </trkpt>
      <trkpt lat="45.82622" lon="6.1996">
        <ele>455.32</ele>
        <time>2016-12-20T11:00:13Z</time>
      </trkpt>
      <trkpt lat="45.82604" lon="6.19846">
        <ele>455.32</ele>
        <time>2016-12-20T11:00:28Z</time>
      </trkpt>
      <trkpt lat="45.82598" lon="6.19802">
        <ele>455.8</ele>
        <time>2016-12-20T11:00:34Z</time>
      </trkpt>
      <trkpt lat="45.82582" lon="6.1971">
        <ele>456.28</ele>
        <time>2016-12-20T11:00:47Z</time>
      </trkpt>
      <trkpt lat="45.82581" lon="6.19704">
        <ele>456.76</ele>
        <time>2016-12-20T11:00:48Z</time>
      </trkpt>
      <trkpt lat="45.82579" lon="6.19697">
        <ele>456.76</ele>
        <time>2016-12-20T11:00:49Z</time>
      </trkpt>
      <trkpt lat="45.82578" lon="6.19691">
        <ele>456.76</ele>
        <time>2016-12-20T11:00:50Z</time>
      </trkpt>
      <trkpt lat="45.82577" lon="6.19684">
        <ele>457.24</ele>
        <time>2016-12-20T11:00:51Z</time>
      </trkpt>
      <trkpt lat="45.82573" lon="6.19654">
        <ele>457.72</ele>
        <time>2016-12-20T11:00:56Z</time>
      </trkpt>
      <trkpt lat="45.82573" lon="6.19648">
        <ele>457.72</ele>
        <time>2016-12-20T11:00:57Z</time>
      </trkpt>
      <trkpt lat="45.82572" lon="6.19644">
        <ele>458.21</ele>
        <time>2016-12-20T11:00:58Z</time>
      </trkpt>
      <trkpt lat="45.82571" lon="6.19639">
        <ele>458.21</ele>
        <time>2016-12-20T11:00:59Z</time>
      </trkpt>
      <trkpt lat="45.8257" lon="6.19634">
        <ele>458.21</ele>
        <time>2016-12-20T11:01:00Z</time>
      </trkpt>
      <trkpt lat="45.8257" lon="6.19629">
        <ele>458.21</ele>
        <time>2016-12-20T11:01:01Z</time>
      </trkpt>
      <trkpt lat="45.8257" lon="6.19624">
        <ele>458.21</ele>
        <time>2016-12-20T11:01:02Z</time>
      </trkpt>
      <trkpt lat="45.8257" lon="6.19618">
        <ele>458.21</ele>
        <time>2016-12-20T11:01:03Z</time>
      </trkpt>
      <trkpt lat="45.82569" lon="6.19612">
        <ele>458.21</ele>
        <time>2016-12-20T11:01:04Z</time>
      </trkpt>
      <trkpt lat="45.82567" lon="6.19606">
        <ele>457.72</ele>
        <time>2016-12-20T11:01:05Z</time>
      </trkpt>
      <trkpt lat="45.82561" lon="6.19537">
        <ele>457.72</ele>
        <time>2016-12-20T11:01:17Z</time>
      </trkpt>
      <trkpt lat="45.82561" lon="6.19522">
        <ele>457.72</ele>
        <time>2016-12-20T11:01:19Z</time>
      </trkpt>
      <trkpt lat="45.82562" lon="6.19498">
        <ele>457.72</ele>
        <time>2016-12-20T11:01:22Z</time>
      </trkpt>
      <trkpt lat="45.82562" lon="6.1949">
        <ele>457.72</ele>
        <time>2016-12-20T11:01:23Z</time>
      </trkpt>
      <trkpt lat="45.82572" lon="6.19374">
        <ele>458.21</ele>
        <time>2016-12-20T11:01:38Z</time>
      </trkpt>
      <trkpt lat="45.82601" lon="6.19252">
        <ele>457.24</ele>
        <time>2016-12-20T11:01:54Z</time>
      </trkpt>
      <trkpt lat="45.82644" lon="6.19122">
        <ele>457.72</ele>
        <time>2016-12-20T11:02:11Z</time>
      </trkpt>
      <trkpt lat="45.82676" lon="6.1902">
        <ele>458.21</ele>
        <time>2016-12-20T11:02:26Z</time>
      </trkpt>
      <trkpt lat="45.82685" lon="6.18988">
        <ele>458.69</ele>
        <time>2016-12-20T11:02:31Z</time>
      </trkpt>
      <trkpt lat="45.82686" lon="6.18981">
        <ele>458.69</ele>
        <time>2016-12-20T11:02:32Z</time>
      </trkpt>
      <trkpt lat="45.82688" lon="6.18975">
        <ele>459.17</ele>
        <time>2016-12-20T11:02:33Z</time>
      </trkpt>
      <trkpt lat="45.82689" lon="6.18968">
        <ele>459.17</ele>
        <time>2016-12-20T11:02:34Z</time>
      </trkpt>
      <trkpt lat="45.82691" lon="6.18961">
        <ele>459.17</ele>
        <time>2016-12-20T11:02:35Z</time>
      </trkpt>
      <trkpt lat="45.82699" lon="6.18922">
        <ele>459.65</ele>
        <time>2016-12-20T11:02:41Z</time>
      </trkpt>
      <trkpt lat="45.82713" lon="6.18863">
        <ele>460.13</ele>
        <time>2016-12-20T11:02:50Z</time>
      </trkpt>
      <trkpt lat="45.82721" lon="6.18831">
        <ele>460.13</ele>
        <time>2016-12-20T11:02:55Z</time>
      </trkpt>
      <trkpt lat="45.82721" lon="6.18824">
        <ele>460.61</ele>
        <time>2016-12-20T11:02:56Z</time>
      </trkpt>
      <trkpt lat="45.82722" lon="6.18818">
        <ele>460.61</ele>
        <time>2016-12-20T11:02:57Z</time>
      </trkpt>
      <trkpt lat="45.82723" lon="6.18812">
        <ele>460.61</ele>
        <time>2016-12-20T11:02:58Z</time>
      </trkpt>
      <trkpt lat="45.82725" lon="6.18806">
        <ele>460.61</ele>
        <time>2016-12-20T11:02:59Z</time>
      </trkpt>
      <trkpt lat="45.82727" lon="6.188">
        <ele>460.61</ele>
        <time>2016-12-20T11:03:00Z</time>
      </trkpt>
      <trkpt lat="45.82728" lon="6.18794">
        <ele>460.61</ele>
        <time>2016-12-20T11:03:01Z</time>
      </trkpt>
      <trkpt lat="45.82729" lon="6.18782">
        <ele>461.09</ele>
        <time>2016-12-20T11:03:03Z</time>
      </trkpt>
      <trkpt lat="45.82731" lon="6.18776">
        <ele>460.61</ele>
        <time>2016-12-20T11:03:04Z</time>
      </trkpt>
      <trkpt lat="45.82732" lon="6.1877">
        <ele>460.61</ele>
        <time>2016-12-20T11:03:05Z</time>
      </trkpt>
      <trkpt lat="45.82734" lon="6.18763">
        <ele>460.61</ele>
        <time>2016-12-20T11:03:06Z</time>
      </trkpt>
      <trkpt lat="45.82735" lon="6.18757">
        <ele>460.61</ele>
        <time>2016-12-20T11:03:07Z</time>
      </trkpt>
      <trkpt lat="45.82737" lon="6.1875">
        <ele>460.61</ele>
        <time>2016-12-20T11:03:08Z</time>
      </trkpt>
      <trkpt lat="45.82749" lon="6.18694">
        <ele>460.13</ele>
        <time>2016-12-20T11:03:16Z</time>
      </trkpt>
      <trkpt lat="45.8275" lon="6.18687">
        <ele>460.13</ele>
        <time>2016-12-20T11:03:17Z</time>
      </trkpt>
      <trkpt lat="45.82752" lon="6.1868">
        <ele>459.65</ele>
        <time>2016-12-20T11:03:18Z</time>
      </trkpt>
      <trkpt lat="45.82775" lon="6.18577">
        <ele>459.65</ele>
        <time>2016-12-20T11:03:32Z</time>
      </trkpt>
      <trkpt lat="45.828" lon="6.1846">
        <ele>459.17</ele>
        <time>2016-12-20T11:03:47Z</time>
      </trkpt>
      <trkpt lat="45.8282" lon="6.18365">
        <ele>458.69</ele>
        <time>2016-12-20T11:03:59Z</time>
      </trkpt>
      <trkpt lat="45.82822" lon="6.18357">
        <ele>460.13</ele>
        <time>2016-12-20T11:04:00Z</time>
      </trkpt>
      <trkpt lat="45.82828" lon="6.18334">
        <ele>459.17</ele>
        <time>2016-12-20T11:04:03Z</time>
      </trkpt>
      <trkpt lat="45.82849" lon="6.18242">
        <ele>459.17</ele>
        <time>2016-12-20T11:04:14Z</time>
      </trkpt>
      <trkpt lat="45.82851" lon="6.18234">
        <ele>459.17</ele>
        <time>2016-12-20T11:04:15Z</time>
      </trkpt>
      <trkpt lat="45.82878" lon="6.18114">
        <ele>458.69</ele>
        <time>2016-12-20T11:04:30Z</time>
      </trkpt>
      <trkpt lat="45.82879" lon="6.18106">
        <ele>458.69</ele>
        <time>2016-12-20T11:04:31Z</time>
      </trkpt>
      <trkpt lat="45.82881" lon="6.18098">
        <ele>458.69</ele>
        <time>2016-12-20T11:04:32Z</time>
      </trkpt>
      <trkpt lat="45.82905" lon="6.17984">
        <ele>458.69</ele>
        <time>2016-12-20T11:04:47Z</time>
      </trkpt>
      <trkpt lat="45.82915" lon="6.17938">
        <ele>458.69</ele>
        <time>2016-12-20T11:04:53Z</time>
      </trkpt>
      <trkpt lat="45.82933" lon="6.17857">
        <ele>459.17</ele>
        <time>2016-12-20T11:05:04Z</time>
      </trkpt>
      <trkpt lat="45.82938" lon="6.17836">
        <ele>459.17</ele>
        <time>2016-12-20T11:05:07Z</time>
      </trkpt>
      <trkpt lat="45.82947" lon="6.1781">
        <ele>459.65</ele>
        <time>2016-12-20T11:05:11Z</time>
      </trkpt>
      <trkpt lat="45.82983" lon="6.17714">
        <ele>459.65</ele>
        <time>2016-12-20T11:05:26Z</time>
      </trkpt>
      <trkpt lat="45.83009" lon="6.1766">
        <ele>460.13</ele>
        <time>2016-12-20T11:05:35Z</time>
      </trkpt>
      <trkpt lat="45.83012" lon="6.17654">
        <ele>460.13</ele>
        <time>2016-12-20T11:05:36Z</time>
      </trkpt>
      <trkpt lat="45.83047" lon="6.1758">
        <ele>461.09</ele>
        <time>2016-12-20T11:05:51Z</time>
      </trkpt>
      <trkpt lat="45.83075" lon="6.17521">
        <ele>461.09</ele>
        <time>2016-12-20T11:06:04Z</time>
      </trkpt>
      <trkpt lat="45.83077" lon="6.17517">
        <ele>461.09</ele>
        <time>2016-12-20T11:06:05Z</time>
      </trkpt>
      <trkpt lat="45.83079" lon="6.17512">
        <ele>461.57</ele>
        <time>2016-12-20T11:06:06Z</time>
      </trkpt>
      <trkpt lat="45.83088" lon="6.17493">
        <ele>461.09</ele>
        <time>2016-12-20T11:06:10Z</time>
      </trkpt>
      <trkpt lat="45.83091" lon="6.17487">
        <ele>461.57</ele>
        <time>2016-12-20T11:06:11Z</time>
      </trkpt>
      <trkpt lat="45.83096" lon="6.17475">
        <ele>461.57</ele>
        <time>2016-12-20T11:06:13Z</time>
      </trkpt>
      <trkpt lat="45.83098" lon="6.17469">
        <ele>461.57</ele>
        <time>2016-12-20T11:06:14Z</time>
      </trkpt>
      <trkpt lat="45.83109" lon="6.17449">
        <ele>462.05</ele>
        <time>2016-12-20T11:06:18Z</time>
      </trkpt>
      <trkpt lat="45.83117" lon="6.17433">
        <ele>462.05</ele>
        <time>2016-12-20T11:06:21Z</time>
      </trkpt>
      <trkpt lat="45.83162" lon="6.17344">
        <ele>461.09</ele>
        <time>2016-12-20T11:06:37Z</time>
      </trkpt>
      <trkpt lat="45.8319" lon="6.17296">
        <ele>459.17</ele>
        <time>2016-12-20T11:06:44Z</time>
      </trkpt>
      <trkpt lat="45.83195" lon="6.17291">
        <ele>458.69</ele>
        <time>2016-12-20T11:06:45Z</time>
      </trkpt>
      <trkpt lat="45.83201" lon="6.17288">
        <ele>458.21</ele>
        <time>2016-12-20T11:06:46Z</time>
      </trkpt>
      <trkpt lat="45.8322" lon="6.17281">
        <ele>458.69</ele>
        <time>2016-12-20T11:06:49Z</time>
      </trkpt>
      <trkpt lat="45.83225" lon="6.17277">
        <ele>458.69</ele>
        <time>2016-12-20T11:06:50Z</time>
      </trkpt>
      <trkpt lat="45.83229" lon="6.17271">
        <ele>458.69</ele>
        <time>2016-12-20T11:06:51Z</time>
      </trkpt>
      <trkpt lat="45.83232" lon="6.17264">
        <ele>458.69</ele>
        <time>2016-12-20T11:06:52Z</time>
      </trkpt>
      <trkpt lat="45.83234" lon="6.17256">
        <ele>458.69</ele>
        <time>2016-12-20T11:06:53Z</time>
      </trkpt>
      <trkpt lat="45.83238" lon="6.17233">
        <ele>459.17</ele>
        <time>2016-12-20T11:06:56Z</time>
      </trkpt>
      <trkpt lat="45.83239" lon="6.17225">
        <ele>459.17</ele>
        <time>2016-12-20T11:06:57Z</time>
      </trkpt>
      <trkpt lat="45.83239" lon="6.17217">
        <ele>459.17</ele>
        <time>2016-12-20T11:06:58Z</time>
      </trkpt>
      <trkpt lat="45.83239" lon="6.1721">
        <ele>459.65</ele>
        <time>2016-12-20T11:06:59Z</time>
      </trkpt>
      <trkpt lat="45.83239" lon="6.17203">
        <ele>459.65</ele>
        <time>2016-12-20T11:07:00Z</time>
      </trkpt>
      <trkpt lat="45.8324" lon="6.17196">
        <ele>460.13</ele>
        <time>2016-12-20T11:07:01Z</time>
      </trkpt>
      <trkpt lat="45.83241" lon="6.17188">
        <ele>460.13</ele>
        <time>2016-12-20T11:07:02Z</time>
      </trkpt>
      <trkpt lat="45.83242" lon="6.17181">
        <ele>460.61</ele>
        <time>2016-12-20T11:07:03Z</time>
      </trkpt>
      <trkpt lat="45.83244" lon="6.17174">
        <ele>460.61</ele>
        <time>2016-12-20T11:07:04Z</time>
      </trkpt>
      <trkpt lat="45.83246" lon="6.17168">
        <ele>461.09</ele>
        <time>2016-12-20T11:07:05Z</time>
      </trkpt>
      <trkpt lat="45.83252" lon="6.17149">
        <ele>461.57</ele>
        <time>2016-12-20T11:07:08Z</time>
      </trkpt>
      <trkpt lat="45.8328" lon="6.17088">
        <ele>463.97</ele>
        <time>2016-12-20T11:07:20Z</time>
      </trkpt>
      <trkpt lat="45.83304" lon="6.17035">
        <ele>463.97</ele>
        <time>2016-12-20T11:07:31Z</time>
      </trkpt>
      <trkpt lat="45.83307" lon="6.17029">
        <ele>463.49</ele>
        <time>2016-12-20T11:07:32Z</time>
      </trkpt>
      <trkpt lat="45.8331" lon="6.17023">
        <ele>463.49</ele>
        <time>2016-12-20T11:07:33Z</time>
      </trkpt>
      <trkpt lat="45.83312" lon="6.17017">
        <ele>463.01</ele>
        <time>2016-12-20T11:07:34Z</time>
      </trkpt>
      <trkpt lat="45.83315" lon="6.17011">
        <ele>463.49</ele>
        <time>2016-12-20T11:07:35Z</time>
      </trkpt>
      <trkpt lat="45.83318" lon="6.17004">
        <ele>463.97</ele>
        <time>2016-12-20T11:07:36Z</time>
      </trkpt>
      <trkpt lat="45.83335" lon="6.16968">
        <ele>463.97</ele>
        <time>2016-12-20T11:07:42Z</time>
      </trkpt>
      <trkpt lat="45.83338" lon="6.16962">
        <ele>463.97</ele>
        <time>2016-12-20T11:07:43Z</time>
      </trkpt>
      <trkpt lat="45.83341" lon="6.16957">
        <ele>463.97</ele>
        <time>2016-12-20T11:07:44Z</time>
      </trkpt>
      <trkpt lat="45.83346" lon="6.16945">
        <ele>463.97</ele>
        <time>2016-12-20T11:07:46Z</time>
      </trkpt>
      <trkpt lat="45.83349" lon="6.16939">
        <ele>463.97</ele>
        <time>2016-12-20T11:07:47Z</time>
      </trkpt>
      <trkpt lat="45.8336" lon="6.16917">
        <ele>463.97</ele>
        <time>2016-12-20T11:07:51Z</time>
      </trkpt>
      <trkpt lat="45.83394" lon="6.16845">
        <ele>463.97</ele>
        <time>2016-12-20T11:08:04Z</time>
      </trkpt>
      <trkpt lat="45.83405" lon="6.16821">
        <ele>464.45</ele>
        <time>2016-12-20T11:08:08Z</time>
      </trkpt>
      <trkpt lat="45.83449" lon="6.1673">
        <ele>463.97</ele>
        <time>2016-12-20T11:08:24Z</time>
      </trkpt>
      <trkpt lat="45.83468" lon="6.16691">
        <ele>464.45</ele>
        <time>2016-12-20T11:08:31Z</time>
      </trkpt>
      <trkpt lat="45.8347" lon="6.16686">
        <ele>463.97</ele>
        <time>2016-12-20T11:08:32Z</time>
      </trkpt>
      <trkpt lat="45.83473" lon="6.1668">
        <ele>463.97</ele>
        <time>2016-12-20T11:08:33Z</time>
      </trkpt>
      <trkpt lat="45.83475" lon="6.16675">
        <ele>463.97</ele>
        <time>2016-12-20T11:08:34Z</time>
      </trkpt>
      <trkpt lat="45.83478" lon="6.16669">
        <ele>464.45</ele>
        <time>2016-12-20T11:08:35Z</time>
      </trkpt>
      <trkpt lat="45.83484" lon="6.16658">
        <ele>464.45</ele>
        <time>2016-12-20T11:08:37Z</time>
      </trkpt>
      <trkpt lat="45.83486" lon="6.16652">
        <ele>464.45</ele>
        <time>2016-12-20T11:08:38Z</time>
      </trkpt>
      <trkpt lat="45.83508" lon="6.16609">
        <ele>464.93</ele>
        <time>2016-12-20T11:08:47Z</time>
      </trkpt>
      <trkpt lat="45.83509" lon="6.16604">
        <ele>464.93</ele>
        <time>2016-12-20T11:08:48Z</time>
      </trkpt>
      <trkpt lat="45.83514" lon="6.16592">
        <ele>464.93</ele>
        <time>2016-12-20T11:08:51Z</time>
      </trkpt>
      <trkpt lat="45.83519" lon="6.16585">
        <ele>464.93</ele>
        <time>2016-12-20T11:08:53Z</time>
      </trkpt>
      <trkpt lat="45.83521" lon="6.1658">
        <ele>465.42</ele>
        <time>2016-12-20T11:08:54Z</time>
      </trkpt>
      <trkpt lat="45.83542" lon="6.16534">
        <ele>464.45</ele>
        <time>2016-12-20T11:09:04Z</time>
      </trkpt>
      <trkpt lat="45.83545" lon="6.16528">
        <ele>464.93</ele>
        <time>2016-12-20T11:09:05Z</time>
      </trkpt>
      <trkpt lat="45.83567" lon="6.16485">
        <ele>464.45</ele>
        <time>2016-12-20T11:09:13Z</time>
      </trkpt>
      <trkpt lat="45.8357" lon="6.1648">
        <ele>464.45</ele>
        <time>2016-12-20T11:09:14Z</time>
      </trkpt>
      <trkpt lat="45.83636" lon="6.16366">
        <ele>463.01</ele>
        <time>2016-12-20T11:09:34Z</time>
      </trkpt>
      <trkpt lat="45.83702" lon="6.16294">
        <ele>462.53</ele>
        <time>2016-12-20T11:09:49Z</time>
      </trkpt>
      <trkpt lat="45.83767" lon="6.16247">
        <ele>462.05</ele>
        <time>2016-12-20T11:10:02Z</time>
      </trkpt>
      <trkpt lat="45.83852" lon="6.16191">
        <ele>460.61</ele>
        <time>2016-12-20T11:10:18Z</time>
      </trkpt>
      <trkpt lat="45.83946" lon="6.16132">
        <ele>459.17</ele>
        <time>2016-12-20T11:10:35Z</time>
      </trkpt>
      <trkpt lat="45.84059" lon="6.1606">
        <ele>457.72</ele>
        <time>2016-12-20T11:10:55Z</time>
      </trkpt>
      <trkpt lat="45.84119" lon="6.16008">
        <ele>457.24</ele>
        <time>2016-12-20T11:11:07Z</time>
      </trkpt>
      <trkpt lat="45.8415" lon="6.15973">
        <ele>456.76</ele>
        <time>2016-12-20T11:11:14Z</time>
      </trkpt>
      <trkpt lat="45.84185" lon="6.15926">
        <ele>456.76</ele>
        <time>2016-12-20T11:11:23Z</time>
      </trkpt>
      <trkpt lat="45.84189" lon="6.15921">
        <ele>456.76</ele>
        <time>2016-12-20T11:11:24Z</time>
      </trkpt>
      <trkpt lat="45.84199" lon="6.15905">
        <ele>456.76</ele>
        <time>2016-12-20T11:11:27Z</time>
      </trkpt>
      <trkpt lat="45.84244" lon="6.15816">
        <ele>456.76</ele>
        <time>2016-12-20T11:11:41Z</time>
      </trkpt>
      <trkpt lat="45.84294" lon="6.15697">
        <ele>456.28</ele>
        <time>2016-12-20T11:11:58Z</time>
      </trkpt>
      <trkpt lat="45.84329" lon="6.1562">
        <ele>456.76</ele>
        <time>2016-12-20T11:12:10Z</time>
      </trkpt>
      <trkpt lat="45.84332" lon="6.15614">
        <ele>457.24</ele>
        <time>2016-12-20T11:12:11Z</time>
      </trkpt>
      <trkpt lat="45.84334" lon="6.15608">
        <ele>457.24</ele>
        <time>2016-12-20T11:12:12Z</time>
      </trkpt>
      <trkpt lat="45.84336" lon="6.15603">
        <ele>457.24</ele>
        <time>2016-12-20T11:12:13Z</time>
      </trkpt>
      <trkpt lat="45.84338" lon="6.15597">
        <ele>457.24</ele>
        <time>2016-12-20T11:12:14Z</time>
      </trkpt>
      <trkpt lat="45.8434" lon="6.15592">
        <ele>457.24</ele>
        <time>2016-12-20T11:12:15Z</time>
      </trkpt>
      <trkpt lat="45.84381" lon="6.15506">
        <ele>456.28</ele>
        <time>2016-12-20T11:12:30Z</time>
      </trkpt>
      <trkpt lat="45.84396" lon="6.15478">
        <ele>455.8</ele>
        <time>2016-12-20T11:12:35Z</time>
      </trkpt>
      <trkpt lat="45.844" lon="6.15473">
        <ele>455.8</ele>
        <time>2016-12-20T11:12:36Z</time>
      </trkpt>
      <trkpt lat="45.84451" lon="6.15395">
        <ele>455.32</ele>
        <time>2016-12-20T11:12:51Z</time>
      </trkpt>
      <trkpt lat="45.84458" lon="6.15386">
        <ele>455.32</ele>
        <time>2016-12-20T11:12:53Z</time>
      </trkpt>
      <trkpt lat="45.84462" lon="6.15382">
        <ele>455.8</ele>
        <time>2016-12-20T11:12:54Z</time>
      </trkpt>
      <trkpt lat="45.84465" lon="6.15378">
        <ele>455.32</ele>
        <time>2016-12-20T11:12:55Z</time>
      </trkpt>
      <trkpt lat="45.84489" lon="6.15346">
        <ele>454.84</ele>
        <time>2016-12-20T11:13:02Z</time>
      </trkpt>
      <trkpt lat="45.84534" lon="6.15299">
        <ele>454.36</ele>
        <time>2016-12-20T11:13:14Z</time>
      </trkpt>
      <trkpt lat="45.84601" lon="6.15242">
        <ele>454.36</ele>
        <time>2016-12-20T11:13:30Z</time>
      </trkpt>
      <trkpt lat="45.84693" lon="6.15184">
        <ele>453.4</ele>
        <time>2016-12-20T11:13:49Z</time>
      </trkpt>
      <trkpt lat="45.84773" lon="6.15131">
        <ele>453.4</ele>
        <time>2016-12-20T11:14:06Z</time>
      </trkpt>
      <trkpt lat="45.84863" lon="6.15072">
        <ele>453.4</ele>
        <time>2016-12-20T11:14:25Z</time>
      </trkpt>
      <trkpt lat="45.84937" lon="6.15023">
        <ele>454.36</ele>
        <time>2016-12-20T11:14:42Z</time>
      </trkpt>
      <trkpt lat="45.84959" lon="6.1501">
        <ele>454.36</ele>
        <time>2016-12-20T11:14:48Z</time>
      </trkpt>
      <trkpt lat="45.84963" lon="6.15007">
        <ele>454.36</ele>
        <time>2016-12-20T11:14:49Z</time>
      </trkpt>
      <trkpt lat="45.84968" lon="6.15004">
        <ele>454.36</ele>
        <time>2016-12-20T11:14:50Z</time>
      </trkpt>
      <trkpt lat="45.84973" lon="6.15001">
        <ele>453.88</ele>
        <time>2016-12-20T11:14:51Z</time>
      </trkpt>
      <trkpt lat="45.84978" lon="6.14998">
        <ele>453.88</ele>
        <time>2016-12-20T11:14:52Z</time>
      </trkpt>
      <trkpt lat="45.85056" lon="6.14947">
        <ele>453.88</ele>
        <time>2016-12-20T11:15:08Z</time>
      </trkpt>
      <trkpt lat="45.85123" lon="6.14899">
        <ele>454.36</ele>
        <time>2016-12-20T11:15:24Z</time>
      </trkpt>
      <trkpt lat="45.8519" lon="6.14837">
        <ele>453.4</ele>
        <time>2016-12-20T11:15:39Z</time>
      </trkpt>
      <trkpt lat="45.85235" lon="6.14796">
        <ele>453.4</ele>
        <time>2016-12-20T11:15:49Z</time>
      </trkpt>
      <trkpt lat="45.8524" lon="6.14791">
        <ele>452.92</ele>
        <time>2016-12-20T11:15:50Z</time>
      </trkpt>
      <trkpt lat="45.85244" lon="6.14787">
        <ele>452.92</ele>
        <time>2016-12-20T11:15:51Z</time>
      </trkpt>
      <trkpt lat="45.85261" lon="6.14771">
        <ele>452.92</ele>
        <time>2016-12-20T11:15:55Z</time>
      </trkpt>
      <trkpt lat="45.85265" lon="6.14767">
        <ele>452.92</ele>
        <time>2016-12-20T11:15:56Z</time>
      </trkpt>
      <trkpt lat="45.85269" lon="6.14763">
        <ele>452.92</ele>
        <time>2016-12-20T11:15:57Z</time>
      </trkpt>
      <trkpt lat="45.85333" lon="6.14703">
        <ele>452.92</ele>
        <time>2016-12-20T11:16:11Z</time>
      </trkpt>
      <trkpt lat="45.85399" lon="6.14659">
        <ele>453.4</ele>
        <time>2016-12-20T11:16:25Z</time>
      </trkpt>
      <trkpt lat="45.85468" lon="6.14638">
        <ele>451.48</ele>
        <time>2016-12-20T11:16:38Z</time>
      </trkpt>
      <trkpt lat="45.85496" lon="6.14638">
        <ele>453.4</ele>
        <time>2016-12-20T11:16:43Z</time>
      </trkpt>
      <trkpt lat="45.85501" lon="6.14637">
        <ele>453.88</ele>
        <time>2016-12-20T11:16:44Z</time>
      </trkpt>
      <trkpt lat="45.85506" lon="6.14636">
        <ele>454.36</ele>
        <time>2016-12-20T11:16:45Z</time>
      </trkpt>
      <trkpt lat="45.85511" lon="6.14636">
        <ele>454.36</ele>
        <time>2016-12-20T11:16:46Z</time>
      </trkpt>
      <trkpt lat="45.85516" lon="6.14636">
        <ele>454.36</ele>
        <time>2016-12-20T11:16:47Z</time>
      </trkpt>
      <trkpt lat="45.85586" lon="6.14627">
        <ele>455.32</ele>
        <time>2016-12-20T11:17:01Z</time>
      </trkpt>
      <trkpt lat="45.8565" lon="6.14596">
        <ele>455.8</ele>
        <time>2016-12-20T11:17:15Z</time>
      </trkpt>
      <trkpt lat="45.85654" lon="6.14593">
        <ele>455.8</ele>
        <time>2016-12-20T11:17:16Z</time>
      </trkpt>
      <trkpt lat="45.85659" lon="6.14589">
        <ele>455.8</ele>
        <time>2016-12-20T11:17:17Z</time>
      </trkpt>
      <trkpt lat="45.85708" lon="6.1454">
        <ele>455.32</ele>
        <time>2016-12-20T11:17:29Z</time>
      </trkpt>
      <trkpt lat="45.85714" lon="6.14531">
        <ele>455.32</ele>
        <time>2016-12-20T11:17:31Z</time>
      </trkpt>
      <trkpt lat="45.85717" lon="6.14526">
        <ele>455.32</ele>
        <time>2016-12-20T11:17:32Z</time>
      </trkpt>
      <trkpt lat="45.8572" lon="6.14522">
        <ele>455.32</ele>
        <time>2016-12-20T11:17:33Z</time>
      </trkpt>
      <trkpt lat="45.85723" lon="6.14518">
        <ele>455.32</ele>
        <time>2016-12-20T11:17:34Z</time>
      </trkpt>
      <trkpt lat="45.85726" lon="6.14513">
        <ele>455.32</ele>
        <time>2016-12-20T11:17:35Z</time>
      </trkpt>
      <trkpt lat="45.85728" lon="6.14509">
        <ele>455.32</ele>
        <time>2016-12-20T11:17:36Z</time>
      </trkpt>
      <trkpt lat="45.85768" lon="6.14443">
        <ele>454.36</ele>
        <time>2016-12-20T11:17:51Z</time>
      </trkpt>
      <trkpt lat="45.85777" lon="6.14427">
        <ele>453.88</ele>
        <time>2016-12-20T11:17:54Z</time>
      </trkpt>
      <trkpt lat="45.8578" lon="6.14422">
        <ele>453.88</ele>
        <time>2016-12-20T11:17:55Z</time>
      </trkpt>
      <trkpt lat="45.85788" lon="6.14408">
        <ele>453.88</ele>
        <time>2016-12-20T11:17:58Z</time>
      </trkpt>
      <trkpt lat="45.85791" lon="6.14403">
        <ele>453.88</ele>
        <time>2016-12-20T11:17:59Z</time>
      </trkpt>
      <trkpt lat="45.85794" lon="6.14398">
        <ele>453.88</ele>
        <time>2016-12-20T11:18:00Z</time>
      </trkpt>
      <trkpt lat="45.85852" lon="6.1433">
        <ele>452.44</ele>
        <time>2016-12-20T11:18:14Z</time>
      </trkpt>
      <trkpt lat="45.85887" lon="6.14303">
        <ele>452.92</ele>
        <time>2016-12-20T11:18:22Z</time>
      </trkpt>
      <trkpt lat="45.85891" lon="6.14301">
        <ele>452.44</ele>
        <time>2016-12-20T11:18:23Z</time>
      </trkpt>
      <trkpt lat="45.85921" lon="6.14292">
        <ele>452.92</ele>
        <time>2016-12-20T11:18:31Z</time>
      </trkpt>
      <trkpt lat="45.85925" lon="6.14293">
        <ele>452.92</ele>
        <time>2016-12-20T11:18:32Z</time>
      </trkpt>
      <trkpt lat="45.85928" lon="6.14292">
        <ele>452.92</ele>
        <time>2016-12-20T11:18:33Z</time>
      </trkpt>
      <trkpt lat="45.85931" lon="6.1429">
        <ele>453.4</ele>
        <time>2016-12-20T11:18:34Z</time>
      </trkpt>
      <trkpt lat="45.85934" lon="6.14288">
        <ele>453.4</ele>
        <time>2016-12-20T11:18:35Z</time>
      </trkpt>
      <trkpt lat="45.85937" lon="6.14287">
        <ele>453.4</ele>
        <time>2016-12-20T11:18:36Z</time>
      </trkpt>
      <trkpt lat="45.8594" lon="6.14288">
        <ele>452.92</ele>
        <time>2016-12-20T11:18:37Z</time>
      </trkpt>
      <trkpt lat="45.85944" lon="6.14287">
        <ele>452.92</ele>
        <time>2016-12-20T11:18:38Z</time>
      </trkpt>
      <trkpt lat="45.85947" lon="6.14284">
        <ele>452.92</ele>
        <time>2016-12-20T11:18:39Z</time>
      </trkpt>
      <trkpt lat="45.85949" lon="6.1428">
        <ele>452.92</ele>
        <time>2016-12-20T11:18:40Z</time>
      </trkpt>
      <trkpt lat="45.85952" lon="6.14276">
        <ele>452.92</ele>
        <time>2016-12-20T11:18:41Z</time>
      </trkpt>
      <trkpt lat="45.85994" lon="6.14231">
        <ele>453.4</ele>
        <time>2016-12-20T11:18:55Z</time>
      </trkpt>
      <trkpt lat="45.85999" lon="6.1423">
        <ele>453.4</ele>
        <time>2016-12-20T11:18:56Z</time>
      </trkpt>
      <trkpt lat="45.86012" lon="6.14228">
        <ele>452.92</ele>
        <time>2016-12-20T11:18:59Z</time>
      </trkpt>
      <trkpt lat="45.86062" lon="6.14239">
        <ele>452.92</ele>
        <time>2016-12-20T11:19:10Z</time>
      </trkpt>
      <trkpt lat="45.8608" lon="6.14246">
        <ele>452.92</ele>
        <time>2016-12-20T11:19:14Z</time>
      </trkpt>
      <trkpt lat="45.86147" lon="6.14275">
        <ele>452.92</ele>
        <time>2016-12-20T11:19:29Z</time>
      </trkpt>
      <trkpt lat="45.86152" lon="6.14277">
        <ele>452.92</ele>
        <time>2016-12-20T11:19:30Z</time>
      </trkpt>
      <trkpt lat="45.86195" lon="6.14293">
        <ele>453.4</ele>
        <time>2016-12-20T11:19:42Z</time>
      </trkpt>
      <trkpt lat="45.86207" lon="6.14301">
        <ele>452.92</ele>
        <time>2016-12-20T11:19:45Z</time>
      </trkpt>
      <trkpt lat="45.86211" lon="6.14305">
        <ele>452.92</ele>
        <time>2016-12-20T11:19:46Z</time>
      </trkpt>
      <trkpt lat="45.86215" lon="6.14309">
        <ele>452.92</ele>
        <time>2016-12-20T11:19:47Z</time>
      </trkpt>
      <trkpt lat="45.86218" lon="6.14314">
        <ele>452.92</ele>
        <time>2016-12-20T11:19:48Z</time>
      </trkpt>
      <trkpt lat="45.86222" lon="6.14319">
        <ele>452.92</ele>
        <time>2016-12-20T11:19:49Z</time>
      </trkpt>
      <trkpt lat="45.86225" lon="6.14323">
        <ele>452.92</ele>
        <time>2016-12-20T11:19:50Z</time>
      </trkpt>
      <trkpt lat="45.86235" lon="6.14337">
        <ele>452.92</ele>
        <time>2016-12-20T11:19:53Z</time>
      </trkpt>
      <trkpt lat="45.86239" lon="6.14341">
        <ele>452.44</ele>
        <time>2016-12-20T11:19:54Z</time>
      </trkpt>
      <trkpt lat="45.86243" lon="6.14343">
        <ele>452.92</ele>
        <time>2016-12-20T11:19:55Z</time>
      </trkpt>
      <trkpt lat="45.86317" lon="6.14376">
        <ele>452.92</ele>
        <time>2016-12-20T11:20:11Z</time>
      </trkpt>
      <trkpt lat="45.86349" lon="6.14382">
        <ele>452.44</ele>
        <time>2016-12-20T11:20:18Z</time>
      </trkpt>
      <trkpt lat="45.86391" lon="6.14386">
        <ele>452.92</ele>
        <time>2016-12-20T11:20:27Z</time>
      </trkpt>
      <trkpt lat="45.86396" lon="6.14387">
        <ele>452.44</ele>
        <time>2016-12-20T11:20:28Z</time>
      </trkpt>
      <trkpt lat="45.86401" lon="6.14388">
        <ele>452.44</ele>
        <time>2016-12-20T11:20:29Z</time>
      </trkpt>
      <trkpt lat="45.86447" lon="6.14386">
        <ele>452.44</ele>
        <time>2016-12-20T11:20:38Z</time>
      </trkpt>
      <trkpt lat="45.86452" lon="6.14385">
        <ele>452.92</ele>
        <time>2016-12-20T11:20:39Z</time>
      </trkpt>
      <trkpt lat="45.86457" lon="6.14384">
        <ele>452.92</ele>
        <time>2016-12-20T11:20:40Z</time>
      </trkpt>
      <trkpt lat="45.86487" lon="6.14386">
        <ele>452.92</ele>
        <time>2016-12-20T11:20:46Z</time>
      </trkpt>
      <trkpt lat="45.86527" lon="6.14385">
        <ele>452.92</ele>
        <time>2016-12-20T11:20:54Z</time>
      </trkpt>
      <trkpt lat="45.86601" lon="6.14382">
        <ele>452.92</ele>
        <time>2016-12-20T11:21:09Z</time>
      </trkpt>
      <trkpt lat="45.8668" lon="6.14348">
        <ele>452.44</ele>
        <time>2016-12-20T11:21:25Z</time>
      </trkpt>
      <trkpt lat="45.86702" lon="6.14333">
        <ele>452.92</ele>
        <time>2016-12-20T11:21:31Z</time>
      </trkpt>
      <trkpt lat="45.86707" lon="6.1433">
        <ele>452.92</ele>
        <time>2016-12-20T11:21:32Z</time>
      </trkpt>
      <trkpt lat="45.86711" lon="6.14327">
        <ele>452.92</ele>
        <time>2016-12-20T11:21:33Z</time>
      </trkpt>
      <trkpt lat="45.86738" lon="6.14311">
        <ele>452.92</ele>
        <time>2016-12-20T11:21:39Z</time>
      </trkpt>
      <trkpt lat="45.86742" lon="6.14308">
        <ele>452.92</ele>
        <time>2016-12-20T11:21:40Z</time>
      </trkpt>
      <trkpt lat="45.86747" lon="6.14304">
        <ele>452.92</ele>
        <time>2016-12-20T11:21:41Z</time>
      </trkpt>
      <trkpt lat="45.86751" lon="6.14301">
        <ele>452.92</ele>
        <time>2016-12-20T11:21:42Z</time>
      </trkpt>
      <trkpt lat="45.86756" lon="6.14299">
        <ele>452.92</ele>
        <time>2016-12-20T11:21:43Z</time>
      </trkpt>
      <trkpt lat="45.86793" lon="6.14279">
        <ele>452.44</ele>
        <time>2016-12-20T11:21:52Z</time>
      </trkpt>
      <trkpt lat="45.86811" lon="6.14272">
        <ele>452.92</ele>
        <time>2016-12-20T11:21:56Z</time>
      </trkpt>
      <trkpt lat="45.86815" lon="6.14271">
        <ele>452.92</ele>
        <time>2016-12-20T11:21:57Z</time>
      </trkpt>
      <trkpt lat="45.86836" lon="6.14266">
        <ele>452.92</ele>
        <time>2016-12-20T11:22:02Z</time>
      </trkpt>
      <trkpt lat="45.86849" lon="6.14264">
        <ele>452.92</ele>
        <time>2016-12-20T11:22:05Z</time>
      </trkpt>
      <trkpt lat="45.86854" lon="6.14264">
        <ele>452.92</ele>
        <time>2016-12-20T11:22:06Z</time>
      </trkpt>
      <trkpt lat="45.86867" lon="6.14263">
        <ele>452.92</ele>
        <time>2016-12-20T11:22:09Z</time>
      </trkpt>
      <trkpt lat="45.86923" lon="6.1427">
        <ele>452.92</ele>
        <time>2016-12-20T11:22:21Z</time>
      </trkpt>
      <trkpt lat="45.86937" lon="6.14277">
        <ele>453.4</ele>
        <time>2016-12-20T11:22:24Z</time>
      </trkpt>
      <trkpt lat="45.86942" lon="6.14278">
        <ele>453.4</ele>
        <time>2016-12-20T11:22:25Z</time>
      </trkpt>
      <trkpt lat="45.86947" lon="6.1428">
        <ele>453.4</ele>
        <time>2016-12-20T11:22:26Z</time>
      </trkpt>
      <trkpt lat="45.87017" lon="6.14318">
        <ele>453.88</ele>
        <time>2016-12-20T11:22:41Z</time>
      </trkpt>
      <trkpt lat="45.8708" lon="6.14354">
        <ele>454.36</ele>
        <time>2016-12-20T11:22:56Z</time>
      </trkpt>
      <trkpt lat="45.87112" lon="6.14367">
        <ele>454.36</ele>
        <time>2016-12-20T11:23:08Z</time>
      </trkpt>
      <trkpt lat="45.87126" lon="6.14371">
        <ele>453.88</ele>
        <time>2016-12-20T11:23:12Z</time>
      </trkpt>
      <trkpt lat="45.87135" lon="6.14374">
        <ele>453.88</ele>
        <time>2016-12-20T11:23:14Z</time>
      </trkpt>
      <trkpt lat="45.87189" lon="6.14382">
        <ele>453.88</ele>
        <time>2016-12-20T11:23:26Z</time>
      </trkpt>
      <trkpt lat="45.87194" lon="6.14383">
        <ele>453.88</ele>
        <time>2016-12-20T11:23:27Z</time>
      </trkpt>
      <trkpt lat="45.87277" lon="6.14374">
        <ele>453.88</ele>
        <time>2016-12-20T11:23:45Z</time>
      </trkpt>
      <trkpt lat="45.87355" lon="6.14346">
        <ele>453.88</ele>
        <time>2016-12-20T11:24:02Z</time>
      </trkpt>
      <trkpt lat="45.87364" lon="6.14342">
        <ele>453.4</ele>
        <time>2016-12-20T11:24:04Z</time>
      </trkpt>
      <trkpt lat="45.87368" lon="6.14341">
        <ele>453.88</ele>
        <time>2016-12-20T11:24:05Z</time>
      </trkpt>
      <trkpt lat="45.87442" lon="6.14314">
        <ele>454.36</ele>
        <time>2016-12-20T11:24:22Z</time>
      </trkpt>
      <trkpt lat="45.87489" lon="6.14303">
        <ele>454.36</ele>
        <time>2016-12-20T11:24:34Z</time>
      </trkpt>
      <trkpt lat="45.87494" lon="6.14302">
        <ele>454.36</ele>
        <time>2016-12-20T11:24:35Z</time>
      </trkpt>
      <trkpt lat="45.8756" lon="6.14305">
        <ele>454.84</ele>
        <time>2016-12-20T11:24:50Z</time>
      </trkpt>
      <trkpt lat="45.87584" lon="6.14306">
        <ele>454.84</ele>
        <time>2016-12-20T11:24:57Z</time>
      </trkpt>
      <trkpt lat="45.87597" lon="6.14307">
        <ele>455.32</ele>
        <time>2016-12-20T11:25:00Z</time>
      </trkpt>
      <trkpt lat="45.87601" lon="6.14307">
        <ele>454.84</ele>
        <time>2016-12-20T11:25:01Z</time>
      </trkpt>
      <trkpt lat="45.87657" lon="6.14307">
        <ele>455.32</ele>
        <time>2016-12-20T11:25:15Z</time>
      </trkpt>
      <trkpt lat="45.8771" lon="6.14296">
        <ele>455.8</ele>
        <time>2016-12-20T11:25:29Z</time>
      </trkpt>
      <trkpt lat="45.87768" lon="6.14278">
        <ele>456.28</ele>
        <time>2016-12-20T11:25:44Z</time>
      </trkpt>
      <trkpt lat="45.87822" lon="6.14261">
        <ele>456.28</ele>
        <time>2016-12-20T11:25:58Z</time>
      </trkpt>
      <trkpt lat="45.87841" lon="6.1426">
        <ele>456.76</ele>
        <time>2016-12-20T11:26:03Z</time>
      </trkpt>
      <trkpt lat="45.87845" lon="6.1426">
        <ele>456.76</ele>
        <time>2016-12-20T11:26:04Z</time>
      </trkpt>
      <trkpt lat="45.87853" lon="6.14259">
        <ele>456.76</ele>
        <time>2016-12-20T11:26:06Z</time>
      </trkpt>
      <trkpt lat="45.87906" lon="6.14262">
        <ele>456.76</ele>
        <time>2016-12-20T11:26:19Z</time>
      </trkpt>
      <trkpt lat="45.87959" lon="6.14265">
        <ele>457.24</ele>
        <time>2016-12-20T11:26:32Z</time>
      </trkpt>
      <trkpt lat="45.87963" lon="6.14265">
        <ele>457.24</ele>
        <time>2016-12-20T11:26:33Z</time>
      </trkpt>
      <trkpt lat="45.88039" lon="6.14254">
        <ele>457.24</ele>
        <time>2016-12-20T11:26:50Z</time>
      </trkpt>
      <trkpt lat="45.88083" lon="6.14235">
        <ele>457.24</ele>
        <time>2016-12-20T11:27:00Z</time>
      </trkpt>
      <trkpt lat="45.88114" lon="6.14213">
        <ele>457.72</ele>
        <time>2016-12-20T11:27:09Z</time>
      </trkpt>
      <trkpt lat="45.88148" lon="6.14202">
        <ele>458.21</ele>
        <time>2016-12-20T11:27:18Z</time>
      </trkpt>
      <trkpt lat="45.88156" lon="6.14204">
        <ele>458.21</ele>
        <time>2016-12-20T11:27:20Z</time>
      </trkpt>
      <trkpt lat="45.88161" lon="6.14203">
        <ele>457.72</ele>
        <time>2016-12-20T11:27:21Z</time>
      </trkpt>
      <trkpt lat="45.88165" lon="6.14202">
        <ele>457.72</ele>
        <time>2016-12-20T11:27:22Z</time>
      </trkpt>
      <trkpt lat="45.88173" lon="6.14201">
        <ele>457.24</ele>
        <time>2016-12-20T11:27:24Z</time>
      </trkpt>
      <trkpt lat="45.88195" lon="6.14201">
        <ele>456.28</ele>
        <time>2016-12-20T11:27:29Z</time>
      </trkpt>
      <trkpt lat="45.88263" lon="6.142">
        <ele>452.44</ele>
        <time>2016-12-20T11:27:41Z</time>
      </trkpt>
      <trkpt lat="45.88336" lon="6.14206">
        <ele>451.48</ele>
        <time>2016-12-20T11:27:52Z</time>
      </trkpt>
      <trkpt lat="45.88354" lon="6.1421">
        <ele>451</ele>
        <time>2016-12-20T11:27:55Z</time>
      </trkpt>
      <trkpt lat="45.88366" lon="6.14214">
        <ele>450.52</ele>
        <time>2016-12-20T11:27:57Z</time>
      </trkpt>
      <trkpt lat="45.88408" lon="6.14223">
        <ele>451</ele>
        <time>2016-12-20T11:28:04Z</time>
      </trkpt>
      <trkpt lat="45.88499" lon="6.14237">
        <ele>451.48</ele>
        <time>2016-12-20T11:28:20Z</time>
      </trkpt>
      <trkpt lat="45.8857" lon="6.1426">
        <ele>451.48</ele>
        <time>2016-12-20T11:28:33Z</time>
      </trkpt>
      <trkpt lat="45.88644" lon="6.143">
        <ele>451</ele>
        <time>2016-12-20T11:28:47Z</time>
      </trkpt>
      <trkpt lat="45.8866" lon="6.14308">
        <ele>451</ele>
        <time>2016-12-20T11:28:50Z</time>
      </trkpt>
      <trkpt lat="45.88741" lon="6.1434">
        <ele>450.52</ele>
        <time>2016-12-20T11:29:05Z</time>
      </trkpt>
      <trkpt lat="45.88803" lon="6.14358">
        <ele>450.03</ele>
        <time>2016-12-20T11:29:17Z</time>
      </trkpt>
      <trkpt lat="45.88818" lon="6.14362">
        <ele>450.03</ele>
        <time>2016-12-20T11:29:20Z</time>
      </trkpt>
      <trkpt lat="45.88823" lon="6.14363">
        <ele>450.03</ele>
        <time>2016-12-20T11:29:21Z</time>
      </trkpt>
      <trkpt lat="45.88828" lon="6.14364">
        <ele>450.03</ele>
        <time>2016-12-20T11:29:22Z</time>
      </trkpt>
      <trkpt lat="45.88834" lon="6.14365">
        <ele>450.52</ele>
        <time>2016-12-20T11:29:23Z</time>
      </trkpt>
      <trkpt lat="45.88839" lon="6.14365">
        <ele>450.52</ele>
        <time>2016-12-20T11:29:24Z</time>
      </trkpt>
      <trkpt lat="45.88844" lon="6.14366">
        <ele>450.52</ele>
        <time>2016-12-20T11:29:25Z</time>
      </trkpt>
      <trkpt lat="45.88849" lon="6.14366">
        <ele>450.52</ele>
        <time>2016-12-20T11:29:26Z</time>
      </trkpt>
      <trkpt lat="45.88854" lon="6.14366">
        <ele>450.52</ele>
        <time>2016-12-20T11:29:27Z</time>
      </trkpt>
      <trkpt lat="45.889" lon="6.14365">
        <ele>451.48</ele>
        <time>2016-12-20T11:29:38Z</time>
      </trkpt>
      <trkpt lat="45.88972" lon="6.14357">
        <ele>451.96</ele>
        <time>2016-12-20T11:29:53Z</time>
      </trkpt>
      <trkpt lat="45.8899" lon="6.14346">
        <ele>451.96</ele>
        <time>2016-12-20T11:29:57Z</time>
      </trkpt>
      <trkpt lat="45.88994" lon="6.14343">
        <ele>451.48</ele>
        <time>2016-12-20T11:29:58Z</time>
      </trkpt>
      <trkpt lat="45.89045" lon="6.14275">
        <ele>451.48</ele>
        <time>2016-12-20T11:30:12Z</time>
      </trkpt>
      <trkpt lat="45.89051" lon="6.14256">
        <ele>451.48</ele>
        <time>2016-12-20T11:30:15Z</time>
      </trkpt>
      <trkpt lat="45.89052" lon="6.14251">
        <ele>451.48</ele>
        <time>2016-12-20T11:30:16Z</time>
      </trkpt>
      <trkpt lat="45.89057" lon="6.14226">
        <ele>451.48</ele>
        <time>2016-12-20T11:30:20Z</time>
      </trkpt>
      <trkpt lat="45.89057" lon="6.14219">
        <ele>451.48</ele>
        <time>2016-12-20T11:30:21Z</time>
      </trkpt>
      <trkpt lat="45.89059" lon="6.14199">
        <ele>451</ele>
        <time>2016-12-20T11:30:24Z</time>
      </trkpt>
      <trkpt lat="45.89059" lon="6.14193">
        <ele>451</ele>
        <time>2016-12-20T11:30:25Z</time>
      </trkpt>
      <trkpt lat="45.89059" lon="6.14188">
        <ele>451</ele>
        <time>2016-12-20T11:30:26Z</time>
      </trkpt>
      <trkpt lat="45.89059" lon="6.14182">
        <ele>450.52</ele>
        <time>2016-12-20T11:30:27Z</time>
      </trkpt>
      <trkpt lat="45.8906" lon="6.14176">
        <ele>450.52</ele>
        <time>2016-12-20T11:30:28Z</time>
      </trkpt>
      <trkpt lat="45.89064" lon="6.14126">
        <ele>449.55</ele>
        <time>2016-12-20T11:30:35Z</time>
      </trkpt>
      <trkpt lat="45.89096" lon="6.14024">
        <ele>450.03</ele>
        <time>2016-12-20T11:30:50Z</time>
      </trkpt>
      <trkpt lat="45.89098" lon="6.14018">
        <ele>450.03</ele>
        <time>2016-12-20T11:30:51Z</time>
      </trkpt>
      <trkpt lat="45.89101" lon="6.14013">
        <ele>450.03</ele>
        <time>2016-12-20T11:30:52Z</time>
      </trkpt>
      <trkpt lat="45.89103" lon="6.14008">
        <ele>449.55</ele>
        <time>2016-12-20T11:30:53Z</time>
      </trkpt>
      <trkpt lat="45.89106" lon="6.14002">
        <ele>450.03</ele>
        <time>2016-12-20T11:30:54Z</time>
      </trkpt>
      <trkpt lat="45.89108" lon="6.13997">
        <ele>450.03</ele>
        <time>2016-12-20T11:30:55Z</time>
      </trkpt>
      <trkpt lat="45.89111" lon="6.13992">
        <ele>450.03</ele>
        <time>2016-12-20T11:30:56Z</time>
      </trkpt>
      <trkpt lat="45.89114" lon="6.13987">
        <ele>450.03</ele>
        <time>2016-12-20T11:30:57Z</time>
      </trkpt>
      <trkpt lat="45.89116" lon="6.13983">
        <ele>449.55</ele>
        <time>2016-12-20T11:30:58Z</time>
      </trkpt>
      <trkpt lat="45.89119" lon="6.13978">
        <ele>449.55</ele>
        <time>2016-12-20T11:30:59Z</time>
      </trkpt>
      <trkpt lat="45.89122" lon="6.13972">
        <ele>450.03</ele>
        <time>2016-12-20T11:31:00Z</time>
      </trkpt>
      <trkpt lat="45.89125" lon="6.13967">
        <ele>450.03</ele>
        <time>2016-12-20T11:31:01Z</time>
      </trkpt>
      <trkpt lat="45.89145" lon="6.13932">
        <ele>450.03</ele>
        <time>2016-12-20T11:31:08Z</time>
      </trkpt>
      <trkpt lat="45.89148" lon="6.13927">
        <ele>450.52</ele>
        <time>2016-12-20T11:31:09Z</time>
      </trkpt>
      <trkpt lat="45.89191" lon="6.13853">
        <ele>450.52</ele>
        <time>2016-12-20T11:31:23Z</time>
      </trkpt>
      <trkpt lat="45.89248" lon="6.13755">
        <ele>450.03</ele>
        <time>2016-12-20T11:31:40Z</time>
      </trkpt>
      <trkpt lat="45.89258" lon="6.13738">
        <ele>450.52</ele>
        <time>2016-12-20T11:31:43Z</time>
      </trkpt>
      <trkpt lat="45.89308" lon="6.1366">
        <ele>449.55</ele>
        <time>2016-12-20T11:31:57Z</time>
      </trkpt>
      <trkpt lat="45.89325" lon="6.1364">
        <ele>449.55</ele>
        <time>2016-12-20T11:32:01Z</time>
      </trkpt>
      <trkpt lat="45.89374" lon="6.13565">
        <ele>450.03</ele>
        <time>2016-12-20T11:32:15Z</time>
      </trkpt>
      <trkpt lat="45.89397" lon="6.13532">
        <ele>450.03</ele>
        <time>2016-12-20T11:32:22Z</time>
      </trkpt>
      <trkpt lat="45.894" lon="6.13527">
        <ele>450.03</ele>
        <time>2016-12-20T11:32:23Z</time>
      </trkpt>
      <trkpt lat="45.89412" lon="6.13509">
        <ele>450.03</ele>
        <time>2016-12-20T11:32:27Z</time>
      </trkpt>
      <trkpt lat="45.89415" lon="6.13503">
        <ele>450.03</ele>
        <time>2016-12-20T11:32:28Z</time>
      </trkpt>
      <trkpt lat="45.89417" lon="6.13498">
        <ele>450.03</ele>
        <time>2016-12-20T11:32:29Z</time>
      </trkpt>
      <trkpt lat="45.8942" lon="6.13493">
        <ele>450.03</ele>
        <time>2016-12-20T11:32:30Z</time>
      </trkpt>
      <trkpt lat="45.89423" lon="6.13488">
        <ele>450.03</ele>
        <time>2016-12-20T11:32:31Z</time>
      </trkpt>
      <trkpt lat="45.89427" lon="6.13484">
        <ele>450.03</ele>
        <time>2016-12-20T11:32:32Z</time>
      </trkpt>
      <trkpt lat="45.89444" lon="6.13468">
        <ele>450.03</ele>
        <time>2016-12-20T11:32:37Z</time>
      </trkpt>
      <trkpt lat="45.89446" lon="6.13471">
        <ele>450.52</ele>
        <time>2016-12-20T11:32:38Z</time>
      </trkpt>
      <trkpt lat="45.89448" lon="6.13479">
        <ele>450.52</ele>
        <time>2016-12-20T11:32:40Z</time>
      </trkpt>
      <trkpt lat="45.89451" lon="6.13481">
        <ele>450.52</ele>
        <time>2016-12-20T11:32:41Z</time>
      </trkpt>
      <trkpt lat="45.89454" lon="6.13481">
        <ele>450.03</ele>
        <time>2016-12-20T11:32:42Z</time>
      </trkpt>
      <trkpt lat="45.89458" lon="6.13479">
        <ele>450.03</ele>
        <time>2016-12-20T11:32:43Z</time>
      </trkpt>
      <trkpt lat="45.89461" lon="6.13476">
        <ele>450.03</ele>
        <time>2016-12-20T11:32:44Z</time>
      </trkpt>
      <trkpt lat="45.89464" lon="6.13473">
        <ele>450.03</ele>
        <time>2016-12-20T11:32:45Z</time>
      </trkpt>
      <trkpt lat="45.89498" lon="6.13448">
        <ele>449.55</ele>
        <time>2016-12-20T11:32:54Z</time>
      </trkpt>
      <trkpt lat="45.89501" lon="6.13446">
        <ele>449.55</ele>
        <time>2016-12-20T11:32:55Z</time>
      </trkpt>
      <trkpt lat="45.89505" lon="6.13444">
        <ele>449.55</ele>
        <time>2016-12-20T11:32:56Z</time>
      </trkpt>
      <trkpt lat="45.89513" lon="6.13438">
        <ele>449.55</ele>
        <time>2016-12-20T11:32:58Z</time>
      </trkpt>
      <trkpt lat="45.8954" lon="6.13417">
        <ele>449.55</ele>
        <time>2016-12-20T11:33:06Z</time>
      </trkpt>
      <trkpt lat="45.89569" lon="6.13398">
        <ele>450.03</ele>
        <time>2016-12-20T11:33:14Z</time>
      </trkpt>
      <trkpt lat="45.89573" lon="6.13399">
        <ele>450.03</ele>
        <time>2016-12-20T11:33:15Z</time>
      </trkpt>
      <trkpt lat="45.89578" lon="6.134">
        <ele>450.03</ele>
        <time>2016-12-20T11:33:16Z</time>
      </trkpt>
      <trkpt lat="45.89581" lon="6.13402">
        <ele>450.03</ele>
        <time>2016-12-20T11:33:17Z</time>
      </trkpt>
      <trkpt lat="45.89585" lon="6.13405">
        <ele>450.03</ele>
        <time>2016-12-20T11:33:18Z</time>
      </trkpt>
      <trkpt lat="45.89588" lon="6.13409">
        <ele>450.52</ele>
        <time>2016-12-20T11:33:19Z</time>
      </trkpt>
      <trkpt lat="45.89591" lon="6.13414">
        <ele>450.03</ele>
        <time>2016-12-20T11:33:20Z</time>
      </trkpt>
      <trkpt lat="45.89596" lon="6.13424">
        <ele>450.03</ele>
        <time>2016-12-20T11:33:22Z</time>
      </trkpt>
      <trkpt lat="45.89607" lon="6.13443">
        <ele>450.03</ele>
        <time>2016-12-20T11:33:26Z</time>
      </trkpt>
      <trkpt lat="45.89609" lon="6.13448">
        <ele>450.03</ele>
        <time>2016-12-20T11:33:27Z</time>
      </trkpt>
      <trkpt lat="45.89612" lon="6.13453">
        <ele>450.03</ele>
        <time>2016-12-20T11:33:28Z</time>
      </trkpt>
      <trkpt lat="45.89615" lon="6.13458">
        <ele>450.03</ele>
        <time>2016-12-20T11:33:29Z</time>
      </trkpt>
      <trkpt lat="45.89617" lon="6.13463">
        <ele>450.03</ele>
        <time>2016-12-20T11:33:30Z</time>
      </trkpt>
      <trkpt lat="45.8962" lon="6.13468">
        <ele>450.03</ele>
        <time>2016-12-20T11:33:31Z</time>
      </trkpt>
      <trkpt lat="45.89627" lon="6.13478">
        <ele>449.55</ele>
        <time>2016-12-20T11:33:33Z</time>
      </trkpt>
      <trkpt lat="45.89631" lon="6.13479">
        <ele>450.03</ele>
        <time>2016-12-20T11:33:34Z</time>
      </trkpt>
      <trkpt lat="45.89635" lon="6.13477">
        <ele>449.55</ele>
        <time>2016-12-20T11:33:35Z</time>
      </trkpt>
      <trkpt lat="45.89639" lon="6.13473">
        <ele>449.55</ele>
        <time>2016-12-20T11:33:36Z</time>
      </trkpt>
      <trkpt lat="45.89641" lon="6.13469">
        <ele>450.03</ele>
        <time>2016-12-20T11:33:37Z</time>
      </trkpt>
      <trkpt lat="45.89674" lon="6.13429">
        <ele>450.03</ele>
        <time>2016-12-20T11:33:50Z</time>
      </trkpt>
      <trkpt lat="45.89721" lon="6.13376">
        <ele>449.55</ele>
        <time>2016-12-20T11:34:06Z</time>
      </trkpt>
      <trkpt lat="45.89772" lon="6.13306">
        <ele>450.03</ele>
        <time>2016-12-20T11:34:24Z</time>
      </trkpt>
      <trkpt lat="45.89786" lon="6.13275">
        <ele>450.52</ele>
        <time>2016-12-20T11:34:34Z</time>
      </trkpt>
      <trkpt lat="45.89787" lon="6.13273">
        <ele>450.03</ele>
        <time>2016-12-20T11:34:47Z</time>
      </trkpt>
      <trkpt lat="45.89787" lon="6.13274">
        <ele>449.55</ele>
        <time>2016-12-20T11:35:24Z</time>
      </trkpt>
      <trkpt lat="45.89787" lon="6.13274">
        <ele>449.55</ele>
        <time>2016-12-20T11:36:01Z</time>
      </trkpt>
      <trkpt lat="45.89787" lon="6.13273">
        <ele>449.55</ele>
        <time>2016-12-20T11:36:42Z</time>
      </trkpt>
      <trkpt lat="45.89787" lon="6.13273">
        <ele>450.03</ele>
        <time>2016-12-20T11:37:16Z</time>
      </trkpt>
      <trkpt lat="45.8979" lon="6.13269">
        <ele>450.52</ele>
        <time>2016-12-20T11:37:35Z</time>
      </trkpt>
      <trkpt lat="45.89801" lon="6.13232">
        <ele>450.03</ele>
        <time>2016-12-20T11:37:47Z</time>
      </trkpt>
      <trkpt lat="45.89808" lon="6.13177">
        <ele>450.03</ele>
        <time>2016-12-20T11:38:00Z</time>
      </trkpt>
      <trkpt lat="45.8981" lon="6.13131">
        <ele>450.52</ele>
        <time>2016-12-20T11:38:11Z</time>
      </trkpt>
      <trkpt lat="45.89807" lon="6.13092">
        <ele>450.03</ele>
        <time>2016-12-20T11:38:20Z</time>
      </trkpt>
      <trkpt lat="45.89809" lon="6.13014">
        <ele>450.03</ele>
        <time>2016-12-20T11:38:35Z</time>
      </trkpt>
      <trkpt lat="45.89809" lon="6.12926">
        <ele>450.52</ele>
        <time>2016-12-20T11:38:52Z</time>
      </trkpt>
      <trkpt lat="45.89811" lon="6.1291">
        <ele>451.48</ele>
        <time>2016-12-20T11:38:56Z</time>
      </trkpt>
      <trkpt lat="45.89812" lon="6.12906">
        <ele>451.96</ele>
        <time>2016-12-20T11:38:57Z</time>
      </trkpt>
      <trkpt lat="45.89813" lon="6.12902">
        <ele>451.48</ele>
        <time>2016-12-20T11:38:58Z</time>
      </trkpt>
      <trkpt lat="45.89815" lon="6.12899">
        <ele>451.96</ele>
        <time>2016-12-20T11:38:59Z</time>
      </trkpt>
      <trkpt lat="45.89816" lon="6.12895">
        <ele>451.96</ele>
        <time>2016-12-20T11:39:00Z</time>
      </trkpt>
      <trkpt lat="45.89817" lon="6.12891">
        <ele>451.96</ele>
        <time>2016-12-20T11:39:01Z</time>
      </trkpt>
      <trkpt lat="45.89825" lon="6.12831">
        <ele>451</ele>
        <time>2016-12-20T11:39:13Z</time>
      </trkpt>
      <trkpt lat="45.8984" lon="6.12785">
        <ele>450.52</ele>
        <time>2016-12-20T11:39:24Z</time>
      </trkpt>
      <trkpt lat="45.89846" lon="6.12775">
        <ele>451</ele>
        <time>2016-12-20T11:39:28Z</time>
      </trkpt>
      <trkpt lat="45.89848" lon="6.12775">
        <ele>451.48</ele>
        <time>2016-12-20T11:39:29Z</time>
      </trkpt>
      <trkpt lat="45.89849" lon="6.12776">
        <ele>451.96</ele>
        <time>2016-12-20T11:39:30Z</time>
      </trkpt>
      <trkpt lat="45.8985" lon="6.12777">
        <ele>451.96</ele>
        <time>2016-12-20T11:39:31Z</time>
      </trkpt>
      <trkpt lat="45.89851" lon="6.12778">
        <ele>451.96</ele>
        <time>2016-12-20T11:39:32Z</time>
      </trkpt>
      <trkpt lat="45.89853" lon="6.12778">
        <ele>451.96</ele>
        <time>2016-12-20T11:39:33Z</time>
      </trkpt>
      <trkpt lat="45.89854" lon="6.12779">
        <ele>451.96</ele>
        <time>2016-12-20T11:39:34Z</time>
      </trkpt>
      <trkpt lat="45.89855" lon="6.1278">
        <ele>452.44</ele>
        <time>2016-12-20T11:39:35Z</time>
      </trkpt>
      <trkpt lat="45.89856" lon="6.12782">
        <ele>451.96</ele>
        <time>2016-12-20T11:39:36Z</time>
      </trkpt>
      <trkpt lat="45.89857" lon="6.12783">
        <ele>452.44</ele>
        <time>2016-12-20T11:39:37Z</time>
      </trkpt>
      <trkpt lat="45.89858" lon="6.12785">
        <ele>451.96</ele>
        <time>2016-12-20T11:39:38Z</time>
      </trkpt>
      <trkpt lat="45.89859" lon="6.12787">
        <ele>451.96</ele>
        <time>2016-12-20T11:39:39Z</time>
      </trkpt>
      <trkpt lat="45.89861" lon="6.12788">
        <ele>451.96</ele>
        <time>2016-12-20T11:39:40Z</time>
      </trkpt>
      <trkpt lat="45.89863" lon="6.12788">
        <ele>451.96</ele>
        <time>2016-12-20T11:39:41Z</time>
      </trkpt>
      <trkpt lat="45.89864" lon="6.12787">
        <ele>451.96</ele>
        <time>2016-12-20T11:39:42Z</time>
      </trkpt>
      <trkpt lat="45.89865" lon="6.12786">
        <ele>451.96</ele>
        <time>2016-12-20T11:39:43Z</time>
      </trkpt>
      <trkpt lat="45.89866" lon="6.12784">
        <ele>451.96</ele>
        <time>2016-12-20T11:39:44Z</time>
      </trkpt>
      <trkpt lat="45.89868" lon="6.12783">
        <ele>451.48</ele>
        <time>2016-12-20T11:39:45Z</time>
      </trkpt>
      <trkpt lat="45.89867" lon="6.12781">
        <ele>451.48</ele>
        <time>2016-12-20T11:39:46Z</time>
      </trkpt>
      <trkpt lat="45.89869" lon="6.12778">
        <ele>451</ele>
        <time>2016-12-20T11:39:57Z</time>
      </trkpt>
      <trkpt lat="45.89871" lon="6.12776">
        <ele>451</ele>
        <time>2016-12-20T11:39:59Z</time>
      </trkpt>
      <trkpt lat="45.89872" lon="6.12775">
        <ele>451</ele>
        <time>2016-12-20T11:40:00Z</time>
      </trkpt>
      <trkpt lat="45.89873" lon="6.12774">
        <ele>451</ele>
        <time>2016-12-20T11:40:01Z</time>
      </trkpt>
      <trkpt lat="45.89874" lon="6.12773">
        <ele>451</ele>
        <time>2016-12-20T11:40:02Z</time>
      </trkpt>
      <trkpt lat="45.89875" lon="6.12772">
        <ele>451</ele>
        <time>2016-12-20T11:40:03Z</time>
      </trkpt>
      <trkpt lat="45.89876" lon="6.12771">
        <ele>451</ele>
        <time>2016-12-20T11:40:04Z</time>
      </trkpt>
      <trkpt lat="45.8988" lon="6.12771">
        <ele>450.52</ele>
        <time>2016-12-20T11:40:07Z</time>
      </trkpt>
      <trkpt lat="45.89882" lon="6.12771">
        <ele>450.52</ele>
        <time>2016-12-20T11:40:08Z</time>
      </trkpt>
      <trkpt lat="45.89884" lon="6.12771">
        <ele>450.52</ele>
        <time>2016-12-20T11:40:09Z</time>
      </trkpt>
      <trkpt lat="45.89899" lon="6.12766">
        <ele>451</ele>
        <time>2016-12-20T11:40:15Z</time>
      </trkpt>
      <trkpt lat="45.89901" lon="6.12763">
        <ele>451</ele>
        <time>2016-12-20T11:40:16Z</time>
      </trkpt>
      <trkpt lat="45.89903" lon="6.1276">
        <ele>450.52</ele>
        <time>2016-12-20T11:40:17Z</time>
      </trkpt>
      <trkpt lat="45.89905" lon="6.12757">
        <ele>451</ele>
        <time>2016-12-20T11:40:18Z</time>
      </trkpt>
      <trkpt lat="45.89907" lon="6.12755">
        <ele>451</ele>
        <time>2016-12-20T11:40:19Z</time>
      </trkpt>
      <trkpt lat="45.89909" lon="6.12753">
        <ele>451</ele>
        <time>2016-12-20T11:40:20Z</time>
      </trkpt>
      <trkpt lat="45.89911" lon="6.12752">
        <ele>451</ele>
        <time>2016-12-20T11:40:21Z</time>
      </trkpt>
      <trkpt lat="45.89913" lon="6.12752">
        <ele>451</ele>
        <time>2016-12-20T11:40:22Z</time>
      </trkpt>
      <trkpt lat="45.89914" lon="6.12752">
        <ele>451</ele>
        <time>2016-12-20T11:40:23Z</time>
      </trkpt>
      <trkpt lat="45.89916" lon="6.12752">
        <ele>451.48</ele>
        <time>2016-12-20T11:40:24Z</time>
      </trkpt>
      <trkpt lat="45.89917" lon="6.12752">
        <ele>451.48</ele>
        <time>2016-12-20T11:40:25Z</time>
      </trkpt>
      <trkpt lat="45.8992" lon="6.12751">
        <ele>451.48</ele>
        <time>2016-12-20T11:40:34Z</time>
      </trkpt>
      <trkpt lat="45.8992" lon="6.12751">
        <ele>451.48</ele>
        <time>2016-12-20T11:40:42Z</time>
      </trkpt>
      <trkpt lat="45.89922" lon="6.1275">
        <ele>451.48</ele>
        <time>2016-12-20T11:40:43Z</time>
      </trkpt>
      <trkpt lat="45.89923" lon="6.12748">
        <ele>451.48</ele>
        <time>2016-12-20T11:40:44Z</time>
      </trkpt>
      <trkpt lat="45.89925" lon="6.12746">
        <ele>451</ele>
        <time>2016-12-20T11:40:45Z</time>
      </trkpt>
      <trkpt lat="45.89927" lon="6.12744">
        <ele>451.48</ele>
        <time>2016-12-20T11:40:46Z</time>
      </trkpt>
      <trkpt lat="45.89929" lon="6.12742">
        <ele>451.48</ele>
        <time>2016-12-20T11:40:47Z</time>
      </trkpt>
      <trkpt lat="45.89932" lon="6.12738">
        <ele>451</ele>
        <time>2016-12-20T11:40:48Z</time>
      </trkpt>
      <trkpt lat="45.89934" lon="6.12735">
        <ele>451</ele>
        <time>2016-12-20T11:40:49Z</time>
      </trkpt>
      <trkpt lat="45.89961" lon="6.12694">
        <ele>451.48</ele>
        <time>2016-12-20T11:41:00Z</time>
      </trkpt>
      <trkpt lat="45.89967" lon="6.12688">
        <ele>451.48</ele>
        <time>2016-12-20T11:41:02Z</time>
      </trkpt>
      <trkpt lat="45.89971" lon="6.12688">
        <ele>451.48</ele>
        <time>2016-12-20T11:41:03Z</time>
      </trkpt>
      <trkpt lat="45.90017" lon="6.12677">
        <ele>451</ele>
        <time>2016-12-20T11:41:15Z</time>
      </trkpt>
      <trkpt lat="45.90022" lon="6.12676">
        <ele>451.48</ele>
        <time>2016-12-20T11:41:16Z</time>
      </trkpt>
      <trkpt lat="45.90027" lon="6.12677">
        <ele>451.48</ele>
        <time>2016-12-20T11:41:17Z</time>
      </trkpt>
      <trkpt lat="45.90031" lon="6.12677">
        <ele>451.48</ele>
        <time>2016-12-20T11:41:18Z</time>
      </trkpt>
      <trkpt lat="45.90034" lon="6.12676">
        <ele>451.48</ele>
        <time>2016-12-20T11:41:19Z</time>
      </trkpt>
      <trkpt lat="45.90037" lon="6.12673">
        <ele>451.48</ele>
        <time>2016-12-20T11:41:20Z</time>
      </trkpt>
      <trkpt lat="45.90039" lon="6.1267">
        <ele>451.48</ele>
        <time>2016-12-20T11:41:21Z</time>
      </trkpt>
      <trkpt lat="45.90039" lon="6.12666">
        <ele>451.48</ele>
        <time>2016-12-20T11:41:22Z</time>
      </trkpt>
      <trkpt lat="45.90038" lon="6.12662">
        <ele>451.96</ele>
        <time>2016-12-20T11:41:23Z</time>
      </trkpt>
      <trkpt lat="45.90037" lon="6.12658">
        <ele>451.48</ele>
        <time>2016-12-20T11:41:24Z</time>
      </trkpt>
      <trkpt lat="45.90036" lon="6.12654">
        <ele>451.48</ele>
        <time>2016-12-20T11:41:25Z</time>
      </trkpt>
      <trkpt lat="45.90035" lon="6.1265">
        <ele>451.96</ele>
        <time>2016-12-20T11:41:26Z</time>
      </trkpt>
      <trkpt lat="45.90036" lon="6.12646">
        <ele>451.48</ele>
        <time>2016-12-20T11:41:27Z</time>
      </trkpt>
      <trkpt lat="45.90036" lon="6.12642">
        <ele>451.48</ele>
        <time>2016-12-20T11:41:28Z</time>
      </trkpt>
      <trkpt lat="45.90037" lon="6.12638">
        <ele>451.48</ele>
        <time>2016-12-20T11:41:29Z</time>
      </trkpt>
      <trkpt lat="45.90035" lon="6.12613">
        <ele>451.48</ele>
        <time>2016-12-20T11:41:36Z</time>
      </trkpt>
      <trkpt lat="45.90037" lon="6.12609">
        <ele>451.48</ele>
        <time>2016-12-20T11:41:37Z</time>
      </trkpt>
      <trkpt lat="45.90039" lon="6.12605">
        <ele>451.48</ele>
        <time>2016-12-20T11:41:38Z</time>
      </trkpt>
      <trkpt lat="45.90042" lon="6.12603">
        <ele>451.48</ele>
        <time>2016-12-20T11:41:39Z</time>
      </trkpt>
      <trkpt lat="45.90044" lon="6.12602">
        <ele>451</ele>
        <time>2016-12-20T11:41:40Z</time>
      </trkpt>
      <trkpt lat="45.90047" lon="6.12601">
        <ele>451</ele>
        <time>2016-12-20T11:41:41Z</time>
      </trkpt>
      <trkpt lat="45.9005" lon="6.12601">
        <ele>451</ele>
        <time>2016-12-20T11:41:42Z</time>
      </trkpt>
      <trkpt lat="45.90053" lon="6.12601">
        <ele>451</ele>
        <time>2016-12-20T11:41:43Z</time>
      </trkpt>
      <trkpt lat="45.90074" lon="6.12599">
        <ele>451.48</ele>
        <time>2016-12-20T11:41:50Z</time>
      </trkpt>
      <trkpt lat="45.90077" lon="6.12598">
        <ele>451.48</ele>
        <time>2016-12-20T11:41:51Z</time>
      </trkpt>
      <trkpt lat="45.9008" lon="6.12596">
        <ele>451.48</ele>
        <time>2016-12-20T11:41:52Z</time>
      </trkpt>
      <trkpt lat="45.90083" lon="6.12594">
        <ele>451.48</ele>
        <time>2016-12-20T11:41:53Z</time>
      </trkpt>
      <trkpt lat="45.90086" lon="6.12592">
        <ele>451.48</ele>
        <time>2016-12-20T11:41:54Z</time>
      </trkpt>
      <trkpt lat="45.90089" lon="6.1259">
        <ele>451.48</ele>
        <time>2016-12-20T11:41:55Z</time>
      </trkpt>
      <trkpt lat="45.90092" lon="6.12589">
        <ele>451.48</ele>
        <time>2016-12-20T11:41:56Z</time>
      </trkpt>
      <trkpt lat="45.90121" lon="6.12576">
        <ele>452.44</ele>
        <time>2016-12-20T11:42:09Z</time>
      </trkpt>
      <trkpt lat="45.90139" lon="6.12562">
        <ele>452.44</ele>
        <time>2016-12-20T11:42:16Z</time>
      </trkpt>
      <trkpt lat="45.90141" lon="6.12559">
        <ele>452.44</ele>
        <time>2016-12-20T11:42:17Z</time>
      </trkpt>
      <trkpt lat="45.90142" lon="6.12555">
        <ele>452.44</ele>
        <time>2016-12-20T11:42:18Z</time>
      </trkpt>
      <trkpt lat="45.90141" lon="6.12552">
        <ele>452.92</ele>
        <time>2016-12-20T11:42:19Z</time>
      </trkpt>
      <trkpt lat="45.9014" lon="6.12549">
        <ele>452.92</ele>
        <time>2016-12-20T11:42:20Z</time>
      </trkpt>
      <trkpt lat="45.90138" lon="6.12546">
        <ele>452.92</ele>
        <time>2016-12-20T11:42:21Z</time>
      </trkpt>
      <trkpt lat="45.90137" lon="6.12543">
        <ele>452.92</ele>
        <time>2016-12-20T11:42:22Z</time>
      </trkpt>
    </trkseg>
  </trk>
</gpx>